GFSSGP_700_spd_000.txt.gz
Wind_Speed
7 12 20 20 6 10 14 10 13 13 9 13 11 6 5 5 5 2 10 11 11 11 12 13 11 9 4 3 4 3 0 2 2 4 6 8 8 11 14 16 15 15 16 17 19 19 21 22 22
14 22 21 14 10 17 13 12 12 10 16 14 12 9 6 2 4 8 13 12 15 16 16 14 11 11 11 9 6 3 2 4 5 8 11 13 13 14 16 18 19 18 17 17 18 19 20 21 20
22 19 13 10 11 15 17 13 15 15 14 13 12 9 5 5 7 14 15 16 17 15 13 12 11 11 8 5 2 1 4 6 9 10 12 14 14 15 16 17 17 16 16 17 20 21 22 21 20
19 18 18 13 16 15 15 16 14 15 12 13 8 4 7 7 12 17 18 16 13 11 10 9 8 6 3 1 1 3 5 8 10 11 12 12 12 13 15 16 15 15 15 17 18 18 18 18 18
17 15 16 18 17 16 15 14 12 8 9 8 3 3 4 10 16 17 15 13 12 11 8 6 2 1 3 4 4 6 8 10 10 12 11 10 10 11 12 12 10 10 11 12 13 13 14 14 14
12 15 19 20 18 15 13 13 10 8 7 3 5 5 9 13 14 13 12 10 9 9 6 1 4 5 5 6 6 7 7 6 7 8 7 6 7 9 9 7 6 7 8 10 11 11 11 10 11
13 14 16 19 17 14 12 12 8 7 7 4 6 8 13 12 14 13 10 9 8 6 4 4 4 4 4 4 5 5 3 4 6 6 3 5 7 7 8 8 7 9 10 11 12 12 13 13 12
19 12 19 16 14 12 11 8 7 6 6 7 5 4 8 11 10 10 9 8 9 5 5 6 3 2 5 6 6 5 4 5 6 5 5 8 10 11 11 12 13 15 15 15 16 17 18 18 18
17 13 13 13 11 11 11 7 3 4 7 4 5 8 8 7 7 10 11 10 7 5 7 5 2 6 8 9 8 6 4 5 6 7 9 11 13 15 16 17 19 20 20 19 19 19 20 21 21
12 10 10 12 9 9 8 7 2 5 7 6 6 6 4 4 7 11 12 12 10 9 9 5 3 8 9 10 10 8 7 7 9 10 12 14 16 19 21 23 24 25 26 26 26 25 24 25 25
15 11 11 9 8 9 8 6 5 8 8 9 9 7 7 5 5 9 13 12 11 12 9 7 6 8 8 9 10 10 9 9 9 10 11 13 15 17 20 22 25 26 27 29 29 29 29 29 29
16 12 9 8 8 7 8 8 5 9 7 13 12 9 7 4 4 6 11 13 13 12 9 7 5 5 7 9 11 14 12 10 9 10 12 14 16 17 19 21 24 25 27 28 28 29 30 31 31
14 13 12 9 8 7 7 10 8 9 12 10 10 6 4 2 2 3 9 14 13 12 10 6 3 2 6 7 10 14 13 13 11 12 15 13 14 17 21 24 25 26 27 26 26 26 26 27 28
14 12 8 5 5 6 8 7 7 5 6 7 8 7 6 5 2 2 6 12 14 12 9 5 5 3 7 9 11 14 14 15 15 15 18 17 16 19 22 23 26 27 28 27 27 26 26 26 25
11 6 5 4 7 8 6 5 6 7 6 4 11 10 8 9 7 4 7 11 12 10 9 7 8 7 9 13 15 15 19 20 21 20 20 19 18 22 22 21 23 26 27 28 28 29 30 30 31
7 6 5 3 5 3 6 5 6 12 10 13 10 14 12 12 9 9 11 12 11 10 10 12 12 12 13 16 18 21 21 21 23 22 23 22 23 25 25 25 25 26 27 28 28 28 30 31 31
5 3 3 4 5 3 2 6 12 18 17 14 17 15 15 15 15 14 12 10 9 11 13 15 16 15 16 20 22 22 22 25 26 24 24 22 24 27 29 28 26 30 31 31 32 31 34 35 37
3 4 3 2 5 5 3 5 10 8 6 10 13 13 15 18 19 17 13 11 11 12 15 17 17 17 20 22 22 20 24 24 24 25 26 28 29 32 32 31 31 31 32 32 34 36 37 41 40
3 3 2 3 5 1 1 2 2 3 9 11 10 9 11 19 16 15 13 13 15 15 15 14 19 19 22 23 21 23 26 26 26 26 27 30 32 36 36 34 36 35 39 39 39 41 44 42 43
3 2 1 3 3 1 1 2 4 6 8 9 7 8 8 12 14 14 14 13 12 14 15 15 19 22 23 23 26 27 29 31 29 31 32 34 37 40 40 38 39 39 39 40 39 40 44 46 46
5 1 3 4 5 4 5 3 3 6 6 5 4 4 8 11 11 10 9 10 11 12 14 17 21 23 24 26 29 31 35 35 36 36 37 36 40 39 40 39 38 38 40 43 45 47 48 51 51
2 5 8 7 4 6 8 6 2 5 4 6 6 7 8 8 7 7 7 10 14 14 16 18 23 26 28 30 32 35 39 41 42 43 42 44 44 40 34 37 40 43 45 47 49 49 50 52 55
3 10 8 6 6 4 2 7 4 5 3 3 9 9 7 7 7 7 11 14 17 17 19 23 27 30 32 34 36 40 41 41 46 50 52 48 43 36 38 40 42 46 48 49 51 51 52 54 56
8 8 2 2 3 5 2 4 6 4 2 3 9 10 11 10 10 13 16 18 20 22 25 28 29 31 36 37 41 42 44 41 47 46 45 42 38 42 45 48 53 52 53 54 53 54 54 54 54
9 2 2 2 4 1 2 5 1 4 8 9 11 12 12 12 14 19 19 21 21 24 26 28 33 36 38 41 43 48 50 43 42 43 44 44 45 47 51 55 54 53 53 53 53 50 45 44 43
8 7 3 3 2 5 6 3 4 6 8 11 12 13 15 18 21 16 16 19 22 23 28 30 35 44 48 47 45 42 43 42 43 45 46 45 47 52 56 56 55 52 50 46 38 38 39 40 40
3 4 4 2 3 3 2 3 7 9 4 10 12 17 19 17 15 16 20 24 28 34 38 38 40 44 43 43 44 42 44 44 44 46 47 48 55 57 56 55 49 46 41 38 33 32 30 37 42
2 2 2 3 3 4 4 9 9 7 7 11 15 14 18 17 18 21 25 31 33 33 35 37 38 41 45 44 44 45 45 47 49 49 51 54 56 56 50 44 38 36 33 33 31 32 36 31 33
2 1 1 1 1 3 4 6 2 4 6 9 11 15 19 22 22 24 26 26 30 32 33 38 42 42 43 44 42 45 45 45 47 50 54 55 50 44 38 35 32 33 33 36 37 36 36 36 34
5 3 2 2 2 5 4 10 1 2 7 15 20 14 20 24 22 23 30 32 36 41 45 43 39 41 44 39 38 36 41 47 51 54 54 47 41 37 34 34 33 33 37 40 39 38 35 36 34

GFSSGP_700_spd_003.txt.gz
Wind_Speed
7 12 20 22 6 10 10 7 10 8 9 6 8 5 5 4 4 1 10 7 8 9 11 14 14 11 9 8 7 5 3 3 4 6 8 10 12 13 14 16 17 18 19 19 18 18 18 18 18
10 19 21 8 9 14 12 10 12 9 11 11 11 8 5 3 7 5 8 10 10 13 12 14 13 12 8 7 6 4 2 5 6 9 13 14 15 16 18 18 19 20 20 19 19 20 21 21 20
17 22 9 6 13 14 12 12 11 12 11 8 5 7 4 3 6 9 12 13 14 13 12 12 10 9 8 7 6 4 5 7 9 12 14 15 16 16 17 17 18 18 18 18 19 22 23 23 21
21 16 4 10 8 9 14 13 13 10 7 7 5 2 4 8 9 14 17 16 14 12 10 9 8 8 6 4 3 5 6 8 11 12 13 14 14 14 14 14 14 14 15 16 18 19 18 17 16
19 11 10 9 11 10 13 13 10 7 5 4 4 2 4 8 13 19 17 14 12 10 9 7 6 4 3 3 5 6 8 8 9 10 11 12 11 12 14 14 13 11 11 13 14 15 15 15 12
7 10 11 13 14 13 12 10 8 7 7 4 5 7 7 11 17 16 12 9 9 8 7 6 4 5 6 7 6 6 6 4 6 9 10 10 10 12 13 13 13 12 12 14 16 16 15 16 16
8 9 13 16 13 12 10 8 6 6 7 4 7 7 6 15 13 11 9 8 8 8 7 6 6 5 5 5 5 6 5 7 9 10 10 10 11 14 15 15 15 15 16 18 19 19 19 19 19
4 6 12 12 13 10 9 7 7 7 7 8 7 4 10 14 12 11 9 9 8 8 7 7 4 3 4 4 6 6 6 7 8 8 8 11 13 15 18 18 19 21 21 22 22 23 23 22 22
10 12 11 9 9 8 8 7 6 8 6 6 6 7 12 13 13 12 11 10 10 8 6 4 1 1 4 5 5 4 4 5 7 8 10 12 16 18 21 20 24 26 27 28 27 27 26 26 26
7 6 10 6 5 8 8 7 4 5 7 5 8 9 10 11 12 12 13 13 12 10 7 6 3 1 4 6 7 7 6 6 6 8 10 13 15 18 20 23 23 27 28 30 30 30 30 30 30
5 6 8 6 7 7 7 7 5 6 5 7 8 9 13 6 8 12 12 11 10 9 8 7 5 4 4 6 7 7 7 6 6 6 8 11 13 16 19 22 25 28 28 27 30 31 30 30 31
8 8 7 8 8 8 6 5 4 7 5 8 8 10 12 7 8 12 14 12 10 9 7 10 8 4 4 5 7 7 7 9 8 9 12 15 16 17 18 21 25 26 28 29 28 28 29 28 29
7 8 8 8 7 6 8 6 5 6 6 10 10 11 11 11 10 10 12 12 10 10 10 8 9 4 1 2 4 6 9 10 13 14 16 18 21 19 19 22 23 25 26 28 28 29 29 30 29
10 8 8 6 5 5 6 6 6 8 10 10 11 10 10 11 10 9 12 13 12 10 11 12 9 5 6 6 10 13 15 14 17 18 20 22 23 21 23 21 21 21 24 26 28 29 28 29 29
10 8 4 5 5 4 6 10 8 6 7 9 12 12 12 12 10 9 10 14 13 13 11 15 10 12 11 12 14 17 18 18 18 21 24 24 22 21 22 22 22 24 26 29 31 31 31 30 30
8 8 11 6 6 6 7 15 12 6 8 10 10 13 13 13 12 12 12 13 12 9 12 14 14 16 15 17 19 22 24 22 22 24 26 25 24 25 24 22 21 25 29 31 29 30 33 35 37
8 13 6 4 7 4 7 0 5 10 14 13 14 13 12 14 15 15 13 12 12 13 12 14 20 16 21 20 22 25 25 23 18 22 24 27 28 29 28 28 27 29 32 34 31 30 32 37 38
8 6 8 5 4 5 7 8 8 8 11 8 12 14 14 15 16 16 16 13 12 13 13 12 22 20 24 24 24 25 27 26 26 29 30 30 30 32 33 33 35 36 36 38 36 35 35 35 38
1 4 5 4 5 3 5 4 2 4 4 5 6 8 11 11 15 23 18 19 18 18 14 11 21 27 23 24 25 27 27 27 31 31 36 36 37 37 38 37 40 41 42 38 37 36 37 39 39
3 4 3 5 4 1 4 6 3 4 7 6 4 4 7 14 15 18 20 19 17 20 14 21 25 24 23 27 31 29 30 31 34 34 39 37 40 39 40 45 46 44 40 38 38 39 41 42 40
4 3 3 5 6 8 7 10 7 4 7 7 7 9 10 8 7 15 18 17 14 13 14 19 22 24 26 30 33 34 32 33 36 41 40 42 44 43 45 45 44 40 41 41 41 44 46 48 48
6 4 8 8 7 10 11 5 10 8 5 5 5 7 7 6 6 6 10 10 11 15 18 22 26 29 32 33 36 33 37 43 45 46 48 50 47 46 44 42 41 42 44 45 47 49 51 51 55
4 8 6 6 8 9 9 12 11 10 7 3 3 3 3 10 10 10 10 13 16 19 21 25 30 34 36 39 37 38 44 43 43 48 49 45 39 42 42 42 43 43 45 50 55 54 54 55 56
5 6 4 3 4 7 2 7 11 7 5 4 2 0 2 6 12 12 14 18 21 23 25 30 33 38 37 38 45 50 50 44 41 43 46 45 45 45 47 49 51 52 54 59 57 55 57 57 56
6 5 5 3 4 2 2 7 2 3 4 5 3 3 4 14 13 15 17 17 24 23 25 28 29 31 35 41 46 47 46 49 48 47 46 46 47 50 53 55 56 58 59 56 52 45 42 40 41
6 5 4 4 3 5 4 5 7 6 2 3 3 6 7 14 19 18 14 15 16 24 26 28 30 36 41 40 41 45 45 43 45 46 46 48 51 54 55 57 59 59 55 46 41 39 40 39 36
5 3 1 0 1 3 6 4 6 6 2 1 4 5 6 5 5 8 10 18 29 31 36 37 34 33 37 42 44 45 45 49 49 50 52 52 52 54 57 58 54 47 38 37 37 36 36 34 35
3 2 4 3 3 4 3 13 7 6 4 5 6 9 9 9 9 12 17 21 26 28 34 36 38 44 48 45 43 47 50 47 48 48 48 52 56 58 54 50 35 29 35 37 36 36 38 42 40
4 2 3 3 3 4 5 5 3 2 3 7 10 13 12 12 15 19 21 28 29 29 29 38 44 47 43 46 49 53 48 44 44 50 53 56 55 53 49 42 38 34 35 36 40 42 42 42 38
1 2 2 2 2 4 4 10 1 1 5 10 10 14 13 14 16 19 20 25 29 35 35 45 51 43 43 45 47 41 44 44 48 52 54 54 51 47 42 39 36 33 33 29 33 34 36 37 35

GFSSGP_700_spd_006.txt.gz
Wind_Speed
6 9 18 18 6 9 17 4 9 7 3 8 8 12 9 4 2 11 17 10 10 11 15 16 15 11 9 7 5 4 3 2 3 4 7 10 13 15 16 18 20 20 20 20 20 19 18 18 20
9 12 18 16 8 19 9 11 8 11 8 8 11 3 7 8 7 5 8 10 9 10 11 13 14 11 8 6 5 5 3 4 6 9 11 15 15 16 17 19 20 20 20 20 20 19 18 20 22
13 18 20 6 13 25 11 10 14 11 13 7 5 7 8 10 7 6 7 10 9 8 11 12 11 9 8 6 6 5 6 8 9 12 13 14 13 13 13 15 17 18 17 16 16 18 19 20 21
20 20 10 13 16 8 17 14 13 9 8 6 3 1 9 6 7 8 11 11 11 10 10 8 6 6 6 5 6 7 8 9 11 12 10 10 10 9 11 13 14 16 15 13 14 15 15 15 15
23 18 10 12 5 10 11 10 9 8 4 6 3 10 8 6 10 13 14 11 10 9 8 7 7 6 6 7 9 9 9 9 7 7 9 10 9 9 12 14 15 15 15 14 14 16 17 16 17
16 10 11 24 12 10 8 6 4 5 8 4 5 7 9 2 12 13 11 9 5 5 6 6 5 6 9 10 8 7 6 4 6 9 10 10 10 11 13 15 17 17 18 19 21 21 21 20 19
10 8 17 11 12 9 8 6 4 3 2 4 8 10 5 11 12 11 7 5 4 4 5 5 8 10 7 5 3 5 5 5 8 10 10 9 11 14 15 17 19 20 22 22 23 24 25 24 23
11 17 23 11 9 10 8 7 5 6 9 8 6 7 9 13 12 9 6 5 5 7 8 9 10 4 3 3 4 5 5 6 7 8 10 11 13 15 16 17 19 21 23 24 26 27 27 27 26
7 20 13 9 9 10 7 7 7 9 2 3 8 3 12 7 10 10 9 8 8 10 9 10 5 3 3 2 4 4 5 7 9 9 11 13 13 16 18 17 19 22 23 25 27 28 29 30 30
8 12 12 9 7 7 7 6 3 5 4 6 8 8 14 11 12 11 11 10 10 12 9 6 4 2 2 4 2 3 3 3 5 7 9 14 16 17 19 22 22 22 23 24 24 26 26 26 27
3 0 9 11 5 5 7 5 4 6 4 7 11 14 12 9 10 10 8 7 8 5 3 9 6 3 2 5 5 4 6 8 7 8 11 14 17 20 22 24 26 28 28 29 27 26 26 25 22
5 7 6 8 11 7 7 5 4 5 5 10 6 7 12 5 3 4 8 8 2 8 9 18 8 7 5 4 2 4 6 8 11 13 16 18 22 23 24 23 26 27 25 24 25 26 27 26 24
4 4 6 7 9 8 8 5 2 7 6 9 9 9 11 7 5 7 8 12 7 13 14 18 11 10 8 5 4 6 9 12 15 19 21 23 24 25 26 25 25 24 22 21 22 25 27 28 28
7 6 8 7 5 4 7 5 6 6 7 7 11 9 9 8 7 8 9 13 13 14 18 19 18 12 10 6 7 10 13 16 19 22 22 22 24 23 22 22 22 20 19 22 26 28 28 28 28
9 9 6 5 4 2 4 7 8 12 8 9 10 10 11 9 8 12 10 14 17 19 19 24 19 11 12 9 11 15 17 20 23 25 25 24 23 23 24 24 25 25 25 28 31 31 31 31 32
8 8 8 8 7 6 7 10 13 10 5 7 10 10 10 13 11 12 11 13 9 15 19 26 9 15 16 15 13 18 21 22 23 28 24 27 28 30 29 28 28 28 27 29 32 32 33 33 33
8 11 8 7 7 4 6 2 8 5 7 10 12 12 11 12 14 15 15 13 14 7 16 10 19 21 22 21 17 20 23 24 25 24 24 32 34 33 33 33 34 34 34 36 37 35 37 36 35
13 8 5 5 6 3 6 7 2 6 9 11 14 12 12 10 13 15 14 9 14 16 20 18 22 29 20 20 21 19 22 25 30 32 27 39 32 36 37 38 40 40 41 43 40 39 39 36 36
7 5 4 9 1 7 7 9 4 4 1 2 5 9 10 6 14 22 21 22 23 21 22 22 22 25 24 27 26 26 29 33 32 31 33 35 38 42 37 39 43 39 45 45 44 43 40 40 38
4 4 5 3 7 4 7 10 5 4 5 7 4 7 10 12 15 19 26 26 21 19 20 19 22 24 22 29 31 28 38 36 34 33 36 41 45 45 49 48 46 46 40 43 42 41 42 43 42
2 3 3 4 5 9 9 9 11 8 6 8 14 13 9 10 19 20 23 20 17 19 19 21 23 24 24 30 35 39 37 37 37 40 48 53 55 53 38 41 42 43 41 39 42 43 44 48 47
3 2 5 7 8 10 15 4 13 13 10 8 10 10 7 5 5 1 12 12 12 12 15 18 23 25 28 32 34 36 37 39 49 49 39 37 38 40 40 39 40 41 44 44 45 47 50 51 53
4 10 6 7 9 10 11 10 21 15 12 9 7 6 6 9 8 11 11 12 15 16 19 24 28 32 32 35 35 40 45 46 47 44 44 43 45 44 42 44 45 48 50 51 50 52 54 56 57
6 8 8 6 8 5 11 2 8 7 9 6 5 4 4 2 8 10 15 19 19 21 25 25 26 30 34 36 40 42 41 40 43 50 53 52 49 48 48 50 52 53 53 54 56 57 58 56 53
8 7 6 3 5 2 2 2 12 10 11 9 5 2 3 3 4 1 2 8 20 23 22 22 24 26 30 38 42 39 45 51 54 50 50 49 51 51 50 52 51 54 57 57 57 53 47 46 39
6 5 4 4 5 5 3 4 11 10 7 6 2 0 4 5 7 7 13 16 21 26 27 29 31 31 34 37 42 47 53 53 49 50 50 53 50 50 50 53 54 56 56 53 52 45 38 36 36
6 6 2 2 3 3 7 10 12 6 6 4 2 4 3 7 8 14 9 16 18 24 30 37 38 35 32 39 45 53 54 51 49 54 54 48 48 48 52 54 53 53 52 48 44 40 38 40 36
7 4 4 5 2 3 10 7 7 5 2 1 2 4 6 11 10 8 12 19 24 30 34 34 39 42 39 45 52 46 48 49 49 45 45 48 48 50 52 53 53 48 46 42 39 37 36 37 34
3 3 3 3 1 2 3 3 2 1 3 5 7 7 7 6 8 14 15 19 25 34 40 35 44 45 45 49 49 48 43 43 43 44 48 49 51 52 50 47 43 39 37 33 32 32 30 31 31
3 2 2 1 1 3 3 10 1 1 3 9 7 6 6 9 18 25 27 30 37 41 42 46 46 46 49 47 47 39 39 40 41 44 47 49 51 49 47 46 44 39 36 33 31 33 35 38 39

GFSSGP_700_spd_009.txt.gz
Wind_Speed
6 11 15 15 7 8 8 10 11 4 18 14 12 5 9 9 7 7 13 11 11 12 16 16 14 11 9 6 4 5 4 3 3 3 7 11 14 17 16 16 16 16 17 18 16 15 15 14 16
7 12 16 14 5 4 5 15 10 13 16 12 12 8 2 7 7 10 13 9 5 12 15 15 13 12 8 6 7 6 4 4 6 8 12 14 15 14 12 11 11 13 15 14 13 14 13 14 15
9 12 16 6 6 14 15 5 12 17 9 6 7 5 3 3 4 8 11 5 9 11 13 13 12 10 7 7 6 5 6 7 8 11 14 13 10 9 9 11 13 15 16 15 14 13 13 13 12
15 18 11 7 1 13 22 16 11 13 14 7 1 5 7 3 3 2 8 5 7 11 10 9 9 7 6 6 7 8 8 10 12 12 8 8 8 8 10 12 14 15 15 16 16 16 17 16 15
20 20 8 3 6 11 11 10 13 11 9 2 3 9 4 4 5 7 6 7 7 7 8 7 6 5 6 8 8 9 10 11 7 5 8 8 8 9 12 13 15 15 16 16 17 18 19 20 19
20 14 4 8 7 12 15 14 8 5 10 4 2 3 1 5 5 10 6 7 5 3 3 4 4 6 8 9 8 7 5 5 4 7 8 8 9 11 13 14 15 16 17 18 19 20 22 22 21
15 5 5 3 7 11 14 13 10 7 12 9 5 2 4 2 9 11 6 5 3 3 4 4 7 8 8 4 3 3 4 4 5 7 8 9 11 12 14 16 18 20 21 22 23 23 23 24 24
7 8 2 4 7 13 9 12 8 10 19 13 2 5 7 2 9 7 5 5 6 6 7 7 7 5 1 2 2 1 2 3 4 6 9 11 11 11 11 14 17 20 22 24 25 26 26 26 26
2 11 15 17 15 14 10 13 10 6 8 11 12 3 4 6 9 8 8 8 10 8 9 6 5 3 3 2 2 3 3 4 6 7 8 8 9 11 14 16 18 19 21 22 24 24 24 23 24
4 9 4 15 15 8 6 5 3 12 5 7 12 10 7 6 9 9 10 10 12 11 11 9 6 5 2 3 4 3 5 5 5 8 9 12 16 19 22 24 24 24 24 23 22 21 22 21 21
4 6 7 16 17 6 10 7 2 8 7 7 7 14 11 8 10 11 11 11 8 8 8 6 5 7 4 4 2 1 3 5 5 8 15 18 19 22 23 23 23 23 23 21 21 21 21 20 20
3 5 2 5 6 9 6 5 10 4 13 10 7 5 2 3 7 8 6 5 8 16 11 11 10 8 5 4 4 8 9 11 13 17 18 20 22 23 23 23 25 25 24 23 21 22 23 23 22
9 5 5 3 13 15 11 7 6 6 7 6 6 6 7 5 5 4 3 6 9 16 12 16 12 10 8 6 5 7 9 11 15 17 20 24 25 25 25 23 24 23 22 22 21 22 23 24 23
6 4 4 8 10 14 11 8 9 9 8 7 7 5 9 9 9 5 3 6 14 16 15 13 9 10 14 9 8 10 11 14 17 19 21 22 25 22 22 22 22 22 23 23 24 25 26 26 28
9 7 4 8 4 6 12 11 8 13 12 5 10 8 9 9 6 6 6 6 9 18 17 23 9 7 11 10 13 15 16 18 20 23 23 22 28 26 28 27 24 25 27 29 28 29 31 33 33
11 12 14 10 8 6 2 6 13 15 8 9 7 6 6 11 11 7 10 10 11 15 25 23 24 18 14 7 17 21 23 20 23 26 29 33 37 34 34 33 31 33 35 34 34 37 37 36 35
12 14 16 14 6 6 1 5 20 8 4 3 8 9 6 7 13 12 12 13 13 16 22 21 23 12 14 19 11 21 20 22 25 25 31 33 35 35 36 35 40 41 41 41 42 39 38 38 36
4 10 21 18 14 11 7 2 14 7 6 7 5 9 12 11 14 16 15 15 16 19 23 18 23 20 22 14 21 24 23 26 27 36 41 40 39 40 39 45 48 48 49 44 38 38 37 37 39
2 9 21 17 12 5 4 8 9 9 10 9 10 7 15 19 19 26 22 18 19 21 24 25 22 21 20 25 23 25 27 28 39 38 35 34 37 34 48 41 44 47 40 36 37 39 40 40 40
3 5 13 10 6 2 7 6 10 10 11 13 8 7 10 16 18 27 26 21 23 25 25 27 23 23 25 27 28 29 29 32 31 29 34 40 44 50 50 43 43 42 43 39 37 39 42 42 42
7 3 2 2 3 1 4 15 14 13 14 15 15 13 12 16 20 23 27 25 25 23 22 19 17 17 21 26 27 32 34 33 34 31 35 42 48 44 46 43 42 45 45 44 42 43 44 47 46
1 1 5 8 3 3 7 5 15 15 16 17 16 14 12 19 24 26 23 15 11 10 12 15 15 17 22 25 31 32 32 34 37 43 47 45 45 51 49 48 49 49 47 47 47 48 47 47 49
2 7 5 5 5 7 4 4 20 17 14 13 15 10 12 15 19 19 16 13 12 14 17 21 25 26 28 28 32 34 37 41 43 44 46 51 52 49 48 47 47 47 47 47 47 48 51 51 51
8 9 6 6 5 3 9 5 18 15 15 12 10 10 10 11 12 14 17 17 16 17 20 20 20 24 28 33 38 41 41 42 45 48 53 52 49 48 49 51 45 47 46 48 50 49 50 49 47
5 8 2 1 1 2 6 11 9 10 15 12 10 9 9 8 12 17 18 19 21 20 21 23 25 31 33 35 37 41 44 47 49 53 47 49 50 51 47 43 44 45 46 47 49 49 47 48 47
11 7 5 2 1 5 9 9 11 15 16 13 7 6 5 8 9 6 8 12 11 11 24 36 37 38 41 41 45 46 45 50 50 56 46 52 51 47 46 46 47 48 49 51 49 45 43 44 40
6 9 8 3 4 3 7 13 6 2 2 3 6 3 5 9 12 13 12 11 11 17 26 34 39 42 46 45 49 47 46 51 51 59 55 54 49 47 46 47 48 49 48 46 43 41 39 39 41
9 7 4 3 2 2 3 5 2 10 8 3 6 3 3 3 9 11 19 22 26 28 33 36 43 45 45 47 46 45 47 51 57 57 50 49 47 48 46 45 44 43 42 40 36 34 34 35 33
5 2 3 0 2 4 1 5 7 9 11 6 7 7 8 9 12 17 19 25 30 30 33 40 40 43 47 47 44 43 43 47 45 37 46 53 47 46 45 46 48 46 43 39 35 34 33 32 33
1 1 1 1 1 3 0 4 6 8 7 8 6 13 12 15 20 24 27 26 30 40 41 44 48 47 45 43 42 42 45 44 31 47 56 57 45 41 42 49 48 43 39 37 36 34 33 33 32

GFSSGP_700_spd_012.txt.gz
Wind_Speed
8 9 12 12 7 6 8 4 15 8 12 12 13 13 13 13 12 7 17 10 13 12 17 16 12 11 8 5 5 7 7 5 4 6 9 13 16 16 13 10 8 9 13 14 13 12 12 11 10
6 7 11 10 5 8 3 11 8 3 4 3 4 5 6 7 6 10 12 15 10 12 17 14 11 11 9 7 7 9 6 4 8 9 13 16 14 10 8 8 9 11 13 14 13 12 13 12 11
9 11 13 5 8 10 7 16 13 12 6 3 5 6 3 4 6 7 9 6 8 12 15 13 12 10 9 9 8 6 6 8 10 12 14 11 9 8 7 8 11 13 12 13 12 12 13 13 12
11 12 11 8 8 7 13 21 16 23 10 5 5 2 7 7 8 5 6 8 9 11 10 11 11 11 11 8 6 7 9 11 12 11 6 9 10 10 10 12 13 13 13 13 14 15 15 14 13
15 14 5 3 8 19 16 15 11 2 10 5 2 8 5 8 9 2 8 10 10 10 10 11 10 8 6 6 8 10 11 10 6 4 7 9 10 11 12 13 14 15 16 16 17 17 17 18 18
13 19 7 4 8 13 10 14 13 14 12 9 5 5 4 9 6 8 11 10 11 9 9 8 6 5 7 10 10 7 4 4 4 6 8 10 10 11 13 14 15 16 19 19 19 18 17 16 17
14 12 4 9 17 13 17 8 8 8 3 5 2 2 5 4 7 10 11 10 9 7 5 5 4 6 7 4 2 2 3 3 5 7 7 8 10 11 12 15 17 18 20 21 22 22 21 20 18
14 5 4 12 16 15 5 5 11 11 10 5 1 3 5 4 9 10 8 7 6 5 5 4 5 5 1 2 1 0 1 2 4 5 7 9 10 10 13 15 16 17 18 20 21 21 20 20 18
6 1 8 9 11 19 14 10 14 10 6 6 2 5 4 2 11 10 8 7 5 5 4 5 5 1 1 2 1 1 3 3 5 7 7 9 12 15 18 18 19 19 19 19 19 19 18 16 17
6 4 4 17 19 13 13 9 3 7 11 9 10 6 3 4 8 8 8 7 6 6 4 5 3 2 3 2 2 2 5 6 5 6 10 14 18 20 22 22 21 20 19 21 18 17 16 15 14
5 4 9 11 21 17 6 9 5 7 11 4 3 10 7 6 7 10 9 7 3 9 7 9 9 6 4 3 1 2 2 4 6 10 13 16 19 21 23 23 23 22 21 20 17 18 19 19 18
3 14 11 18 13 10 6 8 5 6 7 4 4 3 1 2 5 9 9 4 1 10 11 8 11 10 8 4 2 4 4 5 8 11 16 18 21 24 26 26 25 25 26 24 21 21 21 21 20
17 9 8 13 19 12 10 6 11 3 4 6 4 3 2 4 4 0 5 7 4 6 8 4 2 5 6 6 7 10 9 11 13 14 16 17 21 23 28 27 25 29 31 29 27 27 26 26 24
11 8 8 10 17 13 9 7 8 6 5 5 6 4 5 3 5 9 11 4 1 4 8 7 13 11 16 6 8 13 16 19 18 18 18 22 24 25 33 32 31 32 31 31 31 33 33 32 32
10 5 7 12 10 15 12 11 10 9 8 7 4 1 3 2 7 8 10 4 5 6 7 10 10 14 16 13 13 14 16 20 25 24 24 25 28 31 36 35 37 35 33 36 36 39 40 39 38
5 4 6 5 6 7 6 5 10 14 15 8 1 3 2 4 8 6 4 8 10 9 11 12 15 11 14 12 8 15 14 21 28 27 27 29 36 35 35 34 36 39 41 47 45 43 43 42 42
9 9 13 8 8 3 7 6 18 14 12 5 3 7 9 10 12 10 12 12 12 13 13 18 15 12 15 14 15 17 18 20 25 28 29 35 37 33 34 33 38 42 47 40 38 37 39 39 39
10 14 21 19 16 11 6 5 18 14 9 8 12 20 20 19 20 19 17 15 16 14 16 16 16 16 13 17 19 17 17 23 26 27 29 33 31 31 30 39 43 47 41 41 40 40 39 42 44
0 6 14 19 14 10 5 20 17 14 15 16 14 16 20 18 20 21 21 18 20 18 16 18 20 21 17 17 13 16 22 25 27 30 31 31 29 36 39 41 42 42 47 48 46 45 45 45 44
10 17 18 16 15 8 16 19 19 16 16 14 13 11 14 18 20 21 20 21 19 20 23 25 18 15 14 11 14 19 21 25 27 34 34 40 40 42 42 40 46 49 47 45 45 46 47 47 47
11 17 16 10 6 7 17 19 16 16 18 16 14 14 16 15 16 21 17 20 22 22 19 12 11 11 12 14 17 20 23 28 29 32 36 37 39 42 46 49 52 49 48 48 47 47 46 48 47
5 5 2 3 3 10 12 9 20 19 16 14 14 13 13 12 12 14 15 16 12 8 7 9 12 16 18 19 21 23 27 31 34 36 36 38 43 48 50 50 47 46 47 49 49 47 47 46 47
3 1 2 2 3 5 5 10 16 17 16 13 13 12 12 12 12 18 18 17 17 17 17 15 19 22 21 24 25 28 33 36 39 39 41 45 47 50 53 46 45 48 50 45 46 47 47 47 47
3 4 3 1 0 2 7 9 20 18 20 15 12 13 12 11 9 9 12 15 17 18 21 19 16 20 26 31 37 41 43 46 49 48 46 50 53 47 55 47 46 43 46 46 45 47 49 50 50
1 2 3 3 2 4 4 5 5 14 15 12 15 13 9 11 10 11 9 12 18 21 23 16 24 30 33 38 44 46 47 49 50 48 47 44 48 49 57 44 47 49 50 49 49 50 49 47 46
8 6 4 4 2 3 4 6 8 12 14 9 6 3 6 11 16 11 13 17 17 20 21 26 27 29 35 42 45 47 48 43 45 46 47 52 57 55 45 47 53 52 48 46 47 50 52 46 41
4 10 6 5 3 2 4 10 8 7 8 12 11 13 6 7 12 14 14 15 19 21 25 25 27 32 36 42 47 48 49 48 44 48 46 48 47 39 47 48 46 41 37 42 44 44 42 41 38
9 6 1 3 2 2 2 6 6 13 9 8 6 6 11 14 16 16 17 22 26 25 26 28 35 44 47 50 51 45 42 42 43 43 44 40 41 50 50 50 46 40 43 45 45 48 45 36 31
3 2 3 3 1 4 2 3 6 20 15 13 13 8 9 17 17 18 18 26 24 26 31 37 45 46 47 51 45 42 42 43 43 44 43 41 52 48 51 49 48 38 40 40 40 40 36 30 27
2 2 3 2 3 3 3 6 12 13 16 15 13 12 13 17 19 23 26 28 33 37 41 45 43 47 49 44 42 42 42 44 46 47 44 44 45 48 45 39 31 33 36 37 41 34 29 31 32

GFSSGP_700_spd_015.txt.gz
Wind_Speed
8 8 8 12 8 8 9 3 9 15 15 12 15 10 11 11 13 4 17 16 15 12 13 12 10 10 9 5 3 6 8 5 4 8 9 13 17 13 9 7 7 10 13 14 14 13 13 12 11
6 11 12 12 6 7 3 10 20 5 16 18 11 10 9 7 4 9 12 16 15 13 12 12 11 11 8 7 6 8 8 5 7 10 12 15 11 9 7 9 11 12 12 12 13 13 14 15 13
10 8 9 8 12 9 4 17 13 6 4 14 10 6 7 4 3 11 10 11 13 12 13 13 12 10 9 8 8 8 6 7 10 12 13 8 10 10 10 11 12 13 12 13 13 14 14 14 14
7 10 12 9 9 8 9 15 10 9 4 8 8 10 5 5 7 5 7 10 12 14 16 15 12 10 9 9 9 7 8 10 11 10 6 8 9 9 10 12 12 12 12 13 14 15 16 15 15
13 15 8 6 1 7 19 15 13 12 13 10 6 4 8 8 4 8 11 14 15 14 14 13 10 9 9 7 7 9 11 10 6 5 6 7 9 11 11 11 12 13 14 15 16 15 15 15 15
14 16 9 4 7 12 19 12 6 10 13 9 5 4 4 7 5 12 12 14 15 11 11 9 8 6 5 8 11 10 4 2 2 3 6 9 11 11 12 14 15 16 17 18 18 18 17 15 13
12 15 11 6 14 17 14 6 12 12 8 4 3 3 5 10 13 12 13 13 13 12 9 6 4 4 7 8 4 2 1 3 3 5 8 10 11 13 13 16 16 16 17 17 19 19 18 17 16
11 10 8 9 11 15 13 6 9 8 7 6 5 2 5 9 15 13 11 11 9 7 5 3 4 6 5 3 2 2 2 2 4 7 9 11 11 13 14 15 16 17 16 17 19 19 18 19 18
17 6 10 9 14 16 9 13 14 12 7 7 2 1 7 7 13 10 7 6 5 3 3 5 5 3 2 1 2 2 3 5 6 7 7 8 11 15 19 20 21 21 21 20 21 20 17 16 17
12 6 7 13 15 19 9 20 15 11 5 2 4 4 4 6 7 6 5 3 2 2 5 3 1 1 1 2 2 4 4 4 4 2 6 10 14 17 20 23 23 22 22 22 23 22 21 21 21
6 4 3 14 17 12 13 16 7 4 7 3 7 4 3 1 6 7 6 4 3 5 7 6 7 4 3 2 1 3 1 1 1 5 9 13 17 20 22 26 27 27 25 24 25 23 21 22 25
9 7 9 16 24 19 16 12 7 4 5 1 5 8 4 4 2 2 3 4 8 6 6 5 5 5 4 3 2 2 4 5 8 12 15 18 20 21 23 23 30 30 28 27 25 25 25 26 27
9 15 13 14 18 19 15 8 3 4 2 5 1 4 5 10 12 9 8 7 5 7 6 3 6 10 7 3 6 5 7 7 12 16 20 22 24 24 23 29 30 28 28 28 28 30 32 33 32
16 14 11 11 13 14 11 8 8 4 2 1 4 2 4 7 7 5 8 9 13 11 8 3 5 6 11 11 9 10 9 11 16 18 21 23 24 24 28 31 33 31 30 32 34 38 39 38 38
12 10 10 17 17 15 11 8 8 5 3 3 4 8 4 2 1 5 4 5 8 7 4 6 4 3 12 16 16 15 13 15 15 18 18 21 23 25 31 32 32 33 34 39 41 43 39 38 40
11 6 10 14 13 14 12 5 12 8 8 6 3 3 2 6 8 7 7 6 5 5 14 14 10 6 12 14 15 14 15 18 17 16 18 22 26 32 33 34 33 34 36 44 42 43 40 40 42
11 8 5 5 8 5 9 3 11 14 12 7 7 8 9 9 11 12 12 12 13 15 21 22 19 23 14 13 15 11 20 20 18 20 24 27 32 31 30 34 35 36 43 46 47 46 49 48 47
6 10 10 12 7 10 7 7 7 17 14 12 12 14 13 14 15 15 15 13 14 19 25 25 22 21 18 21 34 12 18 18 21 24 27 29 34 37 34 38 40 38 47 49 51 52 52 51 52
4 11 16 11 17 15 14 13 18 18 18 19 19 21 22 22 22 21 18 17 17 19 19 20 21 20 20 13 7 13 16 21 24 29 28 29 34 35 38 39 45 47 49 50 54 55 54 51 51
6 4 17 14 11 11 11 16 16 19 18 20 21 19 21 26 22 18 19 19 18 15 16 19 22 18 10 12 10 15 20 24 24 26 33 38 37 38 42 43 46 49 54 53 54 51 51 50 52
15 16 18 13 5 8 13 12 10 11 14 16 14 13 12 12 9 10 11 11 15 16 17 14 9 10 12 12 13 15 17 24 28 31 30 35 39 41 43 48 52 54 55 55 57 53 50 52 50
13 13 9 11 8 12 10 6 13 15 15 13 12 11 11 9 6 11 8 11 14 15 12 9 9 10 10 8 11 14 20 26 30 35 38 43 45 46 48 52 51 46 47 54 52 50 49 49 50
8 8 7 7 9 13 9 7 18 19 17 15 12 9 5 0 5 8 12 16 18 19 17 16 17 14 13 19 24 29 35 40 43 47 49 49 47 48 51 53 48 51 55 49 50 46 49 50 49
9 8 8 4 5 3 4 8 22 25 23 18 14 10 4 12 9 9 9 11 13 13 14 17 15 18 28 33 35 39 42 45 49 52 52 51 47 53 52 52 58 57 49 47 49 49 48 45 42
7 10 3 0 0 4 1 5 6 24 19 16 12 9 7 6 6 12 16 19 10 15 18 21 24 27 33 36 40 44 48 51 51 53 51 50 49 50 51 50 50 46 49 48 49 46 43 41 43
6 8 4 5 3 3 1 2 1 23 13 12 10 10 7 9 16 24 22 16 15 16 18 24 26 32 36 37 41 47 49 51 51 48 46 46 46 46 45 42 45 53 44 45 39 40 41 42 48
2 5 4 6 3 2 3 5 9 16 17 18 16 17 19 21 24 20 21 17 16 18 23 27 32 38 38 42 48 48 50 48 46 46 46 46 45 45 36 41 43 39 47 44 41 35 39 43 41
4 4 2 2 3 2 3 7 8 22 23 20 19 21 18 19 21 22 22 20 20 22 28 29 32 37 44 46 45 48 46 46 45 46 47 48 47 46 46 45 48 42 45 31 30 34 38 40 34
4 1 2 4 2 5 2 6 15 18 21 20 18 16 18 19 21 26 24 24 24 28 26 32 41 42 41 44 46 46 45 44 45 47 49 50 50 44 43 39 41 37 34 31 31 35 39 38 32
3 3 2 2 4 4 1 5 9 17 21 20 19 16 15 18 27 30 28 30 31 25 31 38 43 40 43 44 43 43 42 45 47 50 50 48 44 43 41 44 47 36 30 29 33 37 41 34 33

GFSSGP_700_spd_018.txt.gz
Wind_Speed
9 6 6 12 5 7 8 3 5 4 11 14 19 7 8 3 5 0 13 17 19 17 15 14 13 11 10 7 4 2 5 4 2 7 8 12 13 9 8 9 11 13 13 13 14 14 13 12 12
9 9 11 12 9 13 10 6 7 13 12 11 10 6 9 8 11 6 10 18 17 15 15 15 12 11 11 8 3 4 6 4 4 9 11 10 9 9 9 11 12 13 13 15 15 15 15 14 13
12 12 12 7 11 11 10 8 5 6 13 4 15 5 7 10 6 10 12 19 16 13 15 15 12 11 9 6 3 7 5 5 8 11 7 7 8 9 10 11 12 13 13 14 15 16 16 16 15
15 13 10 6 10 13 4 18 20 8 14 18 7 13 3 4 5 7 11 13 13 14 16 14 12 10 6 4 6 6 5 7 9 4 3 6 7 8 9 11 12 12 13 14 15 15 16 16 15
15 12 6 7 6 9 12 15 5 14 15 5 6 6 2 6 10 9 10 13 13 15 15 13 10 7 6 5 5 6 8 7 2 2 6 7 8 10 11 13 14 15 15 16 17 17 17 17 15
15 12 9 4 4 7 14 15 11 7 4 2 6 3 4 11 11 11 12 14 17 14 11 11 9 7 5 5 7 7 4 1 1 4 6 8 10 12 13 14 15 16 16 16 18 20 19 19 18
14 18 10 2 15 15 15 13 11 8 4 5 9 5 4 9 14 12 13 15 15 14 11 9 8 6 4 7 5 3 3 4 4 6 8 8 10 11 14 15 16 16 16 16 19 21 20 20 20
10 10 10 5 16 15 13 8 7 15 11 12 8 1 3 9 16 15 14 15 15 13 11 7 4 4 5 4 4 6 6 6 6 7 7 7 8 11 15 17 18 19 19 19 18 19 19 19 20
13 8 11 11 20 18 19 4 11 17 11 9 5 3 5 12 18 15 12 11 10 8 5 5 5 3 4 4 6 6 6 7 7 5 4 5 8 12 16 19 20 20 21 20 20 20 19 19 20
15 7 3 10 13 10 4 9 10 18 9 5 5 5 6 9 13 11 9 7 5 4 5 7 6 7 5 5 4 6 6 6 4 1 3 8 12 15 16 17 19 22 22 21 20 19 17 18 20
12 2 2 11 6 6 5 15 14 14 8 2 4 7 7 8 10 8 7 5 2 4 6 5 5 5 6 6 6 6 4 3 1 4 8 12 15 16 17 17 20 23 21 22 21 20 20 21 23
2 2 5 8 11 11 12 15 12 7 3 3 7 9 9 9 7 6 4 1 1 4 5 9 10 6 5 4 6 5 3 3 4 7 10 12 15 17 18 18 23 25 25 24 22 23 26 27 27
4 10 4 19 20 15 16 13 5 4 5 1 5 10 13 16 17 15 13 7 4 6 7 6 9 8 8 1 3 4 4 5 7 10 12 16 17 17 18 21 24 25 26 26 27 30 34 34 33
7 9 8 9 24 14 12 10 6 5 4 4 8 13 13 13 13 12 12 12 8 6 4 4 6 8 7 5 7 10 9 8 11 15 17 17 16 17 20 24 27 28 28 29 32 35 40 39 38
15 12 10 14 17 18 10 8 8 4 3 7 11 8 8 7 8 8 7 6 4 3 6 9 9 9 10 9 10 10 9 7 14 17 17 18 19 21 25 29 31 34 34 33 34 40 45 44 43
13 7 11 13 16 15 9 7 9 5 3 4 7 5 6 5 5 5 4 7 6 4 11 13 15 15 14 12 16 16 17 14 16 17 18 20 22 25 28 31 34 35 32 38 42 46 46 49 50
13 7 6 12 10 7 11 5 7 10 6 5 6 6 7 8 9 10 9 10 10 8 15 19 21 23 19 18 17 18 30 10 15 17 21 23 25 30 29 32 31 39 38 46 47 50 52 54 54
11 11 9 8 10 9 7 11 12 10 12 11 11 11 12 12 14 15 16 13 12 15 19 25 28 25 23 17 16 17 10 8 15 19 22 28 30 27 38 37 37 42 45 48 51 52 53 55 58
7 6 9 11 14 10 12 12 10 11 15 14 15 16 16 16 19 20 20 21 16 17 17 27 22 21 14 6 11 11 12 14 18 23 27 27 37 35 37 39 42 46 49 50 51 54 58 58 56
4 6 5 8 11 14 13 13 12 15 17 15 17 20 20 22 23 22 23 23 16 11 15 15 14 13 6 8 9 11 13 18 20 25 28 30 32 35 39 42 43 45 49 53 54 55 55 53 57
4 11 8 13 12 8 8 5 9 13 17 18 18 15 13 12 6 4 6 8 12 10 12 13 12 13 14 12 10 13 15 18 24 30 33 38 41 45 48 51 53 53 55 55 55 55 55 57 54
9 7 6 9 9 6 9 4 7 11 13 12 9 8 7 7 5 3 7 8 8 11 14 14 14 13 10 9 14 20 24 30 35 40 44 47 49 51 52 54 54 54 54 56 59 58 53 50 50
7 7 5 5 6 5 10 3 11 14 15 14 12 10 7 7 4 5 12 3 13 18 15 12 12 12 12 21 26 33 36 38 41 46 48 49 51 52 52 51 52 52 51 51 50 51 52 51 47
10 10 7 1 3 2 8 8 13 24 24 20 16 12 11 9 11 8 7 6 20 26 13 10 13 15 19 26 32 36 39 41 44 49 49 49 47 46 48 49 49 48 47 47 49 51 48 45 42
8 8 1 1 0 4 4 10 15 18 24 20 16 13 11 9 7 9 14 24 19 13 18 18 20 21 24 30 36 37 42 45 44 46 46 45 45 46 47 48 48 48 46 45 47 49 44 45 43
7 11 5 5 3 3 5 6 6 15 19 15 13 13 13 13 13 18 21 18 17 21 19 20 23 24 26 32 38 45 44 45 48 47 47 48 49 50 52 52 50 46 45 41 44 39 40 37 35
4 5 9 2 2 1 4 6 6 10 24 21 22 19 16 16 21 23 19 22 25 25 23 23 23 22 29 36 45 46 47 47 47 47 48 49 50 51 50 50 43 44 41 40 44 38 33 32 35
6 7 2 3 3 3 3 6 10 16 25 25 24 20 19 21 21 22 20 24 27 27 27 31 30 25 33 39 43 44 44 44 46 47 49 49 48 47 46 42 44 44 42 42 34 29 26 32 35
6 4 3 3 2 5 1 6 8 16 16 17 20 20 21 20 20 20 23 29 31 35 35 43 29 30 38 40 42 42 43 45 47 48 49 47 46 46 45 42 40 39 35 29 27 26 30 33 38
7 5 5 3 3 4 2 7 6 11 19 20 22 22 20 20 21 24 28 32 32 36 35 38 38 39 38 39 41 42 45 46 48 49 49 49 47 44 40 38 36 34 27 28 29 29 31 36 37

GFSSGP_700_spd_024.txt.gz
Wind_Speed
14 11 9 8 4 8 12 9 5 7 7 8 11 12 12 17 13 8 10 17 27 23 21 19 19 17 14 10 7 5 3 2 2 6 8 6 6 7 8 9 10 11 12 12 12 12 11 10 9
13 11 9 8 7 12 11 8 10 7 5 12 13 10 10 10 10 9 17 29 25 25 19 22 19 18 13 9 6 3 2 1 2 6 5 3 4 6 8 10 12 12 13 13 12 12 12 11 11
15 12 9 6 11 14 4 8 14 11 9 12 9 5 3 3 5 14 20 21 26 23 24 20 17 16 12 9 5 2 2 0 3 4 1 3 5 8 9 11 12 12 12 12 13 14 14 13 12
14 11 10 9 10 6 4 12 14 10 1 6 7 13 11 6 6 5 17 23 22 28 22 19 16 14 11 8 5 3 3 2 2 1 3 4 7 8 9 10 11 11 11 12 14 15 14 13 11
15 13 10 10 8 6 8 14 11 5 2 5 1 1 4 6 6 13 12 18 29 18 21 19 17 14 11 8 5 4 3 3 2 4 5 7 8 8 8 9 9 10 10 11 12 13 13 11 10
12 14 9 14 6 6 10 14 9 6 2 4 5 4 3 10 9 12 13 18 26 22 21 19 16 13 11 8 6 5 4 4 6 7 8 7 8 9 9 10 10 10 10 11 13 14 14 12 12
11 11 9 6 5 4 9 13 8 9 8 9 8 7 6 11 13 17 20 19 15 20 21 17 14 12 10 8 7 6 6 8 9 11 9 8 8 7 8 9 10 11 13 14 15 17 17 14 12
12 9 9 8 9 8 12 12 7 16 3 7 10 8 8 12 12 16 19 21 19 21 18 15 12 10 10 7 7 8 10 12 13 11 8 6 5 4 4 6 9 10 13 16 18 20 19 17 14
16 10 12 11 10 12 10 7 7 6 9 6 7 5 4 12 14 19 20 22 23 19 15 13 11 8 7 9 10 12 13 13 13 9 7 4 1 1 4 6 8 10 13 16 19 20 19 17 17
12 10 10 10 10 10 6 9 10 11 6 3 10 3 8 13 15 17 18 18 16 15 14 10 9 10 10 10 12 12 13 14 14 11 8 5 4 4 5 6 10 13 15 17 21 22 20 18 19
12 6 6 13 11 7 4 17 14 9 4 6 5 4 13 18 18 18 15 14 14 13 11 11 10 11 11 12 14 16 16 15 13 10 8 6 7 8 8 9 11 14 18 21 24 25 26 25 23
10 8 7 10 12 8 10 8 8 8 1 4 6 7 16 18 18 16 14 13 12 11 10 10 12 13 14 15 16 16 17 14 12 9 8 10 11 11 11 12 13 15 18 21 25 28 28 31 29
12 6 5 16 17 14 11 6 5 7 4 2 11 15 17 17 16 17 14 13 13 11 12 11 11 11 13 15 16 15 14 12 8 6 11 17 14 13 14 14 15 18 20 22 27 30 35 32 31
7 3 2 13 20 17 10 6 7 8 6 11 17 22 20 19 17 17 17 15 14 13 12 10 10 10 11 13 13 13 13 9 12 7 9 22 22 20 15 18 21 23 28 31 31 34 33 36 37
7 4 6 10 17 16 11 8 9 7 12 16 23 23 23 21 18 18 17 14 12 12 10 11 11 12 13 16 18 17 16 1 12 27 34 20 21 13 16 19 23 28 32 31 33 34 37 41 43
6 8 8 7 11 16 13 11 10 11 17 18 19 20 20 19 18 17 16 14 14 12 13 13 15 16 21 23 23 23 25 21 11 13 17 15 11 14 17 24 29 32 33 31 36 39 41 45 47
13 10 8 12 15 17 11 9 13 13 19 20 20 18 17 16 15 14 12 13 14 15 15 16 18 21 26 25 23 27 11 11 9 12 13 14 17 21 25 27 30 33 37 39 41 43 46 45 48
11 7 10 11 14 14 10 7 13 13 17 17 19 18 16 15 13 11 12 11 13 12 14 15 17 21 19 18 5 9 7 6 5 7 12 17 21 23 27 31 35 37 38 40 41 43 44 45 50
7 7 12 13 16 14 13 14 11 8 19 19 19 18 16 14 13 14 13 13 16 17 18 16 16 14 12 11 7 5 4 5 6 9 13 16 21 25 29 33 35 36 40 41 44 45 47 48 50
7 10 12 16 19 16 13 12 11 9 10 21 20 17 17 15 16 16 16 17 18 19 20 17 13 8 7 7 8 5 3 5 9 12 16 21 25 29 32 35 38 39 40 44 45 46 48 48 52
8 8 10 11 21 17 12 10 13 13 12 17 22 20 19 17 15 13 11 10 9 7 7 7 4 9 8 10 7 4 4 8 13 17 23 27 31 33 36 37 38 41 43 43 46 47 48 47 46
6 7 5 3 12 10 16 10 14 16 14 16 22 22 20 15 12 12 12 9 5 5 6 9 11 8 7 6 5 7 11 16 20 24 29 33 33 36 38 39 40 41 42 44 45 46 46 47 44
6 7 8 8 6 6 10 11 6 12 15 18 22 22 18 14 15 15 13 8 5 5 10 10 8 7 10 9 10 14 18 22 26 28 31 34 35 36 38 39 41 43 43 44 44 44 45 42 43
6 7 7 6 5 9 8 9 11 11 14 20 22 20 18 17 17 16 10 6 5 7 2 6 11 13 13 13 16 19 24 28 32 33 35 35 37 39 40 42 41 41 41 43 42 41 37 41 41
8 9 4 5 5 7 6 9 20 12 13 17 20 21 19 18 17 13 9 7 7 4 7 10 12 15 17 20 23 27 31 27 32 36 34 36 38 39 39 40 40 40 41 40 41 39 38 37 36
10 9 6 5 4 3 4 7 5 12 18 16 17 18 19 19 17 13 10 9 8 8 9 12 15 19 22 26 28 32 28 33 36 34 34 37 40 41 40 39 39 39 40 39 38 36 35 31 31
7 8 11 4 4 3 9 8 13 15 13 18 22 25 23 21 18 16 12 10 10 12 15 17 19 22 26 29 29 36 35 38 35 36 37 40 41 42 42 42 41 41 41 38 35 32 29 27 29
9 6 3 6 3 4 4 7 5 6 8 15 22 25 25 24 22 19 14 13 14 17 20 23 24 28 30 30 35 35 38 34 34 36 39 41 41 42 41 41 42 41 39 36 34 31 26 25 29
11 8 8 5 3 2 3 0 2 1 4 6 10 17 22 24 23 21 20 18 19 22 26 28 30 33 37 36 31 41 36 33 35 37 39 41 42 42 42 42 41 40 38 35 31 27 26 29 29
14 10 10 7 5 5 2 7 5 2 4 7 12 16 20 24 25 24 23 23 25 27 29 31 35 38 39 34 37 35 32 33 36 38 40 42 43 43 43 43 42 40 37 31 25 29 32 31 28

GFSSGP_700_spd_027.txt.gz
Wind_Speed
13 12 9 7 7 12 22 21 10 9 5 3 2 13 13 10 13 14 13 19 21 24 24 22 21 18 18 14 11 7 5 4 2 4 5 4 5 7 8 10 11 11 10 10 10 11 11 11 11
13 12 9 6 12 21 21 13 5 10 7 6 4 5 7 5 14 12 13 21 26 26 26 21 15 21 17 13 9 6 4 3 2 3 3 4 6 8 10 10 9 9 10 11 11 11 11 11 11
12 13 7 10 18 21 13 6 11 6 6 2 5 8 3 6 5 10 16 23 28 29 24 20 23 20 17 12 9 5 4 2 1 2 4 5 7 9 8 8 9 10 10 10 10 10 10 10 9
12 11 11 14 18 10 7 4 11 10 3 2 5 11 17 11 10 8 18 26 30 31 27 24 20 19 15 11 8 5 4 1 0 4 5 7 8 7 7 8 9 8 8 9 10 11 12 12 11
13 10 16 16 18 10 8 9 9 7 6 2 1 1 1 6 1 11 19 21 27 27 30 22 20 18 15 11 8 6 3 1 3 5 7 8 7 7 7 7 7 7 8 10 13 15 16 16 13
10 11 18 20 18 9 8 12 10 8 3 5 4 4 1 4 7 12 16 27 28 28 28 26 21 17 12 10 8 6 3 4 7 8 9 7 7 6 7 7 7 8 10 12 14 17 19 17 14
14 15 17 18 2 5 7 12 7 5 5 6 8 5 6 7 8 10 13 19 22 28 23 18 19 17 16 13 9 7 6 8 9 11 9 8 7 5 4 5 6 8 10 13 16 18 19 18 16
12 14 19 12 8 8 11 8 12 7 2 8 7 8 5 6 10 11 13 19 16 18 22 19 15 14 12 10 8 8 9 10 12 12 9 8 5 1 3 5 7 9 11 13 16 18 18 17 15
11 13 18 14 7 11 10 12 7 12 4 3 5 3 9 3 9 12 12 6 15 12 16 16 15 13 11 11 10 10 11 13 14 12 9 6 3 1 4 7 9 10 12 15 17 18 19 21 22
13 12 13 9 9 16 12 7 9 12 15 9 7 8 6 7 9 12 11 9 12 15 15 14 12 10 9 7 9 11 14 15 16 13 10 7 4 4 6 9 11 13 15 17 18 19 21 23 22
13 10 8 8 3 8 1 5 2 10 13 14 8 6 8 12 14 12 12 12 13 13 13 10 8 8 9 11 13 15 15 16 15 13 11 9 8 8 9 11 12 14 15 18 21 26 25 27 25
10 10 3 9 8 4 7 6 7 9 2 15 8 8 15 16 17 16 15 13 11 10 8 8 10 12 12 13 14 15 13 16 14 13 10 11 12 12 12 12 14 16 19 21 24 26 33 32 31
12 7 8 8 9 8 6 6 7 6 8 7 9 13 17 15 14 15 14 12 11 10 10 9 9 9 10 11 12 15 12 12 11 10 13 16 16 16 18 14 14 17 21 24 28 32 32 32 33
9 8 7 9 12 10 9 6 2 5 5 11 13 18 16 15 15 13 13 13 11 9 9 7 7 8 10 13 13 15 16 13 8 15 19 17 6 24 27 27 22 15 19 26 31 32 30 34 38
7 5 8 10 14 14 9 7 3 6 8 12 17 19 15 14 14 13 13 11 11 10 7 6 6 9 11 13 17 18 17 7 13 10 25 35 36 39 27 15 17 22 25 28 32 36 39 40 43
8 10 11 10 13 13 12 13 8 9 12 13 16 17 17 17 15 16 15 13 12 11 9 9 11 13 16 18 21 18 18 21 24 24 22 20 23 26 15 22 26 26 30 35 37 39 40 42 42
13 16 10 6 11 13 13 13 14 11 15 15 16 17 17 18 16 16 16 16 14 14 13 14 16 16 19 20 19 18 6 13 17 19 16 16 14 17 20 23 26 29 33 37 38 39 42 44 45
11 16 15 14 10 14 11 6 11 12 17 17 16 17 18 19 18 18 18 17 17 18 14 17 17 16 19 20 8 6 5 11 11 8 7 10 14 17 22 24 27 30 35 38 40 41 42 44 47
9 5 8 10 11 13 12 8 10 14 16 18 18 17 18 20 23 18 18 18 19 18 16 18 18 18 17 14 10 7 6 9 7 7 9 13 16 19 22 27 30 33 35 39 41 43 43 45 46
7 6 10 9 12 11 12 12 12 15 16 19 20 19 19 18 19 21 21 21 21 20 18 19 20 17 13 12 11 9 9 10 9 12 14 15 19 22 26 28 33 37 38 39 42 44 44 43 44
8 9 8 9 14 14 12 17 17 16 16 19 20 19 19 21 21 21 21 20 20 19 14 13 13 12 12 12 9 11 13 13 13 15 18 20 25 28 31 34 35 37 39 40 42 43 44 42 44
8 8 8 7 15 21 19 17 17 17 20 18 19 23 21 22 20 19 19 17 16 14 12 11 10 11 10 9 12 13 11 10 16 19 23 29 29 32 34 36 38 38 38 39 40 39 43 43 43
7 6 7 8 14 9 18 14 18 23 18 16 17 19 26 23 20 18 17 17 15 11 9 9 9 9 9 12 13 14 18 19 22 24 24 30 34 36 36 37 39 39 39 39 41 42 41 40 41
5 4 5 7 13 10 18 17 8 16 14 15 15 19 20 21 21 19 19 17 14 12 9 10 10 11 13 15 17 19 21 25 30 35 25 28 33 35 37 37 37 38 39 41 40 41 40 40 39
6 7 11 8 7 10 5 8 17 13 7 14 17 15 19 21 21 20 19 17 15 13 12 12 12 13 15 16 19 22 27 30 34 31 36 37 34 36 37 36 36 37 37 37 39 39 31 35 30
9 11 11 6 7 9 5 9 5 10 7 10 17 16 17 20 21 20 20 18 16 14 16 15 15 16 17 21 24 26 27 33 31 31 35 34 36 37 37 37 39 40 40 40 38 37 34 26 29
7 10 9 7 7 9 18 19 10 10 10 10 16 18 19 21 21 22 22 21 18 16 16 19 21 21 22 25 28 29 33 31 32 33 31 35 37 37 38 39 40 40 39 37 39 28 28 31 28
10 4 5 9 4 8 6 7 1 3 6 12 17 19 20 21 22 24 24 24 21 20 20 21 23 27 27 31 34 35 37 33 33 30 33 35 36 37 38 39 39 40 39 38 35 33 30 28 27
8 12 10 7 6 4 4 1 5 1 6 10 15 19 20 22 22 24 26 27 25 25 25 26 28 31 32 36 39 41 37 39 32 33 35 35 36 37 39 41 42 42 42 40 34 32 28 28 27
10 11 13 10 7 7 4 9 4 3 1 6 11 18 21 22 23 24 27 29 29 30 31 32 33 35 34 39 42 46 38 34 34 34 36 35 37 40 41 42 43 43 41 41 37 32 27 25 30

GFSSGP_700_spd_030.txt.gz
Wind_Speed
12 10 9 8 8 11 20 23 12 6 1 4 1 18 15 13 15 12 9 22 6 17 24 24 24 22 19 17 13 10 9 8 5 3 5 6 6 8 9 10 10 11 11 11 11 12 12 12 12
11 12 7 5 14 20 23 17 7 8 14 5 1 6 11 13 16 10 14 17 13 22 27 25 25 22 19 16 14 10 9 8 4 3 6 6 7 9 9 9 10 11 10 10 10 12 13 14 14
11 13 7 11 18 26 24 3 4 6 5 6 1 2 8 13 17 13 12 12 21 25 29 29 27 22 18 16 13 10 8 7 4 5 7 7 9 9 9 9 9 8 8 9 11 14 15 15 14
10 10 12 12 23 24 11 4 3 8 4 1 7 6 7 11 8 11 13 21 18 29 31 30 23 23 19 16 11 9 7 5 4 7 8 10 9 9 9 8 8 8 9 10 13 15 17 15 13
13 9 15 19 18 21 11 7 3 15 16 13 11 4 2 7 10 15 16 22 29 34 33 32 27 21 17 12 10 8 7 4 6 9 10 10 9 9 8 8 8 9 10 12 13 15 16 15 12
10 9 17 23 23 22 8 12 7 6 8 14 3 6 2 4 1 14 16 24 30 34 28 23 28 21 17 10 7 8 6 5 9 10 12 10 9 8 8 8 8 8 9 11 14 16 16 16 14
14 15 19 22 22 12 7 12 13 12 10 12 11 2 4 8 5 9 18 19 22 23 21 26 28 20 8 14 11 9 5 7 10 12 10 9 8 7 5 5 5 6 9 11 13 14 15 15 14
11 14 20 24 24 11 8 4 12 15 12 10 11 8 4 3 14 10 14 17 24 17 28 30 19 15 13 14 12 9 6 9 10 12 11 9 7 3 1 3 5 7 8 9 12 13 16 17 21
10 15 18 20 23 10 18 8 3 7 4 12 5 12 7 10 9 8 14 14 20 22 22 23 22 16 14 14 10 7 8 10 12 12 10 9 7 4 3 4 7 10 10 12 14 17 18 20 23
13 14 18 9 6 4 17 24 2 6 8 8 5 5 5 6 6 6 4 3 19 21 16 8 10 14 12 10 9 9 10 13 15 13 12 10 5 6 6 8 11 11 12 15 16 17 19 24 27
14 19 14 12 12 7 11 3 2 10 11 17 13 7 3 6 5 7 6 14 17 13 11 9 9 10 9 9 10 11 12 15 16 14 9 6 7 9 10 12 12 13 15 18 20 22 26 28 30
16 14 11 7 3 6 5 8 6 2 10 17 19 10 8 9 9 8 10 11 11 11 10 6 5 6 5 8 10 11 15 15 14 12 11 10 14 13 13 16 18 24 15 18 19 22 27 29 28
15 10 12 10 5 4 6 5 3 3 8 11 9 14 12 12 9 8 10 9 8 7 5 6 7 7 8 9 11 14 13 12 13 10 12 17 19 19 17 16 21 25 22 21 18 24 27 29 31
11 12 6 8 6 3 4 7 5 9 9 10 14 14 14 11 7 8 2 9 8 6 5 5 4 6 9 10 12 12 13 14 8 7 17 20 22 23 16 17 21 20 23 20 21 23 28 31 34
6 8 9 6 8 4 6 7 12 10 10 11 12 12 13 15 12 10 14 5 6 6 6 3 3 4 3 5 7 12 12 8 17 21 23 20 21 25 30 35 30 20 25 21 25 28 31 34 37
9 10 5 6 10 6 10 1 7 11 10 14 14 12 14 12 12 10 8 7 9 8 5 4 5 5 8 8 9 14 18 19 25 27 30 31 27 24 19 17 17 19 23 25 27 31 34 37 39
10 9 9 9 12 14 9 8 9 12 12 12 13 14 13 12 10 9 10 9 9 7 5 8 10 9 9 13 12 14 12 14 19 22 21 24 21 17 14 15 18 21 26 30 33 36 38 39 40
8 15 15 9 10 16 13 9 12 15 16 14 15 16 16 13 12 8 10 11 12 16 10 12 12 13 13 14 13 9 10 13 16 16 15 12 12 13 17 19 21 23 28 33 36 38 38 38 40
12 8 18 14 12 10 14 14 11 14 17 16 17 16 17 15 16 13 12 15 16 22 13 11 13 14 16 16 14 12 13 13 12 9 11 14 13 16 19 24 27 30 32 36 38 39 39 39 39
12 12 6 9 8 11 13 9 13 16 18 20 19 17 18 16 19 15 19 23 24 24 20 18 19 18 18 16 15 14 14 13 11 12 14 14 15 18 23 25 27 32 34 36 37 37 39 38 38
13 5 11 9 9 11 9 16 16 19 17 19 20 21 21 20 25 21 24 25 25 26 23 23 18 15 13 15 14 13 13 11 14 17 17 16 20 22 26 27 30 32 35 35 36 36 38 38 38
12 9 8 10 13 12 11 12 8 12 16 22 24 25 24 24 27 28 26 26 25 24 23 18 14 14 16 15 13 11 12 17 20 22 22 24 26 23 27 30 32 33 34 35 35 35 37 38 40
1 5 6 10 11 7 8 11 24 27 21 24 24 27 26 25 30 29 25 21 22 21 18 16 15 17 13 13 14 12 20 22 22 24 27 29 33 34 32 33 34 36 37 36 37 38 39 40 40
4 5 8 9 12 4 23 20 12 26 17 21 19 22 25 31 33 26 25 22 18 19 18 17 16 16 12 15 16 17 19 21 24 27 29 32 33 35 34 34 34 35 37 37 36 38 40 39 40
6 8 7 9 7 4 14 11 5 10 18 11 21 24 25 20 20 22 25 21 19 20 18 16 17 16 16 16 17 19 21 25 28 28 33 37 32 35 33 34 34 36 37 37 36 37 37 36 36
11 9 3 5 5 8 4 6 2 7 7 9 17 19 14 19 20 21 21 21 20 19 18 18 20 21 19 18 19 21 25 29 32 33 36 35 32 33 34 33 35 36 37 37 36 39 39 35 32
5 5 6 6 7 5 10 20 10 5 7 6 13 14 17 18 20 20 19 23 24 22 21 20 23 24 23 22 24 26 29 34 35 38 37 38 29 31 34 35 37 37 38 38 36 36 37 33 27
9 8 5 3 2 4 11 14 9 4 3 5 12 15 17 19 20 21 21 25 26 26 26 23 24 28 27 26 26 30 33 35 38 43 46 33 30 32 34 36 38 38 39 40 42 37 34 33 31
7 9 11 10 9 1 4 4 6 4 2 5 12 16 18 19 20 22 23 27 29 30 30 27 27 32 32 31 32 35 37 40 40 45 36 33 30 33 35 37 38 39 40 40 41 36 33 33 30
10 7 11 10 8 6 4 12 6 3 2 4 8 15 19 21 22 24 24 26 30 31 31 30 30 35 36 36 35 38 39 42 43 49 35 34 34 34 36 39 39 39 40 40 39 39 36 32 28

GFSSGP_700_spd_033.txt.gz
Wind_Speed
10 8 10 9 10 9 12 15 19 16 5 8 10 13 16 20 17 9 14 7 15 20 21 28 27 26 24 21 19 16 13 11 8 6 6 8 7 9 10 9 9 10 10 11 13 13 13 13 13
10 11 13 10 12 14 18 19 11 17 9 9 8 13 14 19 20 19 15 12 17 18 27 30 28 27 25 22 18 15 12 10 7 6 8 8 8 9 9 9 10 10 10 11 12 13 14 13 12
9 12 16 6 13 21 20 6 6 4 7 10 6 6 9 8 13 17 19 17 22 22 32 34 30 27 23 19 18 14 12 9 7 8 8 9 10 9 9 9 9 10 10 11 11 12 13 12 12
9 11 14 14 17 18 21 21 10 10 11 7 10 4 9 9 12 14 16 17 17 25 33 32 31 27 25 22 19 15 13 10 8 10 10 11 9 9 9 9 10 10 9 10 11 11 13 12 11
13 13 12 13 18 15 23 14 15 16 14 12 9 4 2 9 11 14 18 18 20 34 36 35 33 28 30 29 17 12 10 9 10 11 12 11 9 9 9 9 10 9 9 10 11 12 12 12 11
15 7 9 17 15 15 5 12 16 16 16 14 7 10 5 7 8 7 15 23 35 37 40 38 31 27 29 24 14 9 9 8 12 13 13 10 9 9 8 8 7 6 7 6 8 10 12 14 14
15 9 16 23 29 26 9 18 11 8 5 10 12 3 3 8 6 8 11 17 20 39 43 35 29 29 22 22 18 13 10 10 13 14 13 11 10 8 6 4 3 2 3 4 6 7 9 11 13
6 8 16 19 25 19 10 14 9 5 5 9 8 5 7 8 7 12 13 17 21 21 20 23 29 26 18 14 10 9 7 10 13 14 13 12 10 5 1 2 3 6 8 8 9 10 10 11 13
8 18 22 19 21 3 8 9 8 13 8 7 10 10 8 11 6 7 13 14 10 21 22 24 23 19 18 13 8 7 7 12 14 14 13 10 6 5 4 4 8 10 11 12 13 14 14 15 19
9 17 24 15 14 15 12 8 9 7 10 8 11 6 8 7 8 5 5 6 4 18 13 18 21 13 14 12 11 7 7 10 12 13 12 10 7 7 8 8 13 15 13 14 16 17 15 16 21
9 19 14 16 16 13 9 3 2 9 9 12 7 8 6 5 5 6 10 20 13 23 19 21 18 13 11 10 8 7 10 13 12 13 10 10 13 13 12 11 14 13 19 22 26 24 23 22 24
15 18 18 14 9 5 3 6 8 9 9 13 14 5 7 5 8 7 12 12 12 14 13 13 13 10 8 6 6 8 9 10 10 10 11 13 16 15 15 15 14 21 19 20 23 28 24 23 25
13 18 9 14 17 6 9 9 4 2 2 10 18 9 12 9 8 11 11 8 9 11 9 8 8 6 3 2 3 3 3 7 10 12 14 14 17 17 16 19 19 18 19 22 21 16 22 22 24
15 11 4 2 0 10 2 8 3 4 3 13 20 15 11 9 3 7 6 3 6 8 7 7 6 3 4 3 3 3 4 7 9 14 15 16 19 20 19 21 22 28 27 19 21 20 23 23 27
5 5 11 5 5 2 6 11 3 6 5 11 12 13 11 8 1 5 5 5 7 13 9 8 6 7 5 5 3 4 5 10 14 18 19 24 21 19 19 20 24 26 20 17 21 23 25 28 31
7 5 6 5 7 6 6 13 8 5 3 9 11 19 15 14 7 5 2 6 11 10 7 5 5 4 2 1 3 7 10 10 16 21 25 26 24 28 31 24 18 16 19 20 23 26 30 34 37
9 9 5 7 7 7 7 11 12 7 7 9 11 14 19 17 15 5 4 2 6 7 5 3 1 2 4 5 7 7 6 11 18 24 29 32 33 23 22 26 21 21 22 25 27 31 35 37 37
3 5 7 13 6 14 9 9 16 14 11 10 12 13 13 12 11 8 8 6 1 5 3 5 4 8 9 10 11 10 9 11 14 17 19 19 21 20 18 20 18 21 25 28 29 31 35 35 34
2 14 9 16 11 15 19 8 14 21 18 14 10 13 14 11 8 10 12 11 8 7 5 6 8 12 12 15 16 11 11 14 15 16 16 18 19 18 18 19 20 24 25 27 31 34 35 34 33
13 14 14 17 17 14 14 21 17 19 20 19 16 16 13 16 15 15 16 17 15 14 15 14 14 16 16 17 17 12 13 16 14 16 17 18 17 18 18 24 24 24 26 30 32 35 35 34 34
13 13 18 5 6 9 6 15 21 14 15 20 20 18 18 18 20 19 21 21 22 22 22 20 17 19 20 16 15 16 17 15 15 19 18 20 20 21 24 27 25 31 28 30 32 34 34 35 35
13 11 10 1 7 7 5 3 10 16 19 18 23 22 22 24 24 24 23 24 25 23 21 21 22 20 18 16 17 16 14 17 18 17 17 18 23 27 28 27 30 32 32 33 33 32 34 36 36
6 10 8 14 13 15 7 5 5 19 19 19 21 24 24 27 27 27 28 31 28 28 26 23 24 19 17 16 17 17 17 19 16 18 17 19 25 27 31 32 33 35 35 35 34 34 36 37 37
4 7 6 9 1 2 16 13 8 18 31 29 30 30 24 28 28 28 30 34 34 24 24 22 21 20 17 17 18 19 18 20 20 22 24 28 30 33 37 35 32 35 35 35 34 35 37 37 37
10 9 2 3 5 5 14 10 24 15 18 28 17 16 31 33 31 30 34 33 30 19 22 23 23 19 17 17 17 19 20 21 23 26 30 31 34 38 40 37 31 35 34 34 36 37 37 35 36
11 11 4 4 2 4 16 11 5 6 18 13 17 20 27 30 38 36 38 33 20 17 21 22 22 20 18 17 18 21 22 24 26 30 33 35 37 41 52 40 32 34 33 34 35 36 36 37 37
1 8 6 7 7 2 9 11 9 10 14 15 19 19 26 27 26 23 19 19 19 17 19 21 23 22 20 20 20 21 24 28 32 35 37 40 40 45 50 32 35 37 35 35 35 35 34 34 36
13 9 3 4 3 4 4 6 6 8 7 9 11 12 14 14 14 18 21 20 19 18 20 23 27 26 24 24 24 26 28 31 35 37 39 41 44 41 40 37 36 34 34 36 36 38 36 34 33
13 12 8 9 5 4 1 1 6 3 2 10 12 15 15 14 13 14 17 19 21 22 22 25 29 31 31 30 29 29 31 34 36 40 45 45 49 36 33 34 35 34 34 35 35 37 34 32 33
14 7 7 10 6 3 1 7 11 5 3 7 4 13 17 19 21 21 20 22 22 22 21 21 27 33 36 36 34 35 35 37 39 42 48 46 48 38 34 35 34 32 33 37 36 35 34 32 33

GFSSGP_700_spd_036.txt.gz
Wind_Speed
12 10 11 13 9 7 7 14 11 16 14 13 14 7 8 7 9 10 9 15 17 20 27 28 28 22 27 26 23 20 17 13 10 8 9 10 7 7 8 9 9 9 9 8 8 8 8 8 7
12 11 13 13 9 9 12 12 13 5 12 10 13 10 9 13 15 18 11 14 20 24 29 31 28 30 31 27 24 20 18 14 10 9 10 10 9 9 9 9 9 8 8 7 8 9 9 9 8
12 13 14 8 12 14 20 4 4 13 15 12 11 7 6 10 15 18 15 11 19 25 31 25 32 33 30 27 23 21 18 14 11 12 12 11 11 10 9 9 8 7 7 8 9 10 10 9 9
12 14 15 12 12 15 14 14 18 14 11 16 8 6 9 9 14 14 12 16 24 23 31 30 37 33 30 25 21 19 14 13 12 12 13 13 12 10 9 8 7 7 8 8 8 8 9 10 9
13 13 13 13 18 11 19 20 24 23 20 14 12 9 6 7 10 14 17 20 24 25 34 41 39 33 27 26 22 18 14 12 12 13 13 12 11 10 8 7 7 6 7 7 7 9 9 11 10
13 12 7 17 11 8 17 20 18 18 11 7 6 6 6 7 7 10 10 16 17 33 44 44 39 37 36 31 28 18 13 13 14 14 13 11 9 8 8 6 4 3 2 2 4 7 9 10 12
13 11 14 9 9 17 17 14 12 9 7 7 6 7 10 8 7 7 6 17 38 36 34 40 42 41 41 37 29 22 14 13 14 15 14 12 11 9 8 6 3 2 4 4 5 6 5 5 7
11 8 9 9 8 25 16 9 12 10 12 12 11 3 7 8 7 5 4 23 34 24 29 36 37 42 31 23 24 11 12 14 16 15 13 12 11 9 8 6 4 6 7 7 6 7 10 9 9
7 9 9 5 13 17 7 10 12 15 13 14 9 5 7 7 6 3 6 12 9 25 22 22 27 20 29 25 17 12 12 15 17 16 13 10 10 10 8 7 8 9 10 10 13 16 16 15 15
12 16 8 6 15 12 5 8 16 16 15 17 13 9 8 9 2 2 4 9 11 23 17 24 28 25 21 17 12 10 11 14 15 14 13 14 13 12 11 11 10 12 13 14 15 15 14 14 18
10 14 4 7 17 10 6 6 2 2 9 16 12 9 13 11 6 13 19 19 21 18 20 23 21 21 16 14 11 9 11 13 15 15 14 15 15 14 12 13 12 14 14 18 15 18 23 21 20
10 9 10 17 13 4 5 3 7 4 7 11 9 5 2 15 14 11 10 12 22 26 22 21 20 18 16 12 9 7 8 11 14 16 17 16 13 13 14 15 15 17 19 21 21 26 21 20 21
15 11 11 5 10 14 13 3 4 1 1 14 10 4 4 17 16 13 7 9 16 18 20 19 16 15 11 7 5 5 8 11 12 14 15 13 15 13 12 15 18 20 22 26 26 22 19 19 22
13 5 8 7 10 2 9 4 4 1 3 12 16 12 6 9 15 12 6 7 12 18 20 22 18 16 11 9 8 4 2 6 10 13 12 15 15 13 14 16 20 22 23 25 21 17 18 20 23
2 5 3 5 9 9 13 7 5 3 4 12 13 9 12 11 9 7 8 8 11 15 16 17 17 15 12 9 8 4 2 1 6 9 12 17 19 18 16 21 27 25 20 17 18 19 22 24 29
4 2 7 10 10 7 5 5 6 4 5 14 16 14 12 11 4 6 11 14 14 12 13 13 12 9 8 5 3 3 3 5 7 11 16 19 24 24 22 28 25 19 21 21 21 23 25 29 32
5 3 2 8 8 4 8 3 7 5 7 11 16 13 11 9 7 6 11 12 9 8 8 7 5 3 1 2 3 3 4 6 8 13 19 22 26 29 30 28 23 24 23 24 25 28 31 31 33
3 4 7 8 8 9 9 9 8 8 6 7 8 11 11 6 5 6 7 11 12 9 8 6 4 3 4 6 5 7 9 8 10 14 18 19 19 20 21 22 22 22 24 25 28 30 32 34 35
4 1 5 9 11 15 15 13 8 12 12 11 10 11 10 10 9 7 6 5 6 9 8 6 6 6 8 9 9 10 10 13 13 17 18 19 20 20 21 23 22 23 26 27 29 33 34 34 36
5 7 13 17 14 15 19 19 15 18 20 17 12 12 10 11 14 13 11 10 10 9 10 10 10 10 13 13 13 13 12 15 17 18 19 19 19 21 23 23 24 26 32 30 34 34 35 36 36
9 12 16 15 11 8 9 23 18 21 21 22 20 16 14 14 14 14 15 14 16 14 12 13 13 15 17 17 18 16 15 16 16 17 17 18 21 24 26 24 26 31 30 32 35 35 37 36 36
15 10 14 9 6 1 3 4 22 23 25 29 27 25 22 19 19 19 19 17 18 16 16 17 16 16 20 23 20 17 16 17 17 17 17 19 21 24 25 28 29 27 31 35 35 38 38 40 37
16 10 12 13 10 8 6 5 15 25 25 29 26 29 29 27 26 25 25 21 19 19 19 19 22 23 26 24 18 17 16 18 18 17 17 19 22 24 24 28 31 35 40 42 35 39 39 41 39
13 11 8 8 6 4 8 4 7 18 19 30 28 29 23 32 30 28 25 24 21 22 20 22 25 27 26 21 18 16 15 16 16 16 17 22 24 27 31 30 35 35 46 35 32 37 41 41 39
10 11 5 3 1 5 3 5 11 16 20 20 34 28 32 25 27 30 27 25 26 28 24 21 25 29 24 19 18 17 16 15 16 19 23 27 30 33 30 37 45 31 46 35 35 39 40 40 42
10 9 5 4 3 4 5 7 6 15 9 13 18 19 24 27 29 25 24 28 29 30 24 25 24 22 19 18 19 21 20 20 23 27 30 32 31 37 42 39 39 43 46 38 39 39 39 40 40
4 5 5 7 2 2 4 6 10 11 10 14 18 18 26 23 22 24 26 32 36 27 25 22 22 21 22 21 20 22 24 27 29 33 35 36 40 43 43 47 55 48 36 39 39 39 38 37 38
14 5 2 5 3 2 4 5 7 7 4 9 13 15 19 18 18 20 25 25 23 21 20 23 23 25 25 23 23 26 29 32 34 35 37 40 45 44 47 50 54 50 42 37 39 37 37 36 36
11 15 12 12 5 4 1 3 5 3 2 5 3 3 5 7 6 7 6 7 10 13 16 19 23 23 23 24 26 29 32 35 35 36 42 40 47 56 48 52 49 50 38 38 39 39 35 35 35
11 19 13 10 6 5 3 7 7 9 11 5 3 6 7 8 10 10 10 12 12 12 16 17 16 17 19 20 22 24 28 34 35 36 38 48 46 45 50 54 57 40 39 40 36 32 32 34 35

GFSSGP_700_spd_039.txt.gz
Wind_Speed
14 14 14 14 9 8 8 8 12 15 17 11 9 7 10 11 11 8 6 11 13 16 19 28 30 30 28 26 20 23 19 17 12 10 11 11 9 7 7 7 6 6 6 5 5 6 7 8 8
13 13 13 12 9 9 8 11 10 11 12 12 12 7 7 12 15 18 14 15 20 21 26 32 32 32 30 27 26 25 21 16 12 12 12 10 9 9 8 6 6 6 4 4 4 7 9 10 10
12 12 13 5 7 11 13 6 4 6 10 12 11 11 9 11 11 10 2 12 22 24 31 33 34 33 31 26 29 23 19 14 13 12 11 10 10 10 8 7 6 4 4 5 6 8 9 9 10
9 11 11 8 9 13 15 13 13 16 16 15 12 6 8 11 11 9 8 12 18 26 32 34 37 35 27 31 27 22 17 12 11 10 8 10 10 9 8 6 4 4 4 7 8 9 10 11 12
9 10 10 11 17 13 12 16 17 16 16 17 13 12 12 9 7 10 5 10 17 27 35 38 36 33 33 31 26 21 18 13 9 10 12 12 12 9 8 6 5 4 6 7 8 8 9 11 11
9 8 6 11 14 9 13 16 14 9 14 15 13 11 12 12 7 8 6 11 20 36 41 42 40 34 34 28 25 22 17 14 13 15 14 13 12 11 9 7 5 4 2 3 4 6 9 9 11
10 9 8 6 8 9 13 9 6 5 9 7 10 13 14 10 6 7 4 9 26 43 42 40 35 39 36 28 28 23 20 16 17 17 15 14 13 12 11 7 5 5 3 3 5 5 11 13 13
7 10 9 10 5 14 10 5 6 7 10 11 21 16 11 3 5 5 4 8 29 27 26 37 44 45 39 32 29 27 31 19 16 17 16 15 15 14 11 8 9 5 5 5 5 8 11 12 14
9 10 7 4 10 13 13 7 7 10 14 17 22 19 8 5 3 2 3 16 5 6 27 30 31 35 37 38 19 22 17 18 19 18 17 16 15 13 13 8 6 6 8 9 9 11 11 13 13
10 11 6 8 15 14 12 10 8 13 15 14 16 11 8 6 3 5 3 11 14 6 31 29 28 21 21 31 22 16 15 17 18 18 17 16 16 14 8 7 7 10 12 15 16 14 13 14 10
8 7 6 15 16 7 7 7 3 7 10 13 9 5 3 5 4 14 15 11 12 4 29 29 37 33 28 23 17 14 15 18 19 19 19 16 14 10 9 9 10 14 16 16 18 20 21 18 13
10 7 12 13 5 3 4 8 3 1 8 7 2 4 4 6 12 14 9 21 29 24 29 30 28 24 21 17 13 10 12 14 16 16 14 13 12 12 11 11 13 14 15 17 19 22 20 17 16
7 16 4 4 4 5 14 10 10 2 5 6 5 7 15 18 22 15 16 19 20 23 24 22 21 20 18 15 10 7 11 12 14 16 15 14 15 14 14 14 13 13 19 21 20 17 17 18 21
10 11 5 1 4 3 6 7 3 2 1 8 8 13 14 10 9 7 15 19 19 20 23 24 22 20 18 15 11 8 6 10 12 15 15 15 15 16 17 13 15 19 25 21 17 18 19 21 24
7 8 10 3 5 11 1 5 5 3 5 11 13 7 7 12 12 7 12 14 18 20 22 20 18 17 17 15 11 9 7 6 10 13 11 12 14 15 17 19 21 25 22 17 16 18 21 24 28
3 4 5 4 7 9 4 5 4 1 4 10 11 11 10 13 12 11 15 16 17 17 18 17 16 16 14 13 9 5 4 3 6 9 11 12 15 19 21 24 27 26 20 18 17 20 24 27 30
1 5 4 6 13 11 6 5 5 4 5 9 10 11 13 11 15 15 15 14 14 13 12 11 10 10 8 8 7 4 2 5 7 8 11 14 19 23 23 21 20 18 18 18 19 23 27 29 32
4 3 4 4 7 11 9 10 6 7 4 5 8 12 12 12 13 13 12 12 11 10 9 7 5 4 3 2 1 2 3 6 8 11 13 16 20 21 19 19 18 18 19 21 24 29 33 34 36
1 3 3 4 2 9 18 17 12 11 13 12 8 8 11 13 11 11 12 11 10 9 8 6 4 2 1 2 4 6 7 9 11 14 17 18 20 20 19 19 20 23 25 27 30 37 42 41 39
3 4 3 8 9 16 19 16 20 15 12 12 8 6 3 6 3 9 10 11 10 9 10 8 6 5 5 6 8 10 11 12 15 17 18 19 20 19 20 22 23 25 28 31 38 42 39 38 43
8 5 5 9 13 9 12 17 20 20 19 18 18 16 12 10 8 4 4 5 5 9 10 10 10 10 9 11 13 13 14 13 15 17 18 19 19 19 21 22 25 28 32 36 34 35 37 42 43
14 4 12 15 12 4 6 4 21 23 22 24 24 22 19 16 16 15 11 9 9 6 8 11 11 12 12 15 16 16 15 14 16 18 19 18 18 20 22 24 28 29 33 34 39 36 37 38 35
11 12 14 12 12 8 5 4 6 18 28 27 29 29 26 21 21 21 17 14 10 11 12 13 12 14 16 18 20 19 14 13 18 19 19 19 20 21 22 24 30 34 39 40 41 40 38 36 38
15 14 13 7 7 3 5 5 9 17 21 28 23 26 29 26 23 22 21 20 18 14 15 14 13 17 19 21 21 18 16 14 18 18 19 20 21 23 27 31 37 38 41 41 45 49 40 36 40
11 9 4 2 2 4 4 5 15 14 17 22 25 23 27 25 30 27 24 23 22 17 15 14 16 19 20 23 23 16 18 19 21 20 23 25 28 31 35 36 43 39 41 45 48 57 47 38 40
7 6 4 3 3 4 5 6 10 11 16 13 12 16 24 24 22 22 24 23 21 16 15 16 20 20 20 24 19 20 21 22 24 25 28 29 29 32 39 44 44 45 47 44 54 48 42 41 36
4 4 7 6 1 0 4 8 10 11 14 10 11 12 14 15 15 17 22 21 19 18 18 20 20 22 22 22 23 23 24 25 27 31 30 33 36 40 41 49 44 46 51 50 53 49 45 39 39
12 7 4 5 3 3 4 6 9 7 3 8 9 13 11 15 18 19 13 12 15 21 20 19 21 22 21 21 23 26 26 27 28 30 31 35 37 46 40 42 41 46 47 51 52 52 40 40 41
20 18 14 10 4 4 1 4 9 4 2 4 2 2 3 8 11 11 6 5 7 9 8 9 13 16 15 15 16 17 20 22 23 28 32 35 38 38 41 42 47 46 50 53 50 43 39 44 45
16 17 14 13 8 7 6 14 12 9 12 7 7 6 2 1 1 1 2 5 7 9 12 13 15 13 14 16 18 21 22 25 26 28 29 27 33 41 38 42 45 49 52 52 44 41 42 45 40

GFSSGP_700_spd_042.txt.gz
Wind_Speed
14 13 12 13 8 6 6 7 10 10 15 12 6 7 9 9 8 5 4 7 14 19 23 30 32 31 29 27 24 21 17 14 11 8 8 8 6 6 5 4 2 2 5 8 10 12 12 10 9
12 11 11 11 7 5 6 7 9 12 10 9 6 5 7 11 9 12 14 14 16 24 27 32 35 33 30 29 26 22 18 15 10 9 9 7 7 8 7 5 3 3 6 8 10 10 10 10 11
10 10 9 5 4 10 10 6 5 5 7 7 7 9 12 9 9 9 10 7 18 27 30 35 34 34 33 31 28 21 18 15 11 10 9 9 10 9 7 5 4 5 6 8 9 11 12 12 14
10 9 7 7 9 11 15 12 14 11 14 13 11 9 11 9 12 11 8 9 22 27 27 33 34 36 33 30 26 19 19 15 13 11 11 11 11 10 8 5 5 6 6 7 10 11 13 14 15
8 8 8 10 14 12 9 11 13 13 13 16 12 11 12 11 10 12 12 12 15 21 30 36 37 35 32 28 20 20 19 15 13 13 13 12 12 11 9 6 5 4 5 8 10 13 13 14 15
8 8 9 11 11 6 9 15 9 6 5 10 10 11 14 12 10 12 8 8 19 20 33 39 39 41 34 23 24 21 20 18 15 12 14 13 12 11 9 7 5 3 6 7 11 11 12 14 13
8 10 7 2 4 8 12 10 4 1 5 7 6 7 14 12 11 9 8 8 21 22 32 43 43 40 35 32 26 24 22 18 17 16 16 15 14 12 11 8 6 3 2 8 8 8 11 11 10
8 8 4 4 5 10 14 10 4 5 7 6 8 12 17 12 7 9 11 12 13 22 32 36 41 38 43 37 28 22 19 20 18 17 17 16 15 13 10 7 3 3 8 8 9 10 9 10 11
9 6 4 0 9 14 8 8 6 7 9 8 10 12 21 12 9 7 6 10 9 20 17 28 41 36 40 36 32 31 29 27 19 19 18 17 15 12 9 4 2 3 5 8 10 14 15 14 15
5 5 3 7 15 11 6 7 6 8 12 13 11 13 13 9 3 4 4 4 10 12 16 19 37 39 39 41 35 25 28 19 19 19 18 16 12 8 5 4 4 5 8 11 14 16 20 19 16
3 8 10 11 11 6 5 4 7 5 5 4 3 5 5 6 2 3 4 12 8 9 14 23 21 27 28 22 27 25 21 20 20 18 16 12 10 9 8 5 6 9 11 12 13 16 15 14 13
7 4 7 11 3 4 2 8 9 8 5 2 4 0 5 6 10 6 9 8 7 21 13 20 25 40 35 31 22 19 18 18 17 15 15 14 12 10 8 9 10 12 13 14 17 15 12 13 14
2 9 3 4 4 2 7 4 5 6 5 4 6 9 9 17 10 14 21 19 23 34 33 36 38 33 29 26 21 17 17 17 16 14 12 11 11 11 10 12 11 13 15 19 17 14 14 14 18
7 8 7 1 2 1 1 2 3 6 4 6 8 13 16 13 10 8 10 14 17 19 18 21 22 22 20 17 16 14 12 12 13 13 13 12 12 12 13 14 14 16 19 20 16 16 18 19 22
7 6 4 1 2 5 7 5 3 5 0 10 13 10 5 9 19 15 13 11 13 17 18 18 18 19 17 16 14 13 11 10 11 11 12 13 13 13 14 15 17 20 20 17 16 18 19 21 25
1 6 4 4 3 7 7 4 4 5 2 11 11 5 6 11 13 14 14 17 20 20 20 20 20 19 17 15 13 11 10 8 9 11 11 13 13 13 14 18 18 17 15 15 15 16 19 23 27
1 5 7 6 7 7 6 0 3 3 4 7 9 8 9 12 15 18 18 16 15 15 15 17 17 15 14 13 12 10 9 7 6 8 11 11 10 12 17 16 15 14 14 14 15 17 21 26 31
2 3 1 4 6 8 11 5 3 1 4 4 7 11 10 11 13 16 17 16 16 15 14 14 13 11 9 8 6 6 6 6 5 7 10 11 12 15 19 18 16 13 14 16 18 21 27 32 35
2 1 0 5 3 6 10 12 11 8 6 5 10 13 15 15 12 12 13 13 14 12 9 8 7 5 4 4 3 1 1 5 6 9 12 13 15 17 20 17 15 15 16 19 22 26 31 34 37
4 1 3 5 6 10 12 13 13 14 10 2 6 9 13 13 12 13 12 10 9 9 8 6 5 4 4 3 3 4 7 8 9 11 12 13 16 19 20 18 18 18 19 23 27 32 36 39 42
6 3 4 9 10 10 9 9 10 14 16 14 11 10 11 10 6 7 8 6 5 4 6 7 7 7 7 7 9 9 10 10 11 9 12 14 17 19 20 19 20 21 24 29 32 36 39 37 37
11 9 6 8 8 4 7 4 6 16 20 21 19 17 14 16 13 10 8 7 2 3 5 8 9 11 11 12 12 12 13 13 13 13 15 17 18 19 19 20 21 24 29 32 34 36 38 45 46
13 6 7 9 7 8 8 4 8 11 23 26 23 22 17 17 17 14 11 7 7 7 6 7 10 13 13 14 16 16 16 15 16 18 18 18 19 20 21 22 25 28 32 36 39 44 38 43 47
13 10 12 9 5 1 8 5 8 12 13 14 21 23 20 19 19 18 15 15 15 13 12 12 13 11 14 18 18 18 17 18 20 22 21 20 22 24 25 27 30 34 38 41 43 41 46 39 47
14 8 2 1 1 5 6 5 14 15 14 13 15 20 22 22 24 22 18 16 14 15 12 13 15 13 14 15 18 18 19 20 19 21 24 25 26 28 30 33 36 39 40 47 42 41 47 45 47
9 6 4 4 3 3 4 6 8 10 13 13 10 11 15 17 17 21 20 19 15 14 13 15 17 16 16 18 19 20 19 18 20 22 25 26 28 31 34 36 37 44 45 44 45 42 45 47 49
7 6 4 3 3 1 5 10 14 10 12 9 10 4 6 9 11 10 13 16 17 16 15 16 16 20 21 20 20 19 17 19 23 24 26 29 32 33 33 42 37 41 33 43 37 39 44 47 51
9 5 3 4 3 3 4 5 9 13 5 6 3 4 4 3 6 6 8 7 10 14 13 18 19 19 20 20 19 19 20 23 23 22 24 26 29 28 31 33 34 36 43 44 46 48 49 45 39
13 13 10 8 3 4 1 5 9 9 1 6 6 5 3 4 8 11 12 9 7 6 6 6 7 8 12 12 14 15 17 19 22 23 21 24 26 28 27 32 35 40 38 43 46 44 50 44 39
18 21 21 18 5 7 5 17 17 16 13 14 8 5 3 1 1 4 5 3 3 3 3 6 9 11 12 15 17 17 18 20 22 22 25 29 29 31 36 30 41 46 45 46 50 46 39 42 43

GFSSGP_700_spd_045.txt.gz
Wind_Speed
10 10 9 11 8 6 6 7 10 9 11 6 6 12 11 9 9 6 4 5 8 13 19 26 27 27 26 23 22 21 18 15 12 9 8 9 7 7 8 10 9 9 8 9 9 10 11 13 15
8 8 9 10 9 7 5 8 7 5 7 7 5 7 7 7 9 11 10 8 10 14 22 29 30 29 27 26 25 22 18 16 13 11 11 10 9 8 8 9 9 9 8 10 10 12 14 14 16
8 6 8 7 10 11 9 8 3 3 4 8 6 10 9 7 6 8 9 10 13 16 25 31 32 31 28 26 25 23 20 16 13 13 11 10 10 10 9 9 9 9 9 11 12 14 14 15 14
6 7 8 9 11 12 12 8 9 8 9 8 10 10 9 6 7 8 9 7 11 19 27 30 31 31 30 28 26 24 20 13 16 14 13 11 11 10 9 9 9 10 11 11 13 12 12 13 12
6 7 8 11 13 11 7 8 11 11 9 11 13 11 9 9 9 8 10 6 11 21 28 31 33 35 33 32 27 25 19 17 18 16 13 12 11 11 10 10 10 10 10 12 10 10 12 12 12
7 5 6 7 9 6 5 8 8 6 4 4 6 8 10 11 12 10 8 7 12 22 28 33 35 37 37 36 33 25 15 21 18 17 14 11 11 11 11 10 9 9 11 9 9 11 11 12 12
5 5 5 6 4 5 11 9 1 1 3 7 9 8 7 10 12 14 8 10 14 23 25 35 43 47 36 31 34 21 24 23 20 16 14 10 12 12 10 9 7 7 7 7 8 9 11 10 10
4 3 4 4 5 11 13 8 1 2 3 5 5 5 10 12 14 12 11 12 17 22 24 29 37 36 33 31 30 31 28 24 20 16 15 18 14 11 9 6 6 5 4 5 8 10 10 11 11
3 4 3 1 8 14 9 6 5 2 3 5 10 8 11 10 11 11 10 13 12 19 25 35 32 41 39 31 33 35 31 25 18 18 19 15 12 10 8 4 2 1 4 8 8 9 11 14 13
2 4 2 6 12 11 7 5 8 6 6 10 13 11 8 5 6 4 8 10 6 7 22 30 34 34 26 36 38 40 37 33 21 18 18 15 12 10 8 6 1 4 6 7 8 10 14 13 11
3 4 6 8 12 3 3 6 10 9 5 5 5 5 3 4 6 13 6 7 11 10 17 18 22 26 39 45 41 34 27 35 23 21 17 13 11 10 7 4 5 6 8 10 11 14 15 11 10
3 3 7 11 8 2 0 5 5 5 5 3 6 6 4 4 7 3 3 5 5 10 14 11 18 24 38 36 23 29 23 18 19 18 16 14 12 9 7 7 7 8 9 10 16 16 12 12 11
3 5 5 6 2 1 3 1 5 3 7 4 1 5 4 6 2 10 12 7 15 16 20 21 33 34 39 35 35 29 21 19 19 19 17 15 11 9 10 10 9 10 10 14 17 13 12 12 13
3 7 8 6 4 4 2 3 2 3 8 8 9 12 15 9 5 9 15 19 25 26 33 38 35 34 35 30 26 22 21 20 20 18 15 12 12 11 11 10 12 13 15 17 15 12 12 13 15
2 4 4 4 5 4 3 5 3 4 7 12 10 11 6 9 11 8 9 13 15 23 20 22 23 22 22 21 19 18 18 18 17 15 14 13 12 12 10 12 13 16 17 13 13 12 12 15 18
4 6 7 4 5 4 3 5 1 5 6 12 10 4 7 11 16 14 12 11 14 14 14 15 17 17 17 16 15 16 16 16 15 15 14 13 12 11 10 11 11 11 12 12 13 13 14 17 22
6 7 9 5 5 2 5 3 2 6 6 9 10 9 12 14 16 17 14 14 14 15 16 15 15 15 14 15 15 15 15 14 14 14 14 13 12 12 11 10 11 12 14 11 12 15 17 21 25
6 6 3 4 4 5 5 8 5 1 5 7 10 12 10 16 16 17 16 14 13 14 16 16 15 14 14 14 13 13 12 12 11 11 10 11 12 11 12 13 14 14 12 13 14 17 20 24 27
7 5 4 7 5 2 5 8 7 4 3 6 12 13 14 17 17 16 17 16 15 16 16 14 13 12 11 10 8 8 8 8 8 8 9 11 11 12 15 16 15 14 14 16 17 21 23 25 28
7 4 4 6 7 6 7 10 11 9 4 4 8 14 17 16 16 17 16 14 13 13 13 12 11 10 10 9 9 8 8 7 8 9 8 9 10 14 15 16 16 16 17 19 22 23 26 28 32
10 5 1 1 5 7 7 9 9 7 8 12 13 13 18 14 14 13 12 12 12 11 10 10 9 10 11 11 10 8 6 8 10 9 9 11 14 16 15 16 17 19 20 22 23 25 29 33 38
12 9 4 4 7 4 3 3 3 6 11 14 14 16 16 17 13 14 13 13 11 10 12 13 13 13 13 14 13 10 9 10 12 15 16 17 18 17 16 18 19 21 23 24 27 31 34 36 41
10 7 6 5 6 6 6 3 3 5 9 11 13 18 19 19 19 17 15 13 12 12 9 11 13 14 13 16 16 13 13 14 14 19 20 22 22 19 19 21 22 24 26 28 32 35 39 43 42
13 10 9 9 6 3 7 6 4 6 8 11 10 13 18 21 18 21 18 16 16 14 15 14 11 13 15 16 17 15 15 16 19 20 23 23 25 23 22 24 26 28 32 34 36 41 42 43 38
10 12 3 2 3 3 6 5 8 8 11 13 13 13 17 19 23 22 22 20 17 17 14 15 15 14 14 14 15 16 18 19 22 24 24 25 25 25 24 29 30 30 34 38 39 47 39 45 41
14 15 7 3 3 2 4 5 2 9 12 10 10 13 14 15 20 22 22 23 22 16 16 18 18 17 17 18 18 19 20 22 24 25 25 24 25 25 27 31 31 30 32 41 35 36 37 39 42
13 11 9 4 1 1 4 6 9 5 7 6 7 9 10 10 11 15 19 21 20 21 18 17 18 18 19 20 22 22 22 24 22 23 25 26 25 25 26 27 30 33 36 38 36 34 33 37 41
9 10 4 5 3 3 3 4 5 7 2 6 4 1 4 6 10 12 14 18 20 20 21 20 18 20 20 21 22 23 23 25 23 23 24 25 26 26 24 27 30 33 32 34 41 41 45 44 45
12 14 8 5 4 2 1 4 4 4 5 4 7 6 5 0 6 7 10 12 12 16 19 21 21 19 14 14 15 18 19 22 23 24 26 29 25 26 27 28 29 34 37 36 39 38 43 42 39
16 14 13 9 6 8 5 11 16 8 9 8 10 5 4 3 1 1 5 10 9 8 10 10 11 11 11 14 16 18 20 21 22 23 25 24 27 28 29 29 34 38 40 35 45 49 43 35 40

GFSSGP_700_spd_048.txt.gz
Wind_Speed
10 8 7 8 7 12 18 13 12 5 5 9 10 9 12 10 13 12 8 7 9 12 17 20 22 22 22 20 18 17 15 13 12 9 7 8 7 10 12 12 11 11 11 11 12 14 15 15 14
8 6 5 6 11 15 17 10 7 4 5 8 8 5 6 19 16 12 11 8 8 9 17 20 25 25 25 23 20 19 18 16 13 10 9 9 9 11 12 12 11 11 12 14 15 14 14 14 14
6 5 3 7 11 15 11 5 5 3 2 6 7 10 11 8 11 16 10 11 11 12 19 24 28 28 26 24 23 21 19 17 15 13 12 13 12 13 13 13 12 13 15 15 13 13 12 12 11
4 5 6 8 11 9 11 8 9 7 6 4 10 9 11 9 9 8 7 8 7 12 17 26 30 29 27 26 23 21 20 19 17 13 14 14 14 14 14 14 14 15 14 12 11 11 10 11 10
5 6 7 8 8 9 8 9 10 8 8 11 10 14 13 10 9 7 6 8 10 13 19 26 33 34 30 27 24 24 22 20 15 16 15 16 16 14 14 14 15 14 11 10 10 10 11 10 11
4 5 7 5 3 5 4 7 10 11 10 11 11 14 12 11 8 8 9 8 11 17 24 33 35 35 36 34 28 22 22 19 17 16 17 18 18 16 14 15 13 10 9 9 9 10 9 10 10
3 5 6 4 2 1 4 2 2 5 8 11 10 10 10 8 6 7 10 10 14 21 29 38 35 36 38 38 33 28 24 20 19 20 21 20 18 14 14 13 11 9 8 9 9 8 8 9 10
2 2 3 2 2 4 6 3 1 4 8 7 9 7 6 11 10 7 7 10 13 17 32 27 26 33 39 39 35 30 27 25 23 23 22 21 18 14 14 12 9 7 7 6 6 7 10 11 11
4 2 2 1 4 7 6 5 4 2 4 8 11 9 9 9 9 8 10 11 15 19 20 30 27 30 49 43 41 27 28 26 28 25 21 17 15 14 13 10 7 5 4 4 6 9 12 12 10
2 2 2 1 6 11 7 2 1 5 6 10 14 13 10 10 7 8 10 11 11 16 25 26 32 34 37 37 34 34 31 32 29 27 18 15 14 14 11 8 4 2 2 5 7 10 12 9 7
2 4 4 5 7 10 0 3 4 5 8 9 10 9 9 9 10 10 11 11 11 14 16 29 43 31 43 31 44 41 36 33 35 20 18 17 15 13 10 6 4 0 3 6 7 11 11 7 7
1 4 8 9 13 4 3 3 4 3 7 4 6 9 8 6 8 12 7 5 12 12 9 25 18 23 20 30 35 45 44 33 32 21 19 16 14 11 8 6 4 4 6 7 9 11 10 7 7
4 4 8 8 4 3 3 3 5 4 1 0 4 7 6 1 5 5 1 5 7 14 14 19 14 18 28 31 40 37 27 27 19 20 20 18 15 11 9 7 6 8 9 9 13 14 11 9 8
7 8 8 6 3 3 6 4 3 3 6 2 6 6 6 8 9 10 11 9 17 11 14 16 11 17 20 20 31 37 29 27 22 22 21 18 16 13 11 9 10 11 11 14 16 15 11 10 10
10 6 1 7 6 5 3 3 3 4 8 7 11 3 4 6 9 8 15 14 25 32 27 30 34 34 25 21 29 27 20 21 21 23 21 18 15 12 12 12 10 12 15 17 15 13 11 11 13
8 7 10 4 3 5 2 4 4 2 10 9 7 3 2 7 13 12 13 14 15 17 24 25 21 23 25 29 23 21 21 22 23 20 19 17 15 13 12 12 12 14 13 13 14 13 12 14 15
11 13 7 5 4 5 4 4 7 0 11 12 7 4 9 8 12 14 15 14 12 11 13 19 20 19 20 20 19 18 19 19 19 19 20 17 15 15 15 15 12 11 13 14 14 13 13 16 18
12 10 9 7 5 6 4 4 9 4 4 12 10 6 9 10 10 13 14 14 13 13 13 14 14 16 17 17 16 16 17 18 19 20 19 18 17 16 16 16 15 14 13 15 14 14 15 18 20
10 9 8 5 5 4 7 6 7 5 3 7 14 12 10 13 12 13 14 14 13 13 13 13 14 14 13 13 14 13 13 13 13 14 15 16 16 16 17 17 17 15 14 15 15 16 18 20 22
9 10 10 6 7 5 6 8 8 9 5 4 9 14 15 18 16 14 14 15 15 14 14 15 15 14 14 13 13 13 12 13 14 15 15 16 17 17 18 17 17 15 16 17 18 19 21 24 25
11 10 6 6 6 12 11 12 10 10 12 10 12 16 20 20 18 17 16 14 15 15 15 15 15 14 15 15 16 16 16 15 15 13 14 15 17 17 18 17 16 16 19 20 21 22 23 27 27
12 11 6 5 8 12 8 8 6 7 11 15 17 17 17 17 17 17 17 17 17 16 16 17 17 17 16 17 16 15 14 12 12 14 16 18 19 20 21 18 18 19 21 23 24 24 26 29 33
10 9 9 8 10 11 10 10 6 4 8 10 15 20 21 19 17 15 18 18 16 16 16 16 17 17 17 17 18 18 17 16 18 18 20 22 24 26 24 21 22 22 24 26 26 27 31 34 35
11 7 7 8 9 12 14 12 8 9 8 9 11 13 21 24 22 23 20 19 20 20 19 17 18 18 20 20 18 19 19 19 19 20 24 25 26 27 28 27 26 26 26 27 26 29 34 39 42
10 11 11 9 8 9 8 9 15 7 10 11 13 16 16 21 29 24 27 25 23 21 20 21 20 17 17 18 19 18 22 23 22 24 25 27 28 29 27 26 27 28 29 29 30 34 31 38 38
15 15 10 6 5 6 6 7 5 6 10 11 11 14 17 18 25 32 26 28 28 24 23 23 22 20 19 17 17 20 21 23 24 26 28 29 29 29 27 27 26 30 31 29 35 34 42 35 31
12 13 14 7 5 3 8 8 11 3 6 8 9 11 14 15 19 26 34 36 32 30 26 21 19 19 21 20 20 27 27 25 27 29 29 29 27 27 28 30 32 29 30 32 35 39 45 43 36
11 13 9 10 5 7 6 8 5 2 1 3 3 4 10 11 15 19 25 29 31 32 31 28 22 20 22 25 26 27 27 27 28 30 29 28 27 29 33 39 35 28 30 32 38 40 39 42 33
15 10 10 5 5 4 4 5 7 4 4 6 6 7 4 3 8 15 19 21 25 28 29 28 29 29 26 25 26 26 25 26 26 26 27 30 32 37 40 30 31 33 30 36 45 45 37 39 35
14 14 16 13 8 9 12 18 13 14 11 5 4 7 4 4 3 5 11 17 21 20 24 26 26 25 25 24 20 19 21 22 24 26 28 31 32 32 27 30 35 33 36 35 42 55 39 40 36

GFSSGP_700_spd_051.txt.gz
Wind_Speed
10 8 5 6 9 13 23 25 19 4 10 18 9 10 11 25 18 10 25 9 16 16 12 17 18 20 20 19 18 16 14 12 9 7 5 8 9 10 12 13 12 13 14 15 16 16 15 15 15
6 5 4 5 13 20 21 17 6 12 7 8 7 8 14 15 13 16 17 18 16 13 14 18 18 21 21 21 19 17 15 13 10 8 7 10 11 13 13 13 13 14 15 17 16 16 15 14 13
5 3 4 15 18 21 15 3 2 7 7 9 10 10 24 7 8 22 23 19 33 20 18 14 22 24 23 22 20 18 16 14 11 9 10 12 13 14 14 15 15 16 17 16 15 15 13 12 11
3 4 6 8 16 13 17 2 10 8 9 8 12 11 17 9 9 11 11 12 12 19 18 21 28 27 25 23 22 20 17 15 13 11 12 13 15 16 15 15 17 17 15 14 13 12 11 10 10
3 3 9 18 12 11 8 11 12 11 11 9 8 12 16 10 9 11 12 11 11 14 19 20 28 29 27 27 24 21 18 16 15 15 15 16 16 16 16 17 17 15 13 12 11 10 10 9 9
4 6 12 14 1 3 7 8 10 10 11 11 10 10 18 14 13 12 12 10 13 18 25 24 32 33 32 30 28 24 20 20 18 17 18 18 18 18 18 17 15 12 11 10 9 8 7 7 7
5 8 14 7 4 6 4 6 5 6 8 9 7 11 14 12 11 9 12 14 17 16 23 29 34 36 32 35 32 29 26 25 22 20 19 20 19 19 19 17 13 11 10 8 7 6 8 9 8
4 6 6 5 5 5 3 4 5 2 7 15 7 7 13 12 14 13 8 12 14 19 22 28 31 32 31 34 37 34 32 26 25 21 22 22 19 19 17 14 11 9 7 5 5 6 9 9 6
6 9 8 2 5 6 6 4 6 3 3 6 11 14 13 11 13 13 14 14 16 20 20 26 26 22 23 30 42 38 37 29 27 28 28 24 23 21 18 12 10 7 5 4 5 6 8 8 6
5 12 4 4 8 8 10 4 4 2 8 9 14 16 15 15 14 12 13 15 14 18 21 24 29 26 32 41 35 34 29 32 33 31 29 25 20 21 16 12 9 6 3 2 3 6 9 7 3
4 8 4 4 8 10 8 6 4 4 6 12 15 17 16 14 13 12 13 13 14 16 19 22 26 31 21 42 46 38 43 38 38 35 32 22 22 18 15 10 6 4 2 1 4 8 10 7 5
6 5 5 8 9 7 6 7 6 7 11 13 11 10 9 7 8 13 16 15 18 18 18 17 26 24 41 36 28 28 44 38 33 35 26 23 18 15 13 9 7 5 5 4 8 9 11 7 6
7 7 9 10 8 4 6 4 6 4 4 5 8 3 2 4 4 4 5 10 11 15 19 11 28 31 35 32 26 37 41 43 42 33 24 21 18 15 12 9 8 7 6 9 10 12 12 8 7
7 11 10 9 5 9 5 7 3 6 8 3 6 7 4 5 4 8 9 4 4 10 17 21 19 36 29 26 35 27 47 49 34 25 26 21 18 17 14 11 10 9 10 12 14 16 13 10 8
11 11 9 13 11 8 8 13 7 7 6 2 2 7 5 5 2 6 12 12 7 10 4 10 19 21 20 26 39 19 38 29 22 26 23 19 18 16 14 13 12 11 12 15 17 14 13 11 11
12 13 15 6 9 8 7 15 7 2 7 8 6 3 3 3 4 6 10 13 17 25 28 26 27 28 34 40 33 28 28 27 21 20 20 20 19 18 17 15 14 13 14 17 15 15 14 13 13
14 20 9 4 10 8 8 12 6 4 8 9 7 6 4 6 9 11 13 13 14 13 12 14 18 19 25 27 25 17 20 20 19 17 19 21 21 19 18 16 15 13 14 16 16 16 15 15 15
12 15 14 12 9 8 8 3 1 6 7 11 10 8 8 8 8 11 12 13 14 13 14 13 15 17 19 18 17 17 18 18 19 20 20 21 21 20 19 18 18 16 19 18 17 16 16 18 18
13 15 13 5 2 6 10 9 3 6 8 12 13 12 12 11 9 11 12 13 14 15 15 16 17 18 17 17 17 16 16 18 19 20 21 20 21 20 20 20 18 20 22 20 17 18 19 20 19
12 14 14 6 7 7 7 13 8 8 8 11 14 15 15 15 14 13 14 14 14 14 14 15 16 15 14 14 15 15 15 16 16 16 16 17 19 19 21 22 20 23 24 21 19 20 21 23 20
13 16 6 11 6 12 13 17 15 11 11 13 15 15 16 18 16 14 15 15 16 16 15 15 14 16 15 15 15 16 16 15 15 16 17 17 19 22 24 24 24 24 24 21 21 20 21 26 26
17 15 8 9 12 11 6 12 9 14 14 16 16 18 19 20 20 16 16 16 16 16 17 17 16 16 16 17 18 16 15 15 14 15 16 17 20 21 22 24 26 25 25 24 22 22 24 25 32
11 9 12 13 16 17 15 19 13 13 15 17 19 20 21 22 22 20 17 16 16 16 15 15 16 17 18 18 19 18 17 15 16 18 20 20 21 23 25 28 28 27 27 27 25 26 26 29 31
12 8 12 14 15 15 18 16 7 18 15 14 16 19 21 24 25 22 20 21 21 18 19 20 20 20 20 20 19 19 17 19 20 21 20 22 25 25 27 29 31 32 31 32 30 31 31 33 33
17 14 15 12 13 12 12 13 13 10 4 7 9 12 18 24 26 26 26 26 23 24 23 21 21 21 22 24 20 19 18 20 23 23 25 25 27 28 29 32 32 32 33 32 34 34 34 31 35
21 20 12 8 8 7 6 8 16 7 4 7 10 12 16 18 24 29 29 30 27 26 26 25 24 23 27 24 21 21 21 20 23 24 28 29 30 31 32 33 33 33 33 38 35 33 42 32 38
17 26 21 19 10 9 12 8 9 10 6 5 7 9 10 14 20 24 30 31 30 33 33 28 27 25 26 30 27 12 25 18 25 28 31 32 32 33 33 32 33 34 39 38 40 37 38 39 33
19 17 19 17 6 10 15 14 6 9 6 4 2 3 6 11 14 17 23 29 30 30 32 32 30 26 23 25 19 21 22 25 29 30 30 31 31 33 32 32 33 34 37 43 34 34 36 36 41
21 16 19 15 19 5 8 12 5 7 6 6 7 6 4 3 6 10 16 24 30 28 31 35 34 32 29 26 26 26 28 28 28 28 29 27 28 29 31 32 35 39 33 34 35 35 29 35 41
22 23 23 21 16 14 12 19 5 10 11 14 12 9 8 5 8 7 13 16 20 22 28 29 30 32 32 31 31 32 28 25 23 24 25 27 30 30 32 34 35 32 37 35 37 37 43 38 46

GFSSGP_700_spd_054.txt.gz
Wind_Speed
10 7 4 4 9 13 22 23 23 23 17 13 14 12 2 5 11 14 16 25 47 23 10 10 15 19 21 21 20 18 16 14 11 9 8 11 12 13 14 15 15 15 16 18 18 17 16 16 15
8 5 6 4 15 21 24 14 20 8 9 10 24 17 20 27 30 24 20 18 20 19 15 11 15 18 20 21 20 19 16 14 12 9 10 12 13 15 15 15 16 17 18 18 18 17 16 15 13
5 5 5 13 18 24 26 11 14 15 8 9 9 6 23 15 5 27 20 20 12 12 14 10 22 23 20 20 20 19 17 15 13 10 11 12 15 15 15 16 18 19 18 18 16 15 13 13 11
5 6 8 9 14 15 16 8 8 10 14 12 9 21 31 14 6 10 9 15 13 16 17 29 15 15 19 20 20 19 18 16 14 13 14 15 16 17 17 17 19 19 17 16 14 12 12 12 12
8 4 13 17 18 23 11 11 12 14 15 15 14 12 17 1 5 9 9 11 11 10 12 18 23 22 22 22 21 21 20 17 16 16 16 18 19 17 17 19 20 18 16 14 12 12 11 9 8
5 11 16 17 13 8 8 13 12 14 17 16 13 14 19 16 9 12 11 10 11 11 9 17 21 28 27 24 25 23 20 18 17 17 18 20 20 19 19 20 19 16 15 12 11 9 8 6 5
8 12 19 17 11 7 8 13 10 15 16 12 4 20 16 2 10 11 12 12 14 15 15 19 21 31 31 31 29 26 24 22 21 18 20 21 21 20 21 20 17 15 12 10 8 8 8 7 6
11 12 18 16 10 3 9 9 11 11 20 16 10 14 16 6 11 11 11 13 14 14 15 16 21 18 25 30 32 31 29 27 24 22 23 23 23 22 21 19 16 13 11 8 7 6 7 7 6
9 14 16 15 9 11 11 9 23 9 10 4 12 10 14 9 12 12 12 13 11 14 15 14 16 19 25 21 25 30 27 25 25 28 28 26 25 25 20 17 15 11 8 6 4 5 7 7 4
10 14 16 9 12 13 12 11 8 6 10 13 19 9 11 16 18 14 11 11 11 15 15 14 15 20 26 20 18 24 36 31 33 33 28 28 29 23 19 17 14 11 6 3 2 5 7 5 3
11 17 13 11 10 10 13 15 16 5 12 14 16 11 15 14 15 13 16 13 9 10 14 10 17 17 26 25 29 33 42 45 36 34 34 31 26 23 19 16 11 8 5 2 1 4 7 7 4
12 13 13 13 14 13 11 15 13 3 17 13 11 11 9 10 10 12 18 19 16 16 10 16 18 23 32 31 31 35 42 42 46 36 36 29 25 24 18 12 10 6 4 3 4 6 9 9 5
13 12 14 15 14 12 10 12 4 6 7 6 9 5 4 5 5 8 8 12 12 13 15 20 18 19 30 30 34 40 37 39 37 40 37 34 19 18 15 13 8 7 6 5 8 10 10 9 6
14 16 16 15 16 11 9 14 14 11 8 3 6 8 4 5 5 7 12 14 4 9 8 21 20 25 34 27 35 31 27 39 40 42 33 26 21 18 14 11 9 9 6 7 10 11 13 9 7
16 18 17 18 12 14 13 15 25 17 1 5 3 5 5 4 3 6 10 13 12 6 8 17 19 14 21 27 15 22 34 43 46 32 26 25 26 19 14 12 11 9 9 11 13 12 12 11 11
17 16 20 17 18 19 12 25 12 4 8 2 3 3 5 0 6 4 9 17 23 20 18 9 12 19 23 12 15 29 23 38 30 25 25 26 21 17 16 14 12 11 11 13 13 13 14 15 14
17 20 18 9 16 10 14 10 1 8 9 11 3 5 3 2 8 7 8 12 13 15 19 19 17 17 17 21 18 30 31 33 26 26 26 24 22 20 16 15 14 14 14 13 13 15 16 16 16
19 15 19 18 11 9 11 8 5 6 12 13 9 9 3 3 5 5 8 9 10 13 14 15 21 28 31 30 30 30 24 22 23 25 24 22 20 17 17 17 17 17 17 17 16 17 18 19 18
19 16 16 3 5 4 6 6 5 6 16 18 15 12 11 6 4 6 9 10 10 12 15 16 16 17 18 19 19 21 22 21 20 20 19 19 18 18 19 20 20 18 21 21 19 19 21 19 20
14 16 16 10 2 6 9 10 10 14 20 18 15 14 12 14 9 8 11 12 13 13 13 15 16 14 15 15 15 15 16 16 17 17 21 19 19 19 20 21 21 18 24 22 22 22 22 22 22
15 17 15 12 11 12 13 16 13 14 11 13 9 15 15 15 14 11 11 11 11 12 14 13 14 14 14 14 16 16 18 18 18 17 17 18 17 17 18 20 23 21 23 25 25 24 25 24 26
16 16 14 8 11 12 9 12 11 11 16 12 13 19 17 20 20 12 13 12 12 10 11 14 14 14 14 15 15 17 16 15 14 16 15 16 15 17 19 20 23 24 23 27 27 28 28 26 28
16 7 14 15 14 16 12 9 19 13 18 20 20 19 21 22 23 15 14 14 14 14 13 13 14 14 14 16 15 15 14 15 15 15 16 16 14 17 19 20 23 24 27 29 30 30 30 29 28
16 10 11 11 15 15 19 11 15 11 16 14 21 20 20 24 26 24 16 17 17 17 17 17 17 16 17 16 17 17 17 17 18 18 18 19 17 18 21 23 26 26 27 30 32 34 35 34 35
16 15 13 9 12 10 14 14 22 12 8 11 18 21 23 24 27 27 27 22 23 23 21 19 19 18 19 19 19 19 21 21 21 22 24 23 21 21 22 25 26 27 29 31 32 36 36 39 38
21 23 16 6 4 8 7 9 11 13 11 5 10 12 9 29 23 27 30 31 27 24 25 23 21 21 22 22 23 16 14 25 30 27 23 26 25 24 27 27 28 28 30 29 35 38 37 33 33
17 27 25 21 8 6 9 12 13 11 10 10 9 10 12 19 21 27 21 30 34 31 27 26 25 24 26 28 28 24 26 16 8 19 22 25 27 29 31 28 28 30 32 34 33 37 36 39 34
25 20 21 22 6 5 12 19 17 16 14 10 8 8 8 14 17 21 25 28 33 35 33 30 29 30 32 32 27 24 25 19 19 16 19 25 29 29 29 30 30 30 33 34 34 35 42 35 40
23 24 20 19 21 7 4 7 10 4 11 10 8 6 6 8 11 16 19 25 31 34 33 32 32 31 36 36 29 28 24 20 18 21 23 26 26 25 28 28 29 31 32 35 33 32 44 35 35
26 25 24 21 14 13 9 5 8 8 5 7 10 10 10 8 12 7 10 19 29 29 31 32 34 32 31 32 29 30 24 21 20 20 22 23 23 25 28 30 31 32 33 31 34 33 37 36 35

GFSSGP_700_spd_057.txt.gz
Wind_Speed
10 7 1 1 5 9 20 22 22 20 3 7 15 23 16 6 6 9 4 10 17 27 31 9 25 26 27 26 25 23 20 17 14 11 13 14 16 17 17 16 16 17 17 19 18 18 16 15 13
8 5 1 2 9 15 21 16 16 16 12 15 15 16 11 15 9 13 13 14 23 18 8 26 14 21 24 25 25 24 21 18 15 12 13 14 16 17 17 17 17 18 19 19 18 17 15 13 12
4 6 3 4 11 22 22 19 17 16 12 14 12 12 9 15 18 24 24 24 16 14 12 8 22 27 27 29 27 25 23 19 17 14 14 15 16 18 18 18 19 20 19 18 17 15 14 12 10
2 1 5 9 13 18 25 21 6 9 9 12 8 12 13 11 17 28 35 28 27 14 9 12 16 28 31 29 29 25 23 20 18 16 16 16 18 18 18 19 21 20 19 18 16 14 13 12 10
4 3 12 20 27 28 20 13 11 11 8 15 7 9 10 17 12 14 19 21 19 12 10 15 20 26 35 22 29 26 22 20 18 17 17 17 18 18 19 20 21 19 17 16 15 14 11 9 5
3 8 18 29 31 15 7 12 16 19 13 20 8 8 9 5 8 10 11 15 16 11 10 9 18 21 19 13 30 26 23 24 20 19 18 20 20 20 21 22 20 18 16 15 13 10 8 6 5
5 13 24 27 25 19 17 16 19 27 16 18 10 13 16 14 9 7 10 4 9 11 13 14 20 24 23 25 28 27 25 22 22 21 21 22 22 22 24 23 20 18 15 13 11 10 9 7 6
9 17 22 19 28 14 13 16 17 14 18 10 12 15 13 13 10 7 7 9 12 10 16 16 19 25 28 31 29 27 24 21 23 24 24 24 23 24 25 22 20 17 14 12 10 9 7 7 6
0 11 18 18 24 12 14 14 13 17 11 9 12 15 12 7 7 9 9 7 12 14 15 13 14 19 22 19 16 18 28 26 26 23 25 27 27 27 25 23 20 16 13 11 9 8 8 6 7
8 17 21 16 14 16 19 17 15 16 21 13 11 14 10 7 8 9 10 10 10 13 16 19 22 20 26 20 14 14 36 34 27 30 31 32 31 28 24 21 17 15 11 9 8 7 7 6 4
9 21 19 16 16 17 20 15 12 22 11 14 15 13 9 10 6 7 7 7 10 15 19 20 20 17 19 29 19 15 32 33 37 36 35 32 33 28 21 18 16 12 9 7 5 4 5 3 3
17 17 19 16 15 21 23 15 21 12 12 8 13 13 11 3 3 3 9 9 12 20 23 19 17 18 28 21 28 26 26 34 39 39 36 34 30 27 23 17 15 10 7 4 1 2 4 3 1
19 15 13 20 17 16 13 18 22 26 21 15 4 8 6 4 2 0 2 5 8 18 22 25 20 21 29 25 36 31 28 39 42 44 46 40 35 25 22 17 13 9 5 3 1 4 5 5 2
13 19 17 17 15 14 12 17 17 22 16 8 1 4 4 1 4 3 6 9 8 15 15 16 27 17 21 23 27 27 37 43 49 48 42 35 34 29 20 19 13 9 6 6 4 6 7 5 5
16 17 20 19 20 18 17 13 13 27 7 4 5 1 2 3 1 5 14 18 5 8 11 11 19 28 18 27 30 29 31 32 41 44 41 33 27 23 23 16 11 9 10 8 6 9 8 6 6
18 16 21 11 18 22 20 22 16 20 5 9 7 7 1 2 2 9 11 15 13 11 14 16 19 19 13 19 16 27 30 30 30 37 34 34 28 28 19 16 14 11 8 9 8 10 10 10 8
13 23 22 24 25 20 17 17 12 9 8 10 7 12 7 5 8 9 8 7 9 16 16 12 13 15 16 9 16 18 17 29 32 31 35 32 30 23 20 17 14 13 10 12 11 12 13 13 12
17 19 23 20 12 15 12 17 7 7 14 9 9 13 8 6 6 5 3 3 7 11 14 16 18 15 8 10 14 17 20 20 31 34 34 30 24 23 20 19 16 15 14 14 15 15 15 16 16
19 24 16 13 1 8 13 12 5 7 12 14 15 16 10 5 6 6 6 6 7 12 13 10 15 23 23 29 30 30 33 34 37 33 31 29 26 24 22 20 17 16 16 17 18 18 17 18 19
24 16 15 16 6 8 9 10 9 9 4 13 19 19 12 7 7 8 8 8 8 9 10 11 11 16 16 19 20 19 22 24 26 26 26 27 27 25 22 20 18 15 18 20 19 19 20 21 21
18 18 17 19 13 12 13 18 16 17 12 6 22 21 17 5 8 9 10 8 9 7 8 10 11 14 15 16 17 19 21 21 22 23 24 25 22 21 20 18 18 16 19 21 22 22 23 25 25
17 16 17 18 9 12 7 7 13 21 22 11 23 25 21 10 8 12 12 12 10 10 10 10 11 11 13 14 15 13 14 15 14 14 14 17 17 17 17 19 20 17 18 23 22 23 25 27 28
20 17 16 13 16 15 21 7 20 14 28 15 22 26 21 14 5 10 12 11 12 13 11 10 12 11 11 12 12 14 14 14 14 14 15 16 17 16 17 17 20 20 18 19 23 25 25 28 34
18 18 17 15 13 11 21 18 21 16 19 25 25 21 19 20 15 8 10 16 15 15 16 16 15 14 14 13 13 12 13 14 15 16 17 17 16 15 16 18 17 19 21 22 24 25 29 31 31
16 21 3 4 7 7 13 13 22 18 21 19 19 25 21 27 24 19 20 18 20 20 18 19 19 18 18 16 17 15 12 9 14 15 19 22 20 18 16 18 21 21 21 22 24 26 26 38 27
23 26 11 6 4 8 18 6 7 10 14 13 20 23 22 32 26 21 19 15 17 21 23 21 21 20 20 19 20 19 17 15 10 22 25 26 25 22 20 22 22 24 22 25 27 28 28 31 32
17 25 27 26 12 4 5 14 15 10 17 14 15 12 22 32 30 26 22 19 14 16 18 23 25 25 24 23 21 19 19 23 15 9 13 26 24 26 21 23 24 25 24 26 27 28 30 30 36
30 17 19 26 5 5 11 19 16 21 17 15 13 12 15 13 20 29 30 28 25 23 22 21 24 26 26 26 27 25 23 29 25 18 21 17 23 25 22 25 25 24 25 26 27 30 29 29 33
29 28 24 20 12 6 3 6 5 12 25 14 13 16 16 18 20 17 21 35 33 30 30 26 26 28 25 27 30 31 26 29 28 24 25 19 17 20 23 24 23 25 26 28 27 27 27 28 34
35 32 30 22 13 20 18 12 5 11 11 18 13 12 13 16 16 12 22 27 28 30 33 31 33 32 29 29 30 31 30 34 37 32 22 13 17 19 20 22 24 26 28 29 30 29 31 32 29

GFSSGP_700_spd_060.txt.gz
Wind_Speed
10 8 5 5 2 4 9 8 15 22 16 7 13 16 12 13 18 3 11 7 7 8 14 23 27 17 35 31 29 26 23 20 17 15 15 17 18 18 18 17 15 14 15 15 15 14 14 13 14
6 4 2 6 2 6 9 18 25 26 5 10 15 14 12 8 12 5 5 6 7 9 14 14 18 29 25 28 28 27 25 22 20 19 18 18 18 18 17 17 17 17 16 16 15 14 13 14 14
2 2 2 3 6 8 12 25 23 10 6 8 10 10 11 10 12 14 11 10 14 11 18 17 11 20 28 29 31 30 27 22 21 20 19 18 18 18 18 17 18 18 17 16 15 13 12 13 12
3 5 4 7 13 19 27 29 10 5 7 10 11 11 17 16 14 19 21 17 14 17 16 14 10 13 27 33 34 32 27 24 22 22 21 19 19 18 18 18 19 19 18 16 13 11 10 11 10
4 5 4 11 20 22 18 1 10 14 15 12 14 12 11 16 17 17 17 15 15 12 10 13 14 26 38 39 37 33 28 23 22 22 21 20 20 20 20 21 21 19 17 15 13 10 9 10 9
6 5 9 17 22 21 11 12 15 18 22 22 16 16 14 11 10 13 17 15 18 18 12 15 16 31 30 26 23 26 29 27 24 22 22 22 22 22 22 23 22 19 17 15 13 9 6 5 6
4 7 11 16 17 25 5 10 20 20 20 13 16 16 18 21 17 18 13 10 8 19 14 16 23 26 25 21 31 19 25 26 25 22 22 24 24 25 26 25 23 20 18 15 11 7 3 3 8
2 10 10 15 18 16 3 9 13 13 13 13 18 14 12 15 18 15 8 7 8 10 13 14 16 21 24 17 18 34 26 26 24 22 24 26 27 27 27 26 23 20 18 14 11 8 5 1 5
8 11 13 14 17 4 8 9 16 11 11 10 12 16 18 16 10 12 9 5 11 10 15 18 16 16 18 20 26 24 26 26 29 28 28 28 28 30 28 25 23 21 17 13 10 7 6 4 3
12 14 10 15 21 10 11 16 16 14 16 12 12 16 16 10 7 10 9 9 12 17 15 18 21 19 15 22 13 10 16 31 29 28 28 30 31 30 29 27 24 19 15 12 10 8 6 3 1
10 16 14 16 18 15 14 17 20 19 17 20 21 14 14 9 10 10 10 11 14 18 18 18 24 21 18 22 20 15 20 31 35 34 33 33 32 32 29 26 19 17 15 12 9 6 5 2 2
15 16 20 15 18 14 17 20 19 17 20 23 12 9 8 2 4 8 9 11 16 19 18 18 20 22 20 17 24 22 18 33 39 35 36 35 35 33 29 25 23 18 15 11 8 5 2 2 5
17 18 19 15 11 16 19 16 16 19 20 20 6 6 7 5 2 6 10 13 18 24 22 25 26 20 21 23 32 24 25 29 34 38 37 36 39 42 40 29 22 16 12 9 5 3 1 3 5
19 24 19 16 15 17 19 22 18 21 23 17 5 4 3 1 2 5 3 6 17 24 20 19 23 18 20 19 23 21 27 38 36 41 39 42 41 38 32 26 18 18 12 7 4 2 3 4 3
21 21 20 23 23 20 22 23 19 17 17 10 6 6 5 5 3 2 2 8 6 14 18 24 23 16 19 20 32 28 31 34 45 45 46 43 38 29 31 22 22 15 12 9 6 4 4 4 5
17 18 23 1 12 18 19 25 21 15 13 7 4 6 5 9 3 3 4 5 7 1 16 18 17 16 24 15 16 29 32 39 42 45 45 41 36 33 29 27 24 17 12 10 10 5 4 4 6
19 22 16 20 15 24 27 28 23 13 17 11 7 2 1 8 5 3 4 4 2 7 2 20 16 18 17 19 20 25 30 35 39 44 41 41 35 34 33 24 21 16 15 13 9 7 7 6 7
17 12 14 21 22 11 19 22 18 11 12 8 7 3 1 4 8 6 5 1 2 3 7 6 21 18 17 21 20 25 31 42 36 29 37 36 39 32 37 25 22 19 16 13 11 10 11 10 12
18 19 22 21 5 4 13 12 19 13 10 11 10 8 3 5 10 8 6 3 4 6 9 12 14 22 19 18 22 29 23 33 33 32 33 39 37 37 30 24 20 18 16 15 14 13 13 14 17
19 20 24 21 18 12 11 12 9 19 11 8 11 9 8 10 12 10 8 5 4 6 8 13 16 17 20 19 21 25 25 30 26 31 40 39 32 35 29 24 24 21 19 19 16 16 15 17 20
18 22 23 21 15 14 16 17 15 19 19 16 18 12 12 11 12 12 11 8 6 4 6 9 12 13 14 21 24 26 27 31 34 38 36 33 37 33 28 25 25 22 20 18 18 18 17 19 22
23 12 19 22 20 15 13 7 14 17 24 21 17 19 16 10 12 16 14 12 10 8 6 6 8 9 12 13 17 19 22 23 24 26 27 30 30 28 27 26 25 22 19 17 18 19 19 20 23
25 22 18 16 12 11 17 13 13 12 21 25 27 14 14 9 12 17 15 14 12 13 10 9 10 10 10 10 12 14 15 15 17 20 22 26 27 25 27 26 24 20 19 17 20 20 20 23 25
18 18 19 18 19 11 20 16 22 18 21 22 27 23 17 11 11 12 12 16 18 18 18 16 14 13 13 13 13 13 13 15 17 18 20 21 21 22 24 23 22 21 19 18 19 20 22 25 28
24 22 6 5 4 8 17 13 21 21 21 22 22 29 25 18 12 13 18 19 21 23 21 19 17 16 15 16 16 15 14 17 16 17 19 21 20 19 17 18 20 21 21 22 21 19 24 27 27
23 26 15 6 4 6 13 9 12 11 15 22 21 20 24 22 18 16 17 17 18 20 23 23 21 19 18 18 17 17 18 19 14 16 23 21 21 18 19 22 24 25 28 25 21 18 23 24 28
28 29 27 26 10 3 6 13 19 21 18 15 19 15 21 24 22 23 23 15 13 19 20 23 23 23 23 19 19 20 21 21 20 17 15 22 21 23 23 24 27 23 24 28 18 23 25 27 29
33 26 17 17 5 8 6 14 20 24 20 18 18 18 18 23 28 25 28 27 23 19 19 22 19 19 20 22 24 23 22 25 26 27 21 21 19 19 23 28 29 27 26 21 23 25 28 28 28
30 34 19 20 21 6 1 11 18 17 17 22 19 17 17 19 19 20 26 26 29 26 26 27 27 25 23 23 23 25 26 28 32 32 35 33 35 26 25 26 22 26 23 22 26 28 29 29 30
36 36 37 24 10 15 13 19 13 17 16 23 22 21 21 20 20 17 17 21 27 30 31 34 35 34 32 35 33 23 24 26 18 32 31 37 30 22 27 25 24 22 22 25 28 30 30 32 32

GFSSGP_700_spd_063.txt.gz
Wind_Speed
13 8 6 5 2 1 5 7 28 23 12 5 9 12 13 10 12 2 9 13 6 7 4 15 14 26 24 29 29 28 27 25 18 16 16 16 16 15 15 14 13 13 12 12 13 15 14 12 11
8 4 2 1 2 4 10 16 24 11 7 6 9 9 12 14 11 5 7 10 10 7 6 9 17 25 29 21 31 32 26 22 18 17 19 18 16 16 15 13 13 13 13 14 15 15 14 12 11
4 3 1 2 3 8 16 23 8 5 4 5 8 10 11 10 13 15 10 13 17 12 10 9 18 25 23 14 30 28 23 22 19 20 20 19 18 16 16 17 16 15 15 15 16 16 15 11 10
3 2 3 3 8 10 19 13 6 11 14 13 15 14 13 14 13 12 16 15 14 16 19 17 15 21 20 21 31 36 33 24 18 21 22 20 19 18 18 18 17 17 16 16 16 15 13 11 9
1 3 4 7 11 15 15 10 11 12 14 18 18 16 15 16 16 16 18 15 15 17 16 17 17 14 16 34 40 41 34 34 21 24 24 24 22 21 20 20 19 18 17 16 15 14 13 12 12
8 6 6 7 13 16 5 3 8 13 17 20 14 16 18 15 13 16 18 17 12 14 14 17 14 16 28 40 40 36 27 35 27 26 26 25 23 23 22 21 20 19 17 15 14 13 11 8 6
6 6 7 8 14 14 1 5 12 16 23 20 14 14 11 11 12 13 16 12 14 16 20 22 16 22 30 39 39 35 29 37 29 27 27 25 25 24 24 24 22 19 17 15 14 10 8 9 9
9 7 8 6 9 14 9 8 13 18 18 20 16 14 10 14 14 15 11 10 5 5 23 21 28 18 19 24 22 20 26 42 29 28 28 29 27 28 28 26 23 19 16 13 12 11 9 9 12
8 10 8 7 12 15 13 11 17 21 22 23 24 18 16 15 12 12 8 10 8 8 4 10 20 17 18 15 25 19 31 34 33 29 30 30 30 30 29 26 24 21 16 11 10 9 9 9 11
13 11 6 12 17 25 18 15 20 22 24 21 25 23 15 18 13 10 9 11 11 8 13 16 19 19 18 9 7 19 23 32 37 36 37 32 31 31 30 27 24 21 17 12 9 8 7 8 8
15 14 11 8 22 19 13 17 20 23 23 23 28 12 13 19 14 13 13 14 16 16 18 17 19 21 18 13 8 9 12 18 25 27 28 31 32 33 31 29 26 21 17 11 9 8 6 5 5
17 15 14 12 17 13 14 18 20 24 22 24 22 6 11 11 6 9 12 14 17 13 11 16 19 20 18 15 19 12 18 16 24 30 36 33 33 32 30 28 26 22 18 15 10 6 4 3 3
15 18 19 14 14 15 15 18 21 26 25 27 15 4 5 4 1 4 7 12 15 20 19 19 23 18 19 14 15 22 20 19 30 35 35 37 37 35 33 30 23 20 17 15 9 5 3 2 5
20 20 21 18 15 16 20 22 26 27 25 24 9 5 5 4 1 4 5 7 12 24 20 20 22 19 14 16 15 22 21 27 37 39 35 37 36 37 33 29 28 22 17 12 9 6 5 4 6
21 23 20 21 20 22 23 29 29 28 25 19 13 9 7 7 5 2 4 8 10 9 21 16 24 18 18 18 20 19 23 21 39 39 36 39 37 37 39 33 27 21 18 17 11 7 5 4 4
19 19 18 5 3 10 21 32 25 25 27 24 12 8 8 8 8 4 5 8 11 12 13 20 24 29 22 21 22 17 18 34 46 46 41 40 39 39 38 34 27 23 24 16 11 9 5 4 5
22 22 16 11 10 21 16 25 20 22 19 20 7 8 9 12 12 8 6 8 9 12 6 17 18 24 17 18 17 18 24 41 41 37 42 42 41 40 39 29 28 29 21 16 12 10 7 5 4
19 22 15 11 9 14 13 9 12 19 18 15 9 7 9 9 8 8 8 6 7 9 11 11 16 16 17 19 18 21 20 38 41 41 49 43 41 34 29 31 30 27 21 16 12 12 11 8 8
21 19 23 10 4 10 16 11 16 17 18 17 6 7 8 8 8 7 7 5 3 5 6 8 11 22 19 20 22 25 29 35 32 44 44 43 37 34 35 34 33 27 21 15 16 16 14 11 13
21 23 23 16 9 15 15 17 14 17 16 17 14 8 9 10 8 6 9 6 1 3 4 7 10 8 10 16 19 24 32 33 34 44 33 35 42 34 36 38 30 25 20 18 20 19 14 14 16
25 23 17 19 16 17 18 23 19 21 20 20 22 15 14 12 10 9 9 8 3 2 3 6 8 9 9 10 17 23 26 27 32 34 34 32 37 41 42 40 31 25 22 22 23 21 17 17 19
26 20 19 20 22 22 18 10 18 15 16 23 24 19 13 14 14 13 12 10 5 5 3 4 7 8 9 11 13 17 20 23 29 30 32 36 37 42 41 40 29 27 26 25 24 22 20 22 23
28 16 17 21 30 18 13 9 16 17 16 18 20 18 15 11 15 13 11 11 10 10 7 5 5 5 8 10 11 12 14 17 21 25 28 32 36 39 40 33 28 28 28 27 24 23 23 23 25
18 18 21 25 22 13 19 17 17 22 24 26 24 23 21 15 17 16 14 16 15 15 13 11 8 7 6 6 8 9 12 15 17 20 24 28 30 33 32 26 30 31 28 27 24 25 27 26 25
19 16 4 6 5 9 16 16 25 16 13 17 25 22 20 19 17 19 19 18 19 20 18 15 13 11 10 10 11 10 10 11 13 17 19 23 26 25 23 26 29 28 27 27 28 28 28 30 24
24 25 13 6 4 7 19 8 5 2 7 10 18 29 24 22 22 19 20 17 16 17 19 19 19 16 14 14 13 14 15 15 15 14 18 20 21 20 22 25 26 26 28 30 32 34 40 21 19
31 31 24 32 17 4 12 17 21 14 13 12 17 15 21 21 23 20 18 19 19 20 18 17 17 21 22 17 17 17 18 20 19 19 16 21 23 23 26 28 30 30 31 34 32 33 20 16 22
31 16 14 16 5 7 6 10 18 13 13 12 16 18 18 14 18 20 20 20 18 16 15 19 21 19 19 23 25 22 22 24 24 27 26 21 21 29 31 30 31 32 34 33 30 24 25 26 26
24 29 30 23 25 8 9 10 21 27 19 13 14 19 19 17 16 17 20 19 21 24 28 25 25 27 26 21 24 32 32 32 32 32 32 31 29 26 29 33 31 26 30 31 28 27 28 29 30
19 32 29 27 7 17 21 28 24 10 11 17 12 20 18 18 15 16 15 13 16 22 27 32 33 33 34 32 31 31 38 40 34 39 32 36 36 34 42 41 29 32 29 27 25 28 31 33 33

GFSSGP_700_spd_066.txt.gz
Wind_Speed
12 10 4 1 1 6 9 7 16 14 6 4 7 10 10 9 8 10 10 12 13 13 16 20 18 18 21 22 20 27 35 21 21 21 24 20 16 15 14 12 11 10 11 12 13 13 13 13 11
11 6 1 4 3 6 9 14 10 7 8 9 10 12 13 11 11 10 6 10 13 11 16 17 18 22 20 19 14 24 29 26 25 24 23 19 18 17 16 14 13 12 13 15 16 16 14 13 12
9 2 3 1 3 7 11 12 6 9 13 15 17 17 14 13 10 10 10 9 12 13 15 20 22 24 27 36 27 25 32 33 28 25 20 21 20 18 17 16 15 14 15 18 16 14 14 13 12
6 3 2 2 3 8 11 6 7 9 11 14 16 19 18 16 14 12 11 12 14 16 17 21 20 24 36 36 33 20 33 32 26 30 23 23 22 21 20 17 16 17 18 17 15 14 13 12 11
3 5 6 5 8 10 4 4 8 10 15 21 22 18 17 17 15 14 14 14 13 14 20 22 21 26 33 32 33 28 27 40 33 27 25 26 25 23 20 19 19 20 19 18 16 14 13 11 10
5 8 7 6 7 3 3 5 9 12 19 25 22 20 22 16 11 15 15 16 15 13 17 21 24 28 27 26 25 32 36 38 32 33 28 27 26 24 22 22 21 20 19 18 16 14 13 13 11
6 8 10 5 7 7 4 8 12 14 20 20 20 21 22 17 13 13 15 15 14 17 20 24 26 26 29 32 29 35 39 39 34 31 27 27 26 25 24 24 22 21 20 17 16 14 12 10 9
10 10 12 9 4 8 11 12 16 19 20 21 20 18 22 20 19 15 15 15 13 13 11 18 26 32 29 27 37 34 26 24 33 36 29 28 28 28 27 24 23 22 20 19 16 12 10 9 9
12 13 12 10 6 16 12 15 18 22 21 21 23 25 23 22 23 16 11 12 12 11 10 13 21 35 31 31 32 24 17 29 38 39 33 31 31 30 27 25 23 21 20 16 14 13 12 10 9
15 14 13 8 12 16 16 14 18 23 22 22 24 25 17 18 22 18 11 12 13 14 13 11 5 11 11 18 8 12 29 28 36 39 32 33 32 31 28 25 22 20 19 16 14 13 12 12 11
18 16 11 14 15 15 11 14 19 22 21 22 24 24 14 19 17 13 14 13 12 13 11 14 13 15 15 14 12 8 7 25 39 34 34 34 33 32 29 25 23 21 19 17 12 10 11 11 10
21 18 17 19 17 15 11 16 21 21 22 26 25 22 13 16 11 8 11 15 13 13 13 14 10 10 12 14 12 6 11 19 30 40 39 37 35 33 28 25 23 20 20 16 13 9 8 8 9
20 22 24 24 20 18 16 17 23 25 24 25 24 18 13 12 10 7 8 13 12 14 15 14 13 12 13 12 13 12 15 19 19 23 38 40 34 32 29 27 23 19 17 17 12 8 6 6 6
19 24 26 27 23 22 21 21 29 20 27 28 21 16 14 10 10 10 10 10 12 11 16 21 21 15 14 11 14 15 23 25 25 28 34 37 34 32 30 27 24 20 16 14 13 9 4 6 6
21 25 27 26 24 26 22 29 28 25 27 27 21 15 12 10 9 9 8 10 12 11 12 11 13 19 19 15 13 20 16 22 29 34 37 31 34 33 31 30 26 20 15 12 11 7 9 6 6
20 21 19 2 4 8 12 27 22 25 28 26 23 13 8 10 9 6 8 9 13 14 10 11 23 19 26 17 17 19 29 31 34 32 35 33 34 32 31 30 25 23 21 18 10 11 9 7 7
23 23 17 12 10 11 16 14 12 8 12 17 17 14 10 9 14 10 6 7 13 13 11 8 18 19 26 16 21 20 18 20 27 36 37 35 37 36 33 30 27 32 24 19 16 13 10 7 7
24 20 20 20 12 13 15 9 8 10 12 15 18 15 12 10 9 6 6 6 10 12 11 6 20 19 16 23 16 18 22 27 34 37 42 40 42 39 39 33 34 36 24 24 19 13 12 11 9
20 14 10 14 12 16 13 17 11 14 16 15 14 13 13 10 8 7 7 6 8 9 7 7 13 17 16 21 26 23 19 24 34 43 48 44 42 45 40 42 30 28 27 23 18 17 15 14 13
28 25 23 17 12 16 16 20 16 18 16 17 16 16 12 13 9 7 6 5 6 7 7 6 6 14 16 20 19 21 23 35 30 47 49 42 42 45 39 28 29 28 27 24 20 18 16 17 17
33 31 23 19 16 17 18 24 19 18 18 22 18 19 18 16 12 9 8 5 3 3 4 4 5 6 8 16 24 25 25 28 34 36 39 46 46 41 39 34 34 29 31 27 22 19 21 21 21
34 30 23 20 20 15 13 11 24 20 21 19 17 15 15 17 15 12 9 6 5 5 2 2 4 5 6 5 7 15 20 27 25 23 36 42 42 38 36 36 32 32 33 26 24 24 24 23 24
32 27 21 20 21 20 25 12 14 15 21 22 19 17 15 12 14 13 10 9 10 7 6 3 1 3 6 7 6 8 12 20 26 23 23 25 33 29 30 33 35 40 34 27 25 26 25 27 28
15 15 16 17 18 9 24 19 16 19 23 25 25 22 16 13 13 16 15 15 14 12 9 6 4 3 4 6 8 8 7 9 16 21 23 24 25 27 33 36 37 36 30 29 26 27 28 30 31
22 20 4 3 4 6 7 15 26 23 25 22 13 17 16 14 15 18 19 17 15 14 12 10 7 6 5 4 5 9 10 11 13 14 15 18 21 27 28 32 36 37 35 33 30 31 33 33 33
23 25 9 6 4 4 9 8 8 3 6 9 11 13 17 19 18 22 22 18 14 13 13 13 12 11 8 8 6 7 9 11 14 16 19 22 24 27 28 28 30 31 35 36 32 35 36 35 37
27 20 26 23 12 4 10 16 16 14 13 11 14 18 16 20 19 20 23 20 16 16 13 11 12 14 15 14 13 13 14 15 15 17 20 20 22 24 27 30 32 35 38 35 35 36 35 35 43
31 14 17 13 3 5 4 7 14 5 13 15 16 17 14 11 16 20 24 20 16 16 15 14 15 18 17 20 21 20 20 21 21 22 24 22 26 28 31 32 35 37 36 36 36 36 41 37 26
24 31 25 18 17 4 3 7 12 7 6 10 10 11 14 13 10 12 17 22 18 20 21 20 20 22 23 20 20 23 25 27 28 28 28 30 29 30 33 38 37 35 40 39 37 40 38 38 35
20 17 20 23 11 11 15 21 16 14 19 13 13 10 14 14 14 10 11 17 21 17 19 21 24 27 29 31 27 23 22 25 32 34 35 37 39 39 40 39 38 36 42 35 37 37 24 28 33

GFSSGP_700_spd_069.txt.gz
Wind_Speed
9 10 5 1 4 5 4 3 4 5 5 8 8 11 13 13 13 12 12 14 12 14 18 22 24 19 17 14 22 24 23 22 18 23 29 21 16 15 14 13 13 12 12 13 15 16 16 16 16
9 7 2 3 3 2 2 2 3 3 7 10 12 15 16 17 18 16 13 11 12 13 19 24 24 22 18 18 18 23 19 19 22 22 24 22 18 18 16 16 16 14 14 15 16 16 14 13 11
7 4 5 4 2 2 3 4 3 3 7 11 16 18 19 20 18 15 14 13 12 16 18 20 21 24 17 22 20 19 18 23 24 22 25 22 19 19 18 18 17 15 15 16 14 14 13 14 13
5 5 5 5 1 3 4 0 2 6 10 17 21 19 19 17 18 16 16 16 15 18 18 19 20 18 22 30 23 24 23 29 30 29 24 23 19 22 20 19 17 17 18 17 15 14 13 13 12
6 5 9 8 2 2 3 4 4 6 12 17 19 19 20 19 19 17 17 19 18 17 18 18 17 24 29 35 34 32 21 30 31 32 33 16 22 24 23 19 18 18 18 16 16 15 13 12 11
8 7 8 10 2 4 4 3 4 7 10 15 18 19 18 19 19 12 15 16 16 16 18 17 22 25 29 37 39 38 27 28 33 34 30 22 26 25 23 21 20 19 19 17 16 15 14 13 12
10 10 12 9 5 2 5 7 9 12 13 17 20 22 18 21 20 15 16 19 18 18 21 20 25 28 30 39 41 42 38 38 41 36 32 28 27 26 23 22 22 22 20 18 17 15 14 12 11
12 12 13 14 9 5 6 9 12 14 15 19 22 19 23 23 20 21 20 18 19 21 20 18 23 28 36 44 44 42 43 35 41 44 30 30 28 24 24 26 26 24 21 19 18 16 14 12 11
15 15 16 16 13 9 8 12 13 13 16 21 22 22 23 22 18 20 19 17 15 17 18 23 17 23 35 47 38 39 39 40 43 43 36 32 27 28 29 28 26 23 21 19 16 13 11 9 10
19 18 14 16 12 12 9 13 14 16 16 18 21 22 25 20 17 21 16 14 12 14 16 17 26 22 26 39 33 34 36 37 34 32 35 31 32 30 31 30 27 24 21 18 15 13 11 10 10
22 20 12 15 15 16 12 11 14 17 19 19 21 22 24 15 18 15 10 9 10 13 18 16 17 13 7 28 14 6 16 21 33 36 35 31 35 34 33 32 30 25 22 18 16 15 14 11 10
24 20 17 21 20 20 17 16 17 21 20 21 20 20 22 14 14 13 8 6 9 13 14 12 12 11 6 16 15 10 7 27 38 35 36 38 37 35 33 29 26 25 22 18 13 14 15 10 11
25 21 22 23 26 24 23 21 22 27 21 22 22 19 20 14 12 12 10 7 7 11 13 19 13 6 11 16 17 13 11 21 34 39 42 39 36 34 30 29 28 25 22 20 17 17 12 11 10
21 19 23 26 26 27 26 25 28 14 22 23 22 17 19 14 10 11 11 8 6 8 14 17 17 13 16 19 15 11 15 20 30 43 42 40 38 31 28 29 28 25 23 21 18 12 11 10 10
22 24 24 24 23 28 27 28 29 22 21 21 20 17 17 13 8 10 7 8 8 10 11 9 22 15 19 11 16 15 13 23 28 34 42 41 37 29 28 31 27 24 21 19 15 13 9 7 7
16 21 24 16 8 7 10 18 13 15 11 11 11 12 12 12 8 8 9 7 9 10 10 9 12 18 22 19 16 23 14 23 34 32 34 41 38 33 32 29 27 23 24 19 14 13 10 6 8
21 19 18 16 19 14 10 15 8 7 3 6 10 11 11 11 10 9 6 7 9 10 8 10 10 27 26 17 16 21 23 27 30 37 38 41 37 33 32 30 26 25 25 18 17 12 11 9 10
25 23 25 24 18 17 15 13 10 7 8 8 11 12 10 10 10 5 3 4 7 10 8 9 10 22 21 18 15 16 21 26 30 35 39 41 36 34 34 31 29 29 23 20 18 16 12 12 10
23 17 17 14 14 19 18 18 15 17 15 11 9 10 8 10 11 6 4 4 4 7 8 10 4 22 22 23 22 25 25 20 27 33 39 47 39 39 38 37 34 31 29 22 22 18 16 15 14
29 25 25 23 21 22 19 20 18 21 20 15 12 14 13 12 13 8 6 4 3 5 7 8 5 15 21 22 23 22 25 21 30 32 42 41 41 43 43 39 39 37 37 34 26 20 19 18 16
32 32 28 25 21 20 20 25 19 19 23 19 15 16 17 14 13 11 9 6 4 3 4 6 6 2 10 16 26 23 24 24 31 32 44 44 43 50 48 42 39 43 43 33 24 24 22 21 20
32 31 29 25 20 12 11 11 18 21 22 20 15 15 12 11 11 12 11 8 7 4 0 3 4 4 3 3 6 20 23 24 31 34 37 45 49 52 47 47 44 34 29 30 30 24 22 22 20
26 24 22 21 21 19 17 14 12 6 16 18 17 17 13 10 8 10 11 11 11 7 5 2 4 4 4 4 2 7 20 19 28 39 31 42 46 42 39 46 44 31 33 34 28 23 24 24 25
13 15 8 13 13 8 17 11 17 14 13 18 14 12 16 15 11 10 13 14 14 11 9 7 5 5 4 4 5 5 7 15 32 34 27 25 33 36 40 33 35 34 36 32 26 25 25 30 30
21 10 3 3 5 8 12 13 30 19 20 16 16 11 12 18 14 12 14 15 16 11 10 9 6 5 5 5 4 5 7 8 12 18 26 25 24 29 28 30 29 36 36 35 33 32 34 33 34
31 30 10 7 5 3 12 9 15 6 9 10 4 4 10 16 16 12 18 15 16 14 12 11 9 8 6 6 7 7 7 8 10 12 15 16 19 20 21 27 33 38 38 36 38 40 40 39 38
17 22 27 9 5 3 6 10 10 16 24 13 9 10 13 13 17 18 17 20 17 15 13 11 11 12 12 11 10 10 10 10 11 13 15 16 19 20 22 28 35 37 39 42 41 40 43 41 40
23 14 10 11 5 10 6 8 11 5 19 13 14 14 16 13 15 19 19 21 18 17 16 15 12 12 14 16 17 15 14 14 15 16 18 19 21 24 28 31 34 36 38 39 41 44 45 42 40
22 23 17 12 17 7 9 9 12 6 2 3 11 7 11 10 13 13 19 21 22 19 17 17 17 16 17 17 16 17 17 19 20 20 21 21 24 25 30 32 36 38 39 42 45 47 43 44 40
12 12 21 15 12 9 11 18 19 10 11 21 15 12 15 9 11 11 10 16 22 23 21 19 21 22 22 23 25 24 17 18 22 24 21 25 27 29 33 34 37 39 42 44 46 46 44 46 51

GFSSGP_700_spd_072.txt.gz
Wind_Speed
9 10 8 1 1 5 5 5 5 3 2 3 4 7 9 12 14 16 19 18 17 12 15 21 28 32 27 22 19 17 20 21 22 17 18 21 14 11 9 12 15 16 14 15 15 15 15 15 14
8 8 4 4 4 10 4 6 4 4 2 4 8 12 14 13 16 20 22 19 19 15 15 22 28 35 32 23 21 22 19 24 20 20 20 20 15 13 12 14 16 14 15 14 15 15 14 14 14
7 7 2 4 7 8 6 5 4 3 1 7 10 14 14 16 15 19 18 18 18 17 16 25 31 41 27 21 25 25 25 24 25 25 18 21 16 14 15 15 16 16 15 15 15 14 15 14 13
6 6 6 8 9 8 7 6 5 2 4 6 10 9 14 12 17 19 19 20 19 17 17 22 29 34 26 29 29 27 22 20 22 25 19 19 16 14 19 16 18 16 15 16 17 16 15 14 12
7 7 9 12 12 9 8 9 6 4 5 7 10 8 16 13 18 19 18 21 22 21 21 22 19 19 18 11 27 30 23 23 26 26 21 21 20 17 19 19 20 16 17 18 17 16 15 14 12
8 9 10 14 13 10 8 10 9 7 9 10 14 16 19 17 19 19 16 17 19 19 22 21 20 20 21 20 24 25 25 26 27 27 27 28 27 22 21 22 20 19 19 18 18 17 15 14 12
11 10 13 14 12 10 9 13 9 10 11 11 16 20 20 20 23 19 16 18 20 23 22 20 20 19 23 24 25 26 31 32 32 32 32 28 26 23 20 22 21 21 21 20 19 17 15 13 13
13 11 13 13 14 13 9 13 14 13 13 13 15 14 16 25 25 20 17 20 19 20 21 21 24 23 26 27 34 38 35 30 37 33 30 26 24 20 22 22 24 22 21 20 18 16 16 15 12
17 13 15 15 16 14 11 10 13 12 13 14 15 16 21 23 23 15 20 22 19 18 20 23 20 21 25 31 38 41 39 38 36 37 33 34 34 23 26 26 24 24 21 19 18 17 15 13 12
19 16 16 15 14 16 13 15 15 13 15 16 16 18 19 20 19 15 18 14 12 14 15 19 25 22 20 37 40 42 43 44 38 33 39 36 33 30 29 27 26 25 22 21 18 17 15 13 12
19 23 14 16 13 18 16 14 16 15 17 16 18 20 21 19 17 12 14 7 7 10 14 18 23 18 27 37 35 46 47 35 43 36 35 40 34 33 32 32 30 27 25 23 21 18 16 14 13
22 21 19 14 16 21 21 18 21 20 20 22 21 20 20 19 15 9 10 6 5 9 13 14 19 22 21 11 31 23 31 43 49 45 32 43 38 37 34 32 30 29 27 24 21 18 16 15 14
25 19 17 20 22 25 24 27 23 27 25 22 22 20 19 18 13 8 8 5 3 6 10 11 16 13 8 4 17 11 17 39 32 38 38 36 35 34 34 33 31 28 26 24 21 19 17 14 14
15 19 21 21 21 22 26 24 27 17 22 23 20 18 15 14 10 7 6 5 6 9 12 11 10 16 17 12 11 10 11 17 28 35 40 36 34 36 35 33 30 29 26 23 22 20 17 15 12
25 23 19 21 21 19 21 27 28 15 16 22 17 10 9 11 10 6 6 8 8 9 11 11 5 12 15 16 21 13 10 17 27 31 39 48 42 36 38 31 30 28 26 25 24 22 19 14 11
17 18 20 15 15 16 10 15 5 11 12 11 7 7 8 9 10 8 7 7 9 10 10 10 8 16 14 17 22 20 12 18 23 30 35 37 38 40 37 31 29 27 28 26 22 18 15 12 12
19 20 17 15 14 14 13 12 9 10 8 7 7 8 7 8 8 8 5 5 6 9 12 11 7 18 17 20 19 17 10 24 26 33 41 41 40 42 39 32 33 32 28 25 22 18 13 11 11
24 20 19 18 10 16 17 19 15 14 12 11 12 11 9 9 7 7 4 5 6 7 10 12 11 12 20 26 18 19 15 21 22 31 42 43 42 40 36 36 35 32 30 26 21 15 13 11 12
23 19 18 14 12 16 19 20 18 16 20 18 18 12 9 11 11 8 7 5 6 5 8 11 8 11 15 18 24 18 27 20 25 34 38 40 45 40 39 40 37 34 29 23 20 18 15 12 13
27 21 22 17 12 17 17 22 22 21 23 21 17 16 14 14 14 10 9 7 6 3 4 6 6 12 23 19 19 18 19 22 24 28 40 35 39 40 40 40 39 37 34 36 26 24 19 20 16
29 27 23 20 13 16 19 26 25 23 24 24 23 21 17 15 14 13 11 9 7 5 2 2 2 2 15 20 24 22 26 29 27 38 36 40 43 42 44 42 38 38 39 39 30 32 30 20 22
31 25 23 22 15 17 8 14 14 16 20 20 17 22 15 12 14 13 12 10 9 7 5 2 3 4 4 11 24 22 26 27 27 33 35 43 42 51 48 43 43 43 40 40 37 40 30 29 25
29 22 18 19 22 21 21 15 16 15 13 12 11 16 17 13 8 12 12 12 13 10 8 7 5 5 5 5 7 16 25 30 29 26 35 32 46 50 50 49 45 41 43 43 41 44 37 32 27
8 10 9 10 14 16 23 19 13 16 12 7 8 12 14 19 17 14 16 16 16 14 12 10 9 8 7 7 6 8 10 22 30 31 34 31 39 49 49 44 49 48 46 44 38 37 36 30 25
20 15 8 10 9 9 10 15 21 7 13 10 10 12 8 12 19 18 19 16 14 13 13 13 11 10 9 7 7 6 5 6 10 21 36 34 31 37 48 45 40 41 44 44 40 39 34 29 28
26 27 11 9 9 7 10 10 16 7 8 8 10 7 7 6 14 22 18 18 15 15 15 15 13 12 10 9 8 6 5 6 7 12 23 33 34 31 31 36 36 35 26 38 36 39 42 35 33
18 33 24 21 10 6 12 8 10 12 12 10 8 9 8 10 11 21 20 20 20 18 17 16 15 14 13 11 10 9 8 8 7 9 13 18 22 24 28 30 36 35 31 35 38 41 44 41 39
20 15 12 19 10 15 11 15 11 6 4 9 9 11 11 10 13 19 22 24 23 22 21 21 20 18 16 16 15 13 12 11 12 13 13 14 14 19 22 22 24 31 35 37 42 44 45 45 42
28 19 17 15 22 10 9 10 9 12 9 6 3 5 5 8 11 14 15 23 26 25 24 24 23 20 19 17 16 17 18 18 18 16 16 17 19 18 21 23 26 29 34 37 40 42 44 48 47
19 24 25 21 16 15 19 17 5 6 6 11 15 12 7 5 6 9 16 18 24 27 25 24 24 24 23 23 22 21 19 21 23 23 21 21 21 23 25 27 29 30 34 37 41 43 44 46 49

GFSSGP_700_spd_075.txt.gz
Wind_Speed
10 9 8 3 5 7 16 7 8 7 6 4 5 5 9 11 13 14 19 20 18 20 18 17 22 27 28 25 19 21 16 12 15 15 12 11 12 8 7 10 13 15 14 14 12 11 13 13 14
9 7 4 3 9 17 9 6 8 6 7 6 7 8 10 12 15 13 19 20 19 19 20 19 23 30 34 29 25 22 23 22 19 19 14 15 13 9 9 12 13 14 14 12 12 13 14 15 14
8 5 4 10 16 17 10 5 7 7 7 7 8 9 11 11 13 15 18 18 16 18 19 19 24 34 43 38 31 26 25 24 22 17 17 16 16 12 11 10 13 14 13 14 14 15 15 16 16
8 6 8 12 15 10 11 8 8 8 9 8 8 11 9 12 16 19 18 17 18 18 18 19 19 23 33 31 32 30 30 26 23 19 20 16 16 13 12 11 15 16 15 16 16 17 17 17 16
8 6 16 20 16 13 11 10 11 10 9 9 9 11 13 18 16 20 20 18 17 16 20 20 23 22 21 26 24 27 31 29 25 24 24 16 15 16 12 13 16 17 17 16 16 17 18 17 16
10 9 18 20 15 12 12 10 8 9 10 12 13 12 14 20 19 26 23 19 15 15 18 21 21 24 20 19 25 27 36 28 23 25 21 19 20 17 13 15 18 17 17 16 17 18 17 17 17
16 16 22 21 17 12 12 11 8 10 11 11 12 15 16 24 22 25 25 19 16 18 19 21 21 20 20 20 16 22 29 27 25 28 25 26 25 20 23 18 19 20 19 18 18 18 17 16 15
16 17 23 21 17 15 11 12 9 11 12 16 12 11 13 19 22 24 23 17 21 19 21 20 17 19 20 18 20 22 21 31 28 30 29 31 27 27 28 20 22 24 21 20 20 18 17 15 15
15 19 23 19 16 14 13 11 10 12 13 13 12 13 16 19 20 24 21 21 22 19 20 19 18 16 19 18 22 25 22 23 29 30 30 32 31 30 32 21 21 20 22 22 20 17 17 15 14
20 19 20 16 15 14 14 13 12 14 12 14 15 16 18 19 19 21 22 19 16 11 12 12 14 15 20 26 29 27 28 29 31 33 32 26 25 27 28 25 23 23 23 23 21 19 17 14 12
21 27 19 16 17 14 16 16 14 14 15 13 12 13 22 20 19 18 18 15 10 6 7 10 12 16 20 25 26 33 36 34 43 40 34 30 28 34 28 27 28 27 27 26 23 20 18 15 13
27 25 22 23 19 16 19 18 20 18 17 18 20 19 21 19 17 15 15 12 8 6 9 12 15 17 21 27 34 41 42 48 41 45 39 30 29 35 31 30 31 30 28 26 23 21 18 17 16
25 24 22 20 20 23 21 23 23 23 20 19 19 17 19 15 13 14 12 9 8 7 9 11 15 19 22 20 19 20 16 36 39 35 34 28 36 38 32 31 31 30 28 26 24 21 18 18 17
21 24 23 24 23 21 22 24 22 23 18 16 17 16 16 10 10 12 11 10 8 9 9 12 12 17 14 14 2 5 19 27 34 37 36 36 34 42 35 32 32 30 28 25 23 21 20 19 17
23 25 24 23 22 23 21 26 25 22 19 18 17 16 12 11 9 10 14 14 12 10 11 12 10 11 13 9 9 9 8 18 26 32 33 36 42 41 34 35 30 30 28 27 25 22 22 20 18
17 21 27 21 22 21 20 24 11 9 12 11 12 12 8 11 9 9 13 17 15 11 10 11 10 12 16 18 16 12 8 11 28 34 28 35 35 33 34 35 30 29 30 29 26 24 23 21 18
24 25 24 19 19 16 19 16 11 9 10 10 11 13 9 10 9 9 10 12 12 11 11 10 11 7 18 15 11 15 13 12 15 27 30 28 39 35 34 34 32 30 28 28 25 25 21 19 15
29 25 23 23 18 18 21 22 18 14 12 11 12 14 14 11 10 9 10 10 12 11 11 12 11 10 18 23 14 17 16 15 16 20 24 28 38 38 38 35 34 34 29 28 27 26 24 19 16
25 23 20 17 15 18 19 22 22 19 18 16 16 15 16 14 12 12 10 11 13 11 9 11 12 9 21 24 21 23 22 17 15 24 29 29 36 46 42 37 38 31 33 28 30 28 23 20 16
30 29 28 21 17 14 19 22 20 22 23 22 19 18 17 17 14 12 12 11 12 12 9 8 9 6 16 22 23 18 21 20 21 22 32 35 37 39 42 42 43 35 33 33 32 27 24 21 16
30 31 28 23 18 18 17 26 25 25 25 24 22 20 20 20 19 15 14 13 12 11 10 7 6 2 7 18 18 26 20 25 29 25 29 33 42 47 50 49 47 41 37 38 33 31 27 24 21
31 26 24 23 20 24 19 22 20 14 17 18 20 19 19 21 21 16 15 14 13 12 9 7 4 1 4 8 13 20 18 26 25 27 25 33 39 37 48 49 46 44 44 42 39 39 34 35 30
33 21 24 22 22 25 27 18 20 19 21 17 16 18 21 20 20 15 14 14 15 14 11 9 6 3 3 5 6 11 20 24 26 29 27 37 41 34 46 50 47 48 47 45 44 40 40 37 36
23 23 17 21 21 22 28 25 19 20 16 10 9 11 15 18 20 18 12 16 17 15 14 12 10 8 6 5 5 6 10 17 29 28 30 36 40 43 44 49 50 49 50 49 47 42 42 46 41
25 22 14 14 17 15 17 20 27 9 8 7 9 11 13 15 18 21 21 18 18 14 14 15 13 11 8 6 6 5 6 8 15 27 29 28 41 38 37 49 53 51 49 49 46 48 47 47 45
23 26 15 13 10 15 24 11 21 17 19 10 6 8 15 13 13 17 22 21 19 16 16 18 17 15 12 10 9 7 6 6 7 10 20 33 33 36 25 31 40 52 44 48 43 40 43 44 37
21 32 29 27 14 7 12 14 8 11 10 10 4 6 11 7 9 14 20 24 22 20 19 19 19 19 17 14 13 11 9 8 7 8 7 12 24 28 32 28 34 37 41 40 38 38 43 43 40
27 15 22 25 11 13 15 19 9 11 11 10 7 8 10 10 10 11 16 23 22 23 23 22 23 22 20 18 16 15 14 13 13 13 11 10 11 15 21 25 28 34 36 41 37 40 41 42 42
25 29 23 25 23 5 7 7 9 12 8 7 5 4 4 5 6 7 11 19 24 27 28 26 26 26 24 23 22 20 19 17 16 15 14 14 15 16 15 18 22 24 27 36 38 39 38 40 42
24 27 24 19 17 21 21 15 5 8 3 4 6 3 4 7 5 8 9 15 19 22 31 30 29 28 26 24 21 20 20 20 20 18 19 19 19 20 22 21 23 24 24 26 33 38 39 43 46

GFSSGP_700_spd_078.txt.gz
Wind_Speed
10 8 8 6 7 11 19 14 6 2 5 4 5 5 8 9 11 6 17 19 24 27 21 18 16 17 24 28 23 18 17 16 16 15 14 13 12 10 10 12 14 14 16 15 13 12 13 14 15
9 8 6 2 14 19 22 3 3 2 3 7 10 9 9 7 9 7 16 23 23 24 26 21 19 19 24 29 29 25 23 21 20 19 16 13 12 11 10 11 12 14 14 13 13 14 15 16 17
8 6 5 10 17 21 22 9 3 4 9 7 8 8 11 11 17 21 18 19 22 23 22 22 18 17 23 31 31 30 29 25 26 24 19 15 14 12 10 10 12 13 13 13 13 14 16 18 18
8 5 8 13 17 21 19 7 6 7 8 9 6 10 10 14 15 20 20 20 21 21 19 16 14 15 20 24 28 33 37 19 31 27 22 17 15 11 10 11 13 14 14 12 14 16 17 18 17
10 8 17 22 23 22 13 8 9 10 9 9 7 10 15 19 19 22 21 23 22 21 16 14 15 17 18 24 28 28 34 28 31 28 23 20 15 15 12 13 16 16 14 14 16 16 16 17 17
12 8 17 21 22 20 5 9 7 9 9 11 13 13 10 21 21 25 23 22 19 19 17 15 16 17 17 23 28 24 33 32 33 31 26 20 17 18 16 15 17 17 15 16 17 18 17 17 17
19 17 24 24 22 21 15 10 9 8 10 11 12 8 11 19 18 24 24 24 18 15 19 21 19 17 19 20 23 24 22 31 35 30 28 22 19 18 14 14 17 18 18 19 19 19 18 18 17
18 17 24 23 22 23 14 9 9 9 11 14 14 14 11 19 22 24 25 24 21 21 22 22 20 17 19 19 22 19 18 30 27 31 28 24 24 23 19 16 17 20 21 22 23 20 19 17 16
18 24 29 23 20 18 11 12 9 13 14 14 13 16 19 20 21 24 26 22 20 23 18 17 16 15 17 18 19 15 14 17 22 31 30 30 29 27 23 23 20 23 23 24 22 22 19 18 17
24 29 27 21 20 17 12 13 12 12 15 14 14 15 19 20 22 25 27 20 19 17 7 7 9 12 12 15 18 17 15 16 16 31 29 33 28 28 29 23 23 24 25 25 23 22 21 20 17
25 35 25 24 23 14 16 17 14 15 16 12 11 17 17 19 22 23 20 18 15 11 5 6 7 10 11 15 17 19 14 18 19 28 28 34 26 17 25 28 26 26 27 25 24 23 21 18 17
27 30 28 27 23 23 19 17 19 19 21 17 16 23 26 27 22 21 15 16 11 7 6 7 11 13 15 19 21 23 22 24 28 25 37 38 29 14 24 32 23 25 25 24 24 23 21 20 18
27 28 27 29 27 24 22 23 23 25 22 22 19 24 23 18 18 16 16 13 14 11 11 10 11 16 17 19 19 23 31 37 36 36 40 32 30 23 29 29 28 25 27 26 25 24 23 21 19
24 25 29 29 28 27 25 25 24 27 23 22 19 22 22 18 15 14 17 15 15 13 11 14 13 14 16 15 12 14 17 19 23 32 39 28 25 26 30 36 32 28 26 26 26 25 23 22 19
24 30 28 28 26 24 24 29 29 28 22 23 22 21 21 16 15 15 18 16 18 14 12 15 15 13 13 13 9 4 9 9 13 34 35 28 25 24 32 41 31 28 28 28 27 24 23 22 20
24 23 30 30 27 28 24 31 24 22 19 19 20 17 22 16 14 15 15 16 20 12 12 12 15 15 13 15 13 4 7 7 19 22 33 30 33 30 35 41 31 30 30 30 29 25 24 22 21
23 30 31 27 24 27 26 29 23 15 12 14 15 16 18 16 13 12 14 14 15 11 10 12 12 16 14 16 16 12 6 6 5 16 26 37 32 37 35 39 35 31 32 32 29 26 25 22 21
29 29 29 29 25 25 24 24 22 17 15 17 15 17 17 19 17 13 12 13 13 12 10 13 14 13 12 16 18 16 13 9 9 17 28 30 35 33 35 36 35 34 31 31 31 28 25 21 20
30 28 31 31 23 24 28 21 21 22 19 21 16 14 18 20 17 20 13 15 14 14 11 12 14 13 10 18 20 16 18 13 15 13 21 23 22 23 41 35 34 35 34 25 28 27 24 24 24
34 35 35 34 23 13 21 20 21 21 23 24 24 21 19 21 20 22 15 14 16 14 12 11 13 10 8 15 18 17 16 16 15 14 19 18 22 25 39 35 36 34 32 34 31 32 29 27 25
35 34 34 38 29 23 23 24 25 25 25 25 26 24 19 22 23 25 19 15 16 16 12 11 11 9 5 12 19 21 19 22 19 19 19 24 26 25 37 43 39 39 37 40 36 33 31 28 26
35 32 34 33 27 27 24 20 24 22 27 30 26 26 25 23 23 24 25 16 16 16 12 10 9 7 4 4 12 16 20 21 22 22 18 22 24 25 34 43 40 40 39 40 33 31 30 30 28
38 30 28 26 31 28 29 23 23 14 17 16 20 21 24 24 23 24 28 16 16 16 12 11 9 7 4 3 7 11 15 17 18 23 25 22 23 30 39 42 47 45 46 42 34 36 37 36 35
28 30 29 28 30 23 29 26 25 25 21 15 15 15 18 23 20 24 26 19 17 16 13 12 11 10 6 4 6 8 9 13 16 23 23 26 28 29 35 32 35 48 48 47 42 43 42 42 41
24 21 5 9 18 13 23 23 29 17 19 9 13 11 11 17 20 23 26 24 18 16 11 13 13 12 10 7 6 8 9 8 10 16 24 30 30 32 35 34 32 41 53 49 51 48 47 47 47
12 27 9 6 7 14 28 16 30 17 20 13 5 12 12 15 17 16 23 28 22 18 14 15 14 15 12 11 9 8 7 6 8 9 16 25 27 28 28 31 26 36 50 55 54 51 50 49 49
17 26 34 30 16 8 12 28 7 16 18 17 10 7 10 17 14 16 20 27 22 22 18 16 16 17 16 14 12 10 8 6 4 5 7 10 18 26 28 27 32 24 45 53 55 51 53 52 48
28 11 19 11 5 6 6 7 11 14 14 13 12 8 11 9 7 9 11 20 24 22 20 19 20 20 19 18 16 14 12 11 10 8 6 5 7 13 20 23 29 26 28 35 44 51 46 42 45
29 28 13 5 14 3 1 8 4 8 13 14 10 15 9 9 3 10 8 17 25 22 21 19 23 24 24 22 20 18 17 15 14 13 12 11 11 11 12 13 21 27 27 30 34 38 38 38 41
24 27 25 16 6 15 12 5 7 19 13 8 10 10 8 9 5 3 9 7 19 21 21 23 27 28 27 26 24 22 21 20 19 17 17 17 17 18 18 19 19 22 23 27 30 33 39 39 46

GFSSGP_700_spd_084.txt.gz
Wind_Speed
11 9 7 9 7 8 13 9 8 4 13 13 9 9 12 13 17 13 12 13 16 21 25 28 23 19 16 13 14 19 24 25 23 23 20 19 18 20 20 21 21 19 18 16 16 16 15 16 15
12 10 8 10 8 10 10 10 7 7 13 5 7 12 16 12 12 11 15 17 20 24 25 26 24 19 15 14 16 22 27 28 27 27 23 21 20 18 19 18 19 20 19 18 17 17 17 16 16
14 12 10 8 15 18 7 6 8 6 5 10 14 13 10 11 9 11 17 19 21 24 24 27 23 18 17 16 17 26 30 31 31 30 23 25 23 23 19 17 19 20 20 19 18 17 18 19 19
16 15 12 16 19 19 16 11 8 14 10 8 8 11 10 13 16 18 17 20 22 23 24 26 22 17 17 18 21 25 32 31 34 33 36 34 30 23 19 18 18 21 21 20 20 19 20 20 19
17 18 17 18 20 12 12 14 25 18 13 9 11 9 9 13 16 18 16 20 24 24 23 24 19 17 16 18 23 26 30 34 36 34 36 36 30 24 22 19 20 20 21 20 20 20 19 19 18
21 20 17 22 20 18 13 12 18 18 17 11 10 11 14 15 14 14 16 19 24 26 26 22 18 17 17 19 20 26 31 30 34 32 26 26 34 25 23 21 21 23 20 18 20 21 20 19 18
25 24 25 24 22 19 10 13 15 24 23 18 18 20 18 13 15 15 18 23 26 27 28 23 19 21 21 21 21 24 27 29 31 29 26 22 29 25 24 23 21 25 22 20 20 20 20 20 18
25 25 27 29 24 21 5 8 7 15 15 17 17 19 20 20 22 22 22 22 23 28 28 22 22 22 23 23 23 23 26 26 29 30 28 20 24 30 25 23 25 25 23 22 23 23 22 21 19
25 28 32 34 25 17 6 8 7 15 15 15 15 18 14 16 19 18 19 22 24 31 26 20 14 12 18 21 22 23 25 24 24 26 28 33 33 35 30 28 27 26 25 26 26 26 26 24 20
32 38 36 29 25 24 22 13 9 15 18 18 19 17 17 17 21 21 22 24 31 30 19 13 10 8 9 15 18 20 20 22 21 21 30 35 37 39 27 26 32 28 27 27 27 27 26 24 22
34 41 32 28 24 24 23 17 14 19 19 18 19 20 19 18 15 18 21 30 20 19 15 12 11 10 10 10 14 17 16 19 19 18 17 31 46 39 32 29 30 30 29 30 30 29 26 25 21
34 34 32 30 24 22 22 19 23 21 20 20 18 16 17 19 19 22 27 27 20 17 14 14 13 12 14 14 16 19 19 20 20 16 21 40 46 37 35 30 26 26 28 30 30 29 29 26 23
31 30 27 24 21 20 19 27 27 27 22 20 24 25 23 24 24 28 28 27 21 17 14 15 14 13 15 15 16 19 19 19 18 18 22 42 38 36 33 30 27 23 27 30 31 32 30 28 24
29 23 22 21 24 24 31 34 35 31 25 27 24 25 29 30 28 29 27 25 21 15 15 18 16 14 15 16 15 17 18 20 18 16 27 40 36 33 31 26 25 22 31 32 32 31 31 29 23
23 28 29 31 30 34 30 39 36 33 29 31 31 24 25 28 27 29 28 26 20 15 16 18 17 14 15 15 15 17 17 19 20 20 19 34 34 31 25 19 17 24 33 34 33 32 32 31 24
24 27 33 33 32 31 26 46 35 29 30 29 25 23 25 28 27 29 28 25 18 14 15 16 15 13 14 15 15 14 14 16 17 24 26 30 30 37 30 22 17 27 34 35 36 36 33 30 24
28 31 33 33 29 24 25 41 37 31 33 31 24 21 23 31 32 31 31 22 16 12 13 13 13 14 12 15 14 12 11 6 16 22 29 27 31 29 36 27 26 33 34 37 36 34 31 28 27
31 31 32 28 28 22 26 36 30 33 33 31 28 28 23 23 25 25 17 16 16 14 13 13 12 13 12 13 12 12 14 7 11 21 25 30 30 28 37 25 30 34 34 37 35 32 27 27 28
31 31 31 29 22 27 29 37 37 29 28 35 30 24 25 24 24 23 22 19 13 14 14 14 13 12 13 12 9 11 16 13 9 18 25 24 26 34 32 31 30 38 39 35 35 34 30 32 31
31 27 30 31 24 28 35 43 41 36 27 21 31 32 29 29 29 29 28 25 15 12 13 14 14 11 10 12 6 12 12 14 9 18 24 27 30 30 30 33 27 31 40 42 37 37 37 36 32
24 26 27 30 30 33 30 45 51 36 29 20 31 27 30 29 33 32 28 23 17 12 12 14 14 12 8 10 7 12 19 16 15 9 28 31 29 34 29 29 28 34 41 46 39 37 35 33 31
24 25 26 28 27 14 12 15 40 42 35 27 27 32 33 28 35 34 30 23 19 14 11 14 14 13 8 6 7 7 12 12 13 7 17 28 25 27 30 25 30 22 36 39 41 38 36 32 30
21 21 18 20 26 22 22 12 54 41 39 32 27 28 39 37 28 38 31 22 20 16 12 13 14 13 9 5 5 4 8 12 15 12 16 24 29 29 27 29 31 18 36 38 39 40 29 28 28
21 18 19 24 18 11 32 18 38 48 42 34 29 25 30 31 37 37 32 22 20 17 16 13 13 13 9 5 5 4 5 8 12 16 19 21 26 32 30 28 31 24 36 37 39 39 43 32 30
19 16 4 7 8 11 15 22 40 28 38 33 30 29 25 31 30 39 34 27 22 19 12 14 13 12 10 6 4 3 4 5 7 10 10 16 20 25 25 29 26 25 28 40 41 39 29 35 34
14 13 7 5 5 2 18 14 9 17 25 27 23 25 28 31 30 34 31 29 23 17 15 15 13 11 11 9 6 4 4 3 4 7 10 9 18 26 22 22 19 21 29 33 43 39 38 37 36
12 13 18 12 13 2 7 16 18 10 8 22 26 14 21 25 28 31 27 28 20 16 14 16 14 13 12 12 10 7 6 4 3 4 6 8 10 19 23 24 20 22 24 35 38 39 40 41 40
20 16 5 9 2 3 5 4 6 5 9 6 15 23 21 21 28 26 21 23 18 10 8 6 11 14 14 13 13 11 10 8 7 6 5 5 8 11 17 20 24 28 25 24 33 37 44 45 52
18 14 9 9 6 2 2 1 9 17 7 12 12 8 16 23 24 24 24 17 13 8 8 7 6 11 16 16 15 15 13 12 11 10 9 7 8 9 9 10 14 18 23 30 31 32 35 42 43
19 19 14 8 4 6 2 5 10 13 12 22 23 18 22 28 30 27 21 20 17 11 8 6 4 6 11 16 19 19 18 17 16 14 13 13 12 11 11 11 12 14 17 22 27 29 30 34 35

GFSSGP_700_spd_087.txt.gz
Wind_Speed
14 13 13 13 10 7 10 5 8 8 9 9 9 9 12 15 19 16 12 11 13 15 19 21 18 17 17 16 15 14 17 22 24 24 23 23 21 20 18 20 19 18 16 16 15 15 16 16 15
16 15 14 14 11 11 9 4 8 2 12 9 11 11 13 19 16 13 12 13 17 21 21 20 18 17 16 14 17 18 22 25 27 27 26 25 22 20 19 19 19 20 19 18 17 17 18 17 15
18 17 15 13 16 22 5 6 2 4 9 11 12 14 14 14 14 12 11 15 20 20 22 21 21 20 15 16 19 21 25 28 31 32 31 29 25 20 18 21 21 22 21 20 20 19 19 18 16
20 21 19 21 22 16 11 10 7 4 13 15 13 13 17 18 15 11 12 16 16 19 22 24 23 21 14 15 20 23 28 32 34 35 32 35 29 26 23 21 22 23 22 21 22 20 19 18 17
24 24 22 25 25 21 15 7 9 13 14 18 18 17 16 15 14 12 14 16 18 20 24 25 26 21 15 13 18 24 28 33 37 37 37 37 32 33 34 30 21 22 22 23 22 23 20 18 16
25 26 19 29 27 20 15 9 12 14 16 15 20 16 15 17 13 13 12 15 20 22 21 24 27 20 16 15 17 23 28 34 35 33 38 34 30 29 32 31 22 21 22 24 23 22 19 18 16
29 29 30 30 29 23 15 7 11 9 16 16 18 16 18 20 17 17 18 18 21 21 23 27 27 20 19 19 20 22 26 30 31 30 28 27 16 23 30 28 24 22 23 24 23 21 19 19 17
30 31 32 33 33 27 17 8 9 8 11 14 16 19 18 16 14 15 16 18 20 25 28 32 26 20 20 21 22 22 24 27 28 29 32 28 25 24 18 33 28 29 28 25 23 21 20 20 18
31 34 38 38 33 28 9 12 12 13 12 15 19 17 18 17 16 16 17 20 23 26 29 27 21 15 14 14 19 23 25 26 27 28 30 30 28 27 18 33 32 32 29 26 25 25 23 22 20
34 42 42 38 30 27 19 15 8 11 16 15 19 19 20 17 18 15 16 20 19 26 23 23 17 13 12 10 12 17 22 24 24 28 31 27 29 28 20 36 34 29 26 27 26 25 23 24 23
37 47 38 35 30 27 29 28 22 16 14 9 13 21 22 20 19 17 12 16 21 27 25 22 17 16 14 12 13 16 19 21 22 24 27 24 25 34 34 35 35 31 28 28 29 26 26 24 23
39 43 36 30 31 30 29 27 28 24 17 14 14 21 25 21 17 16 17 18 22 23 23 22 18 15 16 14 15 17 20 20 23 25 24 31 33 37 39 42 37 35 30 29 28 27 25 25 23
42 39 33 30 30 29 26 29 28 29 24 18 16 21 25 25 24 23 20 20 19 21 23 22 20 17 17 16 17 18 21 22 24 26 29 35 32 39 37 34 34 34 29 28 28 29 27 27 24
38 33 32 29 30 26 26 32 30 32 27 22 21 21 26 26 22 22 27 25 20 22 24 22 20 18 18 18 18 19 20 22 23 25 27 21 31 44 39 34 28 32 35 32 30 28 27 28 25
37 33 28 29 25 30 27 40 40 32 31 26 25 27 28 30 26 27 25 22 21 23 23 21 21 18 18 18 17 19 21 20 19 21 22 17 37 40 37 34 31 29 28 31 32 31 30 28 26
26 33 28 27 28 29 28 50 37 30 30 32 29 31 29 28 30 27 28 26 24 22 20 19 18 16 18 18 17 17 19 17 16 18 16 31 40 35 36 31 30 29 27 31 34 33 31 29 27
31 28 20 21 27 28 33 45 37 33 32 33 32 32 29 28 27 27 27 25 21 21 18 16 16 16 16 18 17 17 15 13 12 17 15 39 38 36 35 31 30 19 24 31 34 34 31 27 27
29 27 27 24 26 29 37 45 43 42 38 37 33 30 29 27 24 22 24 21 14 15 16 16 15 17 16 16 18 16 11 10 6 13 20 24 31 37 31 34 28 30 26 34 36 36 32 30 27
31 24 21 26 25 32 39 45 42 39 41 40 33 29 29 25 22 21 20 20 18 17 12 14 14 16 16 14 17 15 9 11 8 10 27 27 27 35 33 31 30 32 32 33 35 36 32 32 31
29 29 30 30 29 32 39 53 47 41 40 40 34 28 28 28 23 24 23 22 18 20 16 15 13 16 16 13 14 12 11 12 10 9 15 30 33 31 31 31 33 31 34 34 34 36 36 34 32
26 25 24 25 27 31 36 54 52 48 47 42 38 29 30 30 26 26 26 26 20 22 16 14 12 15 15 12 12 9 13 11 13 10 19 24 28 29 28 33 31 32 37 36 36 36 36 34 35
19 19 18 19 21 19 20 22 49 50 51 48 44 35 28 34 34 33 30 29 23 20 21 14 12 14 14 11 10 7 6 10 8 8 10 30 26 27 30 34 26 32 29 31 40 42 35 37 35
16 16 18 20 20 20 21 14 51 34 44 42 43 38 28 30 31 27 31 28 27 23 23 14 12 13 13 9 7 5 5 10 11 12 8 26 30 30 29 34 31 32 31 28 39 43 43 37 38
23 21 20 19 18 11 21 22 50 41 45 45 32 39 30 31 30 30 30 28 29 28 25 20 13 12 13 9 5 4 4 8 11 11 9 14 35 35 32 24 26 25 28 21 33 36 36 36 35
20 17 4 3 5 6 5 20 37 13 18 24 28 38 34 32 28 26 29 34 32 27 28 22 14 11 13 10 5 3 3 4 7 10 11 14 20 27 30 28 29 27 30 20 31 35 38 39 35
15 20 8 4 2 3 10 12 15 9 18 20 19 28 38 36 32 31 27 29 32 28 29 17 11 11 12 11 7 4 3 3 5 7 10 12 12 22 27 29 29 25 22 27 30 43 38 41 43
15 16 16 12 19 7 9 14 19 26 17 15 18 25 43 36 35 33 32 26 29 27 25 14 12 12 12 11 10 7 5 3 4 5 6 9 12 18 17 21 24 24 23 29 26 36 36 42 44
21 11 5 7 3 4 7 10 9 8 5 1 14 22 35 25 29 31 29 27 25 23 19 14 13 14 14 12 12 11 8 7 6 5 5 5 9 16 26 29 27 28 21 24 25 31 36 40 41
17 18 13 6 7 3 3 4 5 8 12 13 3 10 28 24 21 28 28 28 25 23 19 15 10 8 11 14 13 13 13 11 10 8 7 7 8 9 10 17 29 32 32 30 28 30 30 36 39
12 19 19 8 3 7 8 7 10 2 15 18 15 1 16 20 21 28 32 28 30 23 20 17 15 13 9 13 15 16 16 16 15 13 11 11 10 10 10 12 13 16 22 26 29 33 34 35 35

GFSSGP_700_spd_090.txt.gz
Wind_Speed
18 16 15 15 11 8 8 3 6 7 7 8 8 9 7 10 13 14 15 10 13 11 14 17 17 14 14 14 12 14 16 16 17 20 21 21 21 21 19 18 16 14 15 14 12 11 11 13 13
19 19 18 17 13 12 8 4 7 13 13 12 11 10 10 12 16 15 11 10 11 14 18 17 17 18 19 14 13 15 18 19 20 22 21 21 23 21 18 17 16 15 16 15 13 13 12 14 15
20 20 19 15 21 25 8 11 7 6 11 15 11 10 13 14 15 13 10 8 12 13 15 17 20 19 20 15 13 16 20 21 22 23 24 24 24 24 22 21 21 19 16 16 15 16 14 16 15
21 22 22 23 27 12 7 11 3 5 12 14 13 12 16 13 14 11 9 10 13 17 17 19 17 24 19 14 13 18 22 24 25 27 27 29 28 23 25 25 23 19 18 17 17 15 15 17 16
23 25 27 27 33 28 21 17 15 13 11 18 21 19 19 14 12 12 11 12 14 16 15 15 21 26 18 13 13 18 22 24 25 27 30 32 31 33 28 27 24 29 25 18 19 18 18 18 17
26 27 25 32 36 28 23 15 14 15 16 19 26 21 19 14 12 13 14 13 13 15 15 22 26 26 16 13 14 17 22 25 27 31 33 34 34 28 23 22 25 28 26 20 20 19 19 19 17
28 31 34 34 36 29 21 14 11 17 12 12 20 19 18 13 13 13 12 11 11 14 18 23 25 22 17 15 16 17 21 24 26 28 29 29 29 36 31 22 28 23 33 23 22 21 22 20 18
29 32 35 36 38 34 26 18 12 12 9 13 17 18 14 12 14 12 12 12 13 17 19 22 20 19 14 13 17 19 21 22 24 24 26 27 25 21 21 23 20 31 40 25 24 23 22 20 19
31 36 41 38 37 31 15 13 19 13 14 16 19 18 12 15 15 13 14 12 14 15 19 22 22 18 12 11 11 17 20 21 23 24 26 25 26 26 23 23 18 31 31 26 24 23 20 21 21
35 43 45 36 35 33 30 20 17 16 16 15 18 14 14 19 18 18 14 12 11 16 20 21 21 19 16 13 11 11 17 20 23 25 27 25 24 24 25 19 18 33 30 30 26 26 21 20 21
38 46 39 33 33 33 33 28 30 30 23 19 17 15 13 12 19 20 18 13 10 15 18 20 21 21 17 13 12 12 13 17 20 24 26 24 25 23 24 25 18 34 38 31 29 30 26 23 20
41 42 38 30 33 35 34 31 35 33 29 21 16 15 16 17 18 20 20 18 15 14 15 20 23 23 20 16 14 14 15 17 20 21 24 24 27 27 23 23 22 38 32 32 30 27 27 23 22
42 40 37 33 33 33 31 36 33 37 27 29 23 21 17 17 14 17 18 18 18 15 16 20 23 24 22 19 18 17 17 18 20 23 25 27 24 30 26 27 33 39 33 29 27 25 26 24 27
39 29 35 36 36 36 35 33 33 35 29 34 30 26 20 19 16 19 20 19 18 16 18 20 22 23 23 19 19 20 20 21 21 23 25 27 32 33 41 36 36 41 35 32 26 22 25 27 28
33 37 33 28 28 32 28 41 40 32 33 35 33 27 23 23 22 22 23 23 21 19 19 20 21 22 21 19 18 20 21 23 21 21 24 24 32 27 29 31 34 37 32 29 24 26 27 28 26
21 24 29 34 32 28 27 49 34 30 32 34 33 30 28 26 28 25 22 22 24 23 22 20 19 18 18 19 19 21 21 22 20 17 18 22 26 25 30 33 37 37 32 30 28 28 28 26 24
25 17 15 18 27 27 31 43 31 30 31 34 34 32 31 30 32 31 26 23 25 23 20 19 18 16 18 18 18 21 22 20 16 14 18 18 15 27 31 38 37 35 34 31 26 27 27 26 26
25 20 30 30 23 23 32 44 40 38 38 39 38 34 31 31 31 32 29 26 25 24 14 16 17 15 17 18 18 20 22 17 13 9 11 9 21 37 36 34 32 29 30 32 30 29 26 24 24
27 19 19 18 16 26 34 44 42 38 40 38 37 37 36 32 30 30 28 23 20 20 17 12 15 15 15 17 19 20 19 13 11 6 10 14 31 29 32 35 33 32 30 27 28 29 30 31 31
25 25 28 28 29 31 37 52 46 44 42 41 38 36 36 30 27 31 27 23 19 19 20 18 14 16 15 16 18 20 17 12 11 6 11 21 21 27 32 36 36 36 34 32 34 34 34 33 30
28 26 24 23 25 30 35 58 46 39 43 43 43 40 36 31 28 32 29 26 20 18 18 19 14 16 14 14 16 17 15 11 8 6 8 14 27 18 37 28 33 26 32 36 34 34 34 32 32
26 23 19 18 15 12 17 19 44 43 37 40 41 42 39 34 30 32 32 29 19 15 18 21 18 16 14 12 14 15 12 8 8 6 6 13 29 30 24 32 31 29 35 36 35 33 32 32 33
18 9 6 9 14 17 11 14 13 18 40 40 39 35 39 38 34 33 32 31 26 22 18 20 20 16 14 11 12 12 10 8 13 11 8 9 22 22 24 25 32 30 28 24 34 34 38 34 34
12 8 8 11 12 4 12 14 29 20 11 31 24 20 24 33 40 34 34 34 33 32 25 23 23 18 13 11 11 10 9 6 10 9 9 6 21 22 22 29 26 27 28 24 19 20 34 39 36
13 8 4 5 3 4 6 13 34 30 30 24 24 21 16 26 38 34 37 34 30 24 25 26 24 19 14 12 10 8 7 6 8 9 9 8 9 18 27 24 26 26 30 18 27 18 20 33 44
11 7 6 4 3 3 15 10 12 12 15 22 27 26 23 27 36 37 36 34 31 30 27 26 25 18 16 12 10 8 6 5 6 7 8 8 10 12 22 25 26 26 22 22 21 18 18 28 29
8 7 9 7 17 4 11 19 27 23 22 25 27 28 23 25 38 36 35 33 31 24 24 26 23 18 15 13 12 10 7 5 5 6 7 9 10 13 17 21 24 21 21 22 22 22 22 27 33
11 4 5 5 3 4 7 15 11 17 20 14 22 27 24 23 29 32 31 31 28 23 23 26 25 19 16 16 13 14 11 9 7 5 5 6 8 11 16 20 23 23 25 22 21 24 27 26 34
9 11 8 4 5 3 3 4 12 24 24 23 13 15 17 19 28 31 29 33 33 26 27 28 25 23 21 20 18 16 15 12 11 8 8 7 8 8 13 21 22 23 26 25 25 25 25 27 30
2 6 8 5 3 8 10 14 15 13 13 14 17 12 9 6 17 27 34 35 34 29 30 30 27 23 19 19 21 19 18 17 15 13 11 10 9 9 10 12 16 22 30 31 32 30 28 31 34

GFSSGP_700_spd_093.txt.gz
Wind_Speed
20 19 17 16 9 8 9 7 11 10 9 12 16 14 8 8 6 7 12 11 6 11 11 13 9 11 12 13 12 13 14 14 14 14 13 14 18 18 17 16 14 12 11 10 9 9 10 10 10
21 20 19 18 13 15 12 11 14 15 13 15 13 14 11 9 8 10 12 10 8 9 10 9 13 13 14 14 11 12 15 15 15 14 14 16 19 20 20 20 19 16 13 11 10 9 10 11 12
21 22 20 14 21 27 14 14 11 15 20 16 16 15 14 11 8 9 10 10 8 10 11 12 12 15 16 15 11 11 15 15 16 16 18 19 19 20 20 19 18 16 15 12 12 11 11 12 15
22 23 24 24 26 13 8 15 13 9 9 20 16 17 17 13 9 8 9 10 10 12 11 12 12 19 18 13 10 11 14 15 16 19 20 20 22 22 22 20 20 20 18 13 13 12 12 13 15
24 26 28 28 33 32 19 15 17 10 12 13 19 22 17 12 11 9 9 10 11 11 10 9 16 19 18 13 10 10 14 16 19 21 22 22 23 25 24 22 22 21 19 14 14 13 14 14 15
27 28 25 33 37 32 23 20 22 22 19 20 23 24 20 14 15 10 9 9 8 7 9 11 16 17 17 13 10 9 13 17 20 22 23 23 24 31 27 28 29 23 22 25 24 16 15 16 15
29 32 36 36 36 32 25 21 19 20 21 23 21 27 20 13 14 10 9 8 6 9 10 12 13 16 17 13 10 8 13 16 21 23 24 24 26 32 24 24 32 24 22 18 30 24 19 18 18
28 31 30 38 36 37 28 25 19 16 20 19 17 17 20 14 13 10 10 9 10 9 12 13 13 14 15 13 10 9 13 15 18 20 22 25 24 25 19 15 18 20 24 27 27 25 23 19 19
30 34 37 40 33 33 18 8 11 20 17 17 17 19 18 17 14 10 11 11 11 11 11 13 13 12 15 15 15 10 10 15 19 21 22 23 23 22 19 18 19 21 23 28 33 26 22 19 20
35 42 44 38 31 32 30 27 20 20 21 16 15 22 23 21 17 12 13 14 13 12 12 12 12 12 14 14 16 11 8 11 19 22 23 23 23 22 20 20 22 22 19 22 35 31 24 22 24
40 47 42 36 28 31 33 31 27 26 27 18 14 23 24 24 17 14 11 14 15 14 12 11 13 13 14 13 16 15 10 10 15 20 23 24 24 24 21 23 23 16 17 23 38 29 27 25 22
42 42 40 32 30 34 34 32 33 29 30 26 21 21 23 22 19 17 11 11 15 15 14 13 14 16 16 14 14 18 13 12 14 18 22 24 26 26 22 23 23 23 18 27 36 31 28 25 24
43 42 38 34 32 35 34 36 33 33 27 31 31 28 23 23 21 19 15 11 12 12 14 14 15 17 17 16 14 18 17 16 16 19 22 24 26 27 23 23 26 25 20 27 35 30 27 24 24
31 28 34 34 35 36 38 36 33 35 22 30 35 32 29 26 24 21 19 13 12 13 13 14 17 17 17 17 13 16 17 17 19 21 22 24 26 27 26 26 25 25 22 32 33 28 25 27 25
32 34 35 33 30 32 31 42 42 29 26 29 32 33 34 30 30 27 22 18 15 17 16 18 18 17 18 16 13 15 16 18 20 22 23 24 27 27 32 35 30 28 24 29 34 29 28 30 29
22 27 27 27 30 34 29 44 31 25 25 25 27 30 32 34 32 30 31 24 21 19 19 20 20 18 18 16 15 15 16 17 21 23 23 24 25 28 35 40 24 35 33 28 36 30 30 31 28
22 15 11 12 20 25 32 37 24 24 25 27 27 26 27 32 35 31 33 31 25 23 22 20 20 20 19 17 16 16 17 17 21 22 20 20 23 27 29 33 27 38 33 35 34 30 31 31 29
17 13 21 20 12 16 26 35 29 29 29 30 30 30 29 29 30 32 34 35 33 27 26 19 17 19 18 17 16 16 17 18 21 18 15 18 24 20 26 33 29 36 36 34 33 31 28 27 27
25 21 20 18 13 19 27 34 34 32 36 36 34 33 33 31 29 30 31 35 33 31 29 23 17 15 16 16 16 16 16 17 19 14 13 15 19 14 24 29 33 30 37 33 30 28 29 30 30
25 24 24 24 22 26 33 42 41 40 38 36 36 36 34 33 30 30 32 32 31 31 29 27 20 13 14 15 16 15 15 15 15 13 12 13 15 19 23 34 39 35 36 34 31 28 30 29 27
25 25 23 21 21 25 31 44 33 32 31 28 30 33 35 36 35 30 32 30 32 31 27 27 23 18 14 14 15 14 13 13 10 10 6 16 12 29 26 33 34 35 33 28 33 33 31 30 32
29 26 23 18 15 12 12 12 18 22 16 14 20 24 26 31 36 33 33 30 33 31 28 27 25 21 15 14 14 14 11 11 10 11 10 10 23 24 30 27 36 37 34 31 30 29 29 32 32
23 18 17 16 12 12 14 11 8 6 13 8 10 17 17 26 32 37 35 30 34 34 30 27 24 23 18 13 13 14 10 10 12 15 12 8 14 27 22 34 34 30 32 28 27 34 35 32 33
14 16 12 8 8 5 10 7 2 3 20 24 22 15 11 15 27 37 37 36 31 36 32 25 24 23 19 14 13 13 10 9 10 14 13 10 9 24 28 31 31 26 29 26 25 31 27 29 35
20 19 3 3 4 4 3 7 12 18 12 21 27 23 18 16 20 32 41 37 34 35 36 30 27 25 21 14 13 13 10 9 8 12 13 12 9 21 24 27 30 24 28 23 19 23 17 17 19
24 19 6 4 3 1 5 6 4 10 19 25 32 37 34 31 24 25 37 38 34 35 35 32 30 28 24 16 14 13 11 9 8 9 12 12 11 20 25 22 25 27 28 17 24 17 18 16 14
21 14 13 4 1 1 3 7 16 17 15 21 24 28 32 31 25 21 31 39 33 30 32 27 28 29 25 18 16 14 13 10 8 8 10 10 10 14 21 21 15 16 22 17 18 20 16 17 13
10 15 6 5 2 2 4 6 9 15 28 25 27 30 29 23 22 20 31 36 34 32 32 32 34 29 26 20 18 16 16 13 11 9 8 9 9 10 11 18 19 22 20 20 21 27 19 20 21
16 12 5 6 3 2 3 4 10 20 21 27 29 29 25 15 16 16 26 32 35 34 31 31 37 33 29 23 21 19 19 17 14 12 11 10 10 9 8 11 18 19 21 23 23 22 21 18 21
9 9 8 4 4 2 2 11 5 13 27 28 28 33 30 13 8 13 25 30 33 34 32 31 37 35 32 25 23 23 22 21 19 16 14 12 11 10 11 13 15 17 19 22 25 23 20 21 23

GFSSGP_700_spd_096.txt.gz
Wind_Speed
20 19 17 15 7 9 15 11 12 8 8 14 17 16 12 9 7 4 7 9 9 4 5 9 7 6 8 9 11 11 13 15 14 14 14 13 12 13 13 12 11 10 10 9 9 10 10 10 11
20 19 17 15 12 19 18 14 10 11 11 14 16 19 14 9 11 8 8 9 8 5 6 7 7 6 10 11 11 9 11 14 14 15 16 16 14 14 15 14 14 13 11 11 11 11 11 11 12
20 20 15 12 19 27 18 12 11 14 19 16 12 18 14 11 11 7 8 8 8 6 9 7 8 9 13 12 10 7 10 13 14 15 15 15 16 16 17 18 18 18 16 15 13 12 11 12 13
20 21 24 21 23 17 13 12 13 12 17 22 19 11 19 17 13 8 8 8 8 8 10 9 7 12 14 12 9 7 9 12 14 15 15 18 19 19 18 18 18 18 20 18 16 13 12 12 14
20 19 21 23 28 24 16 10 16 13 12 9 22 17 16 16 15 10 9 8 8 9 9 7 10 12 12 11 8 6 9 11 14 17 17 17 18 19 20 20 20 20 18 24 17 14 12 13 15
21 21 23 30 26 23 24 21 21 20 15 14 19 24 20 22 16 14 11 9 8 6 6 7 10 10 12 9 5 4 8 12 16 17 19 19 19 20 21 24 24 21 22 23 22 16 11 14 14
26 22 30 27 26 23 20 21 26 22 20 16 23 23 20 23 18 17 13 9 8 6 7 9 11 11 11 8 7 6 7 10 15 17 20 21 22 21 22 24 27 24 29 32 17 16 22 17 16
28 25 28 28 28 28 20 21 22 18 16 27 23 19 19 28 23 19 13 10 9 9 9 10 13 11 10 9 7 8 7 9 12 16 19 21 22 23 21 33 19 20 11 22 29 17 29 17 18
29 28 32 30 24 21 21 14 14 21 22 21 21 22 26 26 25 20 13 11 10 10 11 11 12 11 10 11 8 8 6 7 13 17 18 20 22 22 23 19 20 20 17 21 25 26 25 19 18
37 35 35 26 26 19 15 20 14 16 17 21 18 23 23 26 26 23 16 12 11 12 13 13 12 11 10 10 9 8 6 7 11 16 19 20 22 23 23 21 22 21 21 22 23 22 27 24 22
34 43 27 27 27 25 24 23 21 20 21 22 17 20 24 23 26 25 20 17 14 15 14 14 13 11 12 11 9 9 10 8 11 15 16 20 23 24 24 23 23 24 23 22 21 26 29 25 22
37 31 32 29 26 29 32 24 25 25 26 25 29 26 23 27 30 27 22 19 16 14 15 16 15 14 13 13 10 10 12 11 12 14 16 20 23 25 26 26 24 25 24 21 19 24 33 25 22
36 33 27 30 33 30 31 32 27 27 26 25 34 34 30 27 30 28 27 25 21 16 11 12 16 15 15 14 12 12 13 14 13 16 16 19 22 24 27 27 27 26 24 22 12 30 29 27 25
22 29 32 29 30 29 32 33 31 27 24 23 31 39 36 30 32 28 31 27 23 17 15 13 15 16 16 15 13 11 12 14 15 17 17 19 22 26 30 30 29 27 25 21 17 27 29 27 26
28 29 23 24 24 28 31 35 36 32 28 27 28 32 35 33 33 32 29 30 26 23 21 18 18 18 17 16 15 12 12 14 14 18 19 21 24 27 31 29 31 28 25 22 19 39 32 29 26
22 25 30 26 28 30 25 37 18 15 17 24 28 27 29 30 33 35 33 32 29 27 25 23 21 20 19 17 17 14 14 15 15 18 21 23 25 29 30 31 31 30 24 25 22 46 34 30 28
22 27 23 22 21 20 30 23 20 23 21 19 20 19 19 22 30 34 37 36 36 30 29 26 24 21 20 19 19 16 16 16 17 20 23 22 23 27 32 35 33 35 35 31 25 42 33 30 31
26 21 24 18 14 19 25 25 21 14 12 14 14 16 19 21 24 27 36 38 39 38 32 27 28 22 21 21 20 18 17 17 17 21 22 20 18 26 33 34 35 41 30 36 33 34 35 32 32
25 21 20 16 16 19 22 24 23 21 21 22 23 24 26 28 28 28 31 39 44 40 39 33 31 25 21 19 19 18 17 18 17 21 18 15 19 25 30 30 31 34 28 39 35 44 39 36 35
26 26 26 20 17 18 22 26 26 25 26 26 26 26 27 28 27 30 31 35 40 42 41 36 33 27 21 18 18 19 18 17 17 20 15 15 19 19 20 27 27 41 33 37 39 41 38 38 36
27 28 24 21 16 19 21 29 28 25 23 23 23 21 25 29 36 37 36 34 38 40 37 34 34 27 23 18 18 18 17 15 15 16 13 12 16 15 19 18 26 31 30 37 37 37 38 36 36
27 23 18 17 15 19 8 7 6 12 13 13 9 11 19 26 31 37 39 39 35 38 37 34 34 31 28 23 19 16 16 15 14 16 14 11 12 13 16 21 26 27 36 36 33 34 33 31 31
27 17 17 17 18 18 18 10 7 7 6 8 7 12 15 17 23 31 37 40 37 39 37 36 32 34 32 28 20 17 15 15 14 17 14 11 14 19 15 23 31 34 37 35 34 34 34 31 32
12 15 12 11 11 11 19 15 7 7 6 7 6 11 14 16 15 16 30 38 41 41 38 38 33 34 34 30 22 17 15 15 11 15 13 12 13 18 24 29 26 32 34 35 33 32 33 37 39
17 22 9 9 8 8 8 9 9 6 3 7 15 18 21 21 19 15 20 33 39 40 37 38 36 34 34 31 24 18 16 15 9 14 13 13 16 16 31 30 24 37 36 35 33 29 27 33 31
25 25 8 8 6 6 9 7 6 3 3 8 13 15 21 28 23 19 17 28 37 40 38 37 37 33 32 31 25 19 18 16 9 13 13 13 14 13 25 28 24 28 30 21 26 25 22 21 20
21 22 11 1 2 3 8 5 5 3 8 12 15 19 22 23 20 17 16 23 34 39 37 38 40 36 31 31 27 20 18 17 11 12 13 14 14 14 23 28 24 36 31 26 24 22 25 18 24
18 20 10 7 5 6 6 2 5 5 9 16 22 23 25 25 22 16 14 18 29 37 40 39 39 36 34 32 30 22 20 18 15 11 13 14 14 15 19 26 24 29 23 31 23 19 27 22 22
17 15 7 8 2 1 1 6 2 5 14 19 22 29 30 24 25 11 13 18 28 36 40 39 40 36 36 34 32 25 23 21 18 14 15 13 13 13 17 22 29 26 22 25 26 26 23 29 20
14 12 11 7 4 2 1 1 2 12 15 21 23 26 24 23 25 12 11 18 29 34 36 39 41 39 37 37 34 28 25 23 22 18 17 15 13 12 12 12 16 26 25 29 27 25 24 23 21

GFSSGP_700_spd_099.txt.gz
Wind_Speed
18 16 14 13 9 13 22 21 15 10 11 11 11 11 10 10 7 3 4 6 9 10 7 8 11 7 9 10 11 11 11 14 16 15 13 13 11 9 11 10 9 7 8 9 10 11 10 10 10
19 16 14 10 16 22 23 17 14 14 13 12 13 14 10 9 10 8 8 7 9 8 7 8 9 9 9 11 11 10 9 12 14 15 16 14 14 11 13 12 11 11 11 11 11 11 12 12 10
19 16 11 14 27 28 24 7 14 13 14 11 10 12 13 11 10 8 9 8 8 7 8 9 7 6 12 13 11 9 9 12 14 14 15 14 14 13 14 16 18 14 15 14 14 13 12 11 10
18 18 18 24 27 21 22 22 12 16 13 14 14 11 15 13 9 9 11 8 9 8 9 9 7 8 11 11 10 8 8 11 13 15 16 18 17 18 17 19 24 18 19 18 15 15 13 11 12
16 15 23 25 28 29 22 17 12 14 12 10 15 18 10 17 16 13 13 9 9 9 8 8 8 9 8 10 9 7 8 12 14 15 16 16 16 17 17 18 17 16 19 16 16 16 13 14 14
18 18 27 29 31 25 23 22 16 18 18 14 13 17 17 12 17 18 14 11 10 10 6 6 6 9 8 8 7 5 6 12 14 15 16 16 16 17 18 18 18 19 20 20 22 14 16 15 15
25 25 31 32 29 24 22 24 23 23 21 18 16 15 17 18 23 21 17 14 13 10 9 8 8 11 8 7 6 6 4 9 12 15 16 17 17 17 17 17 17 18 20 23 24 28 20 16 17
26 29 36 34 30 31 22 21 19 21 24 22 20 16 16 21 24 24 19 17 15 12 10 9 8 11 9 7 7 6 5 7 11 14 17 19 21 20 20 20 22 27 21 26 25 18 17 20 21
25 34 41 36 33 29 23 23 19 17 19 22 20 21 24 28 29 25 25 20 19 15 12 11 10 11 10 8 7 7 6 6 10 14 16 18 21 23 23 25 24 20 22 20 18 18 21 15 23
34 37 42 32 28 28 24 23 17 19 20 22 19 19 33 33 31 30 28 23 21 18 14 12 13 12 11 9 8 8 9 8 8 12 14 17 21 23 24 24 24 22 21 21 21 20 20 25 24
37 51 33 32 32 28 26 23 22 21 21 19 23 20 24 27 27 31 28 26 24 21 18 15 14 14 12 11 10 10 11 10 10 11 12 17 20 22 23 25 23 24 23 23 22 20 19 17 26
40 41 35 37 28 28 30 27 28 28 26 22 22 22 21 20 26 30 27 24 26 25 20 18 17 17 15 14 11 10 13 14 12 13 13 16 19 21 24 26 26 24 24 24 22 19 14 23 25
44 39 37 32 33 35 29 31 30 30 27 27 27 28 28 24 23 25 24 25 23 27 23 21 19 17 17 15 13 12 13 15 15 15 16 16 20 22 24 26 27 25 25 24 21 20 17 20 24
35 41 37 36 34 30 34 34 31 31 27 29 27 28 30 30 29 26 25 25 25 25 27 23 20 17 18 16 16 13 12 14 16 17 17 18 19 23 25 26 28 26 26 24 22 21 12 26 28
38 34 34 36 41 38 28 37 40 30 28 28 27 29 29 31 29 29 28 25 26 27 28 27 24 20 20 19 19 16 14 15 16 18 19 20 21 23 26 26 30 27 27 26 26 24 17 35 29
27 36 41 40 29 29 29 48 28 25 31 32 32 29 28 28 30 29 29 28 26 26 27 31 27 24 23 22 21 20 16 17 17 19 20 21 22 25 27 28 29 29 29 29 25 28 27 30 28
35 37 42 35 33 32 35 41 26 29 22 22 23 26 27 27 28 30 29 29 27 26 27 35 30 25 27 25 23 23 20 18 19 20 22 22 23 27 30 33 31 30 31 30 27 33 30 31 29
39 35 34 34 30 32 32 34 28 20 23 24 21 21 22 21 21 23 27 29 28 28 29 34 34 31 28 27 26 25 23 20 21 22 24 23 24 26 30 31 32 31 33 33 31 32 31 38 31
38 29 24 24 26 21 24 27 27 23 26 23 20 20 21 21 20 21 22 24 28 36 34 40 38 35 28 29 27 24 22 22 23 24 25 24 22 20 23 26 31 34 38 35 36 27 38 39 33
29 20 26 23 21 19 24 24 23 25 28 26 24 24 24 23 24 25 26 26 28 31 41 45 42 40 35 31 27 23 24 25 24 25 25 23 20 21 26 30 32 38 34 41 36 34 40 40 35
29 29 27 22 20 19 21 26 27 28 28 27 27 25 23 25 23 25 27 29 29 30 43 42 43 41 41 32 30 25 24 25 24 25 24 21 19 21 24 26 24 32 33 34 35 38 38 39 39
34 28 29 25 22 26 18 20 22 21 22 23 22 19 18 16 17 19 24 32 30 32 37 42 42 40 34 32 32 24 22 22 24 25 23 20 20 21 21 22 24 30 37 37 31 36 38 43 43
29 19 23 22 23 22 21 13 18 16 15 16 13 11 11 12 13 15 17 20 33 32 32 44 42 40 32 32 34 26 24 22 23 24 22 18 18 19 16 16 18 22 26 29 35 38 34 43 37
20 18 16 18 21 19 25 23 15 14 18 16 10 7 8 9 12 13 17 22 29 36 35 43 41 42 34 35 37 30 27 24 23 23 21 16 17 18 14 16 17 28 22 30 35 39 36 34 36
21 20 8 10 11 12 23 25 11 13 12 8 6 5 8 12 15 16 25 28 31 28 31 41 43 39 35 35 39 35 30 25 22 21 21 15 15 17 14 16 15 20 19 29 34 34 36 37 33
25 29 12 6 10 13 12 8 12 13 7 3 2 5 9 13 18 19 24 30 29 32 29 39 43 38 37 37 41 37 31 26 22 20 20 14 13 16 15 14 21 23 29 33 37 35 32 32 36
25 28 18 4 5 4 14 13 11 11 7 1 5 8 15 16 18 19 20 24 26 33 33 37 41 39 38 39 42 37 31 26 23 19 19 16 13 15 16 15 24 24 20 35 34 35 30 31 30
23 18 13 7 2 4 11 18 13 11 4 5 9 12 19 21 16 20 16 20 22 28 30 37 39 39 38 40 40 36 32 26 23 21 19 16 13 14 17 18 21 26 26 25 28 20 20 24 21
17 20 12 12 7 3 4 9 10 8 5 9 11 19 21 26 15 20 10 14 18 29 18 36 38 39 38 39 39 38 34 29 24 21 20 17 14 14 15 17 21 24 23 31 32 30 19 24 25
20 18 18 7 9 3 7 6 8 9 9 11 18 23 20 21 21 21 12 8 16 26 23 31 36 38 37 40 41 39 36 30 25 23 22 18 15 13 13 14 20 24 25 28 33 32 25 21 27

GFSSGP_700_spd_102.txt.gz
Wind_Speed
15 14 13 12 8 12 21 23 20 20 8 10 10 9 8 6 4 5 15 13 9 13 17 12 9 9 7 7 8 8 9 12 14 15 13 11 10 12 11 9 8 7 9 10 9 9 9 9 8
16 13 13 7 16 21 25 20 18 16 8 15 16 13 8 4 8 9 12 9 12 15 15 12 10 10 9 8 9 9 9 11 13 15 14 12 12 11 11 11 9 9 9 9 9 10 10 9 8
14 14 9 12 23 32 26 22 13 5 15 12 15 8 10 8 11 7 11 14 14 16 14 11 9 9 8 10 10 9 9 11 13 15 14 13 14 14 14 13 13 12 13 13 12 11 11 9 8
14 16 15 23 29 23 28 27 21 13 11 14 17 11 10 14 11 14 18 13 13 15 13 11 9 8 9 9 9 8 8 11 14 15 15 14 15 15 14 14 18 18 18 17 14 12 12 9 9
16 12 21 23 29 30 29 26 20 14 16 11 12 17 12 19 18 15 17 16 13 15 11 8 8 7 7 8 8 7 7 11 14 15 14 15 15 16 17 16 17 20 20 7 15 13 17 13 9
20 17 26 31 32 29 27 27 23 20 15 16 12 14 17 18 16 22 22 16 13 12 10 8 6 7 7 6 7 6 6 8 12 13 13 14 15 16 16 15 14 13 13 10 10 18 15 15 14
25 24 32 31 32 30 27 24 24 19 20 19 16 16 14 18 17 23 21 19 14 12 12 9 7 6 6 6 6 7 7 6 9 13 14 15 14 16 17 16 15 13 13 15 12 13 19 18 21
27 27 35 38 35 33 26 24 18 23 25 21 19 15 17 12 18 20 28 25 17 15 15 11 8 7 7 5 6 7 7 6 7 11 14 15 17 18 19 19 17 15 16 16 13 19 20 9 27
26 35 47 41 34 33 27 26 19 22 20 22 24 26 19 25 21 25 24 24 20 19 17 14 11 9 10 6 7 8 8 7 7 9 13 16 18 19 20 20 20 20 16 14 16 16 15 9 16
33 41 59 35 32 32 30 30 26 21 18 22 25 22 31 31 29 27 29 31 25 23 21 16 15 13 12 9 6 8 9 9 9 8 10 13 17 18 20 23 22 21 18 19 18 17 17 16 23
35 50 46 36 34 33 31 32 23 24 27 24 25 25 32 34 36 33 30 34 30 26 26 18 17 16 15 12 9 8 9 11 10 11 11 12 15 17 21 21 20 21 20 20 19 18 17 15 16
38 48 45 41 35 33 32 33 31 25 27 18 19 24 30 29 27 31 31 27 28 29 27 22 17 19 17 15 12 10 9 11 12 12 12 13 14 16 20 21 21 22 22 21 20 18 17 17 19
41 50 39 41 39 38 36 35 31 36 27 26 29 23 23 26 24 20 25 23 23 28 28 26 19 21 19 19 14 12 12 11 12 13 14 16 17 17 20 22 23 22 22 23 21 17 18 16 14
41 43 43 41 40 39 37 36 32 38 31 32 28 33 32 29 28 27 23 23 24 26 30 29 23 21 20 20 17 14 14 13 13 13 14 17 19 19 20 23 25 24 23 25 22 19 18 13 15
33 40 45 43 46 43 37 42 49 38 32 32 35 33 32 33 33 33 29 27 26 27 32 35 30 23 23 21 22 17 18 17 13 14 14 17 19 21 23 24 27 26 26 26 23 22 21 22 20
32 37 44 51 40 41 41 56 44 32 32 36 36 35 34 34 34 31 31 28 28 26 30 32 35 25 26 24 24 20 21 20 18 16 16 16 19 21 23 26 27 27 29 27 26 25 22 23 24
40 39 45 47 40 38 34 58 42 35 33 37 36 36 33 29 29 29 32 30 29 30 26 34 35 30 28 27 26 26 24 22 23 19 18 18 20 22 24 27 28 28 33 25 26 26 25 23 26
39 39 39 39 30 38 41 51 34 31 32 29 24 29 31 31 30 30 30 30 33 30 28 36 37 38 30 29 28 27 29 23 23 23 22 20 23 24 26 29 30 28 31 29 28 28 29 26 27
39 39 37 35 31 28 33 49 44 36 36 28 26 28 23 22 22 24 26 26 29 32 31 34 38 43 34 32 32 29 28 25 23 24 25 23 25 25 28 27 25 26 28 29 30 29 29 26 31
41 39 41 31 27 23 23 31 33 35 33 34 29 26 24 24 23 21 21 24 28 32 33 38 41 45 43 34 33 32 29 27 25 27 25 24 26 27 29 25 24 26 28 31 34 35 35 35 34
40 42 31 26 20 11 9 21 27 28 28 28 32 27 26 25 22 21 26 30 30 29 32 35 36 43 44 37 36 35 31 30 29 26 24 24 26 28 28 26 25 29 31 32 36 35 38 33 40
39 37 23 23 12 4 5 8 18 26 28 26 22 24 23 24 27 26 28 29 32 37 35 25 37 37 43 37 37 37 35 31 26 23 24 24 25 28 27 26 28 26 27 26 37 43 40 34 44
32 26 26 17 18 12 21 7 20 20 35 26 29 28 23 20 17 19 27 27 37 42 43 39 33 39 40 36 32 32 33 30 26 24 24 22 24 28 26 26 25 22 25 27 30 37 40 38 46
21 9 8 12 12 8 27 23 16 18 13 22 16 15 10 8 13 21 25 27 29 31 39 39 35 42 44 39 34 31 31 32 28 24 22 20 23 27 24 24 21 17 22 24 28 34 33 35 44
15 16 6 7 8 8 17 22 24 11 19 20 17 10 5 11 17 22 32 35 35 33 31 35 34 36 45 41 36 33 32 36 32 27 23 20 23 24 23 20 16 15 20 23 19 36 33 35 38
24 22 10 7 9 12 21 12 16 14 16 18 11 12 10 7 17 20 27 26 22 30 33 33 39 35 49 42 35 34 34 38 37 29 25 18 23 22 23 20 12 9 17 18 19 24 34 35 37
24 26 20 4 7 2 14 19 18 16 15 17 9 9 11 16 24 28 22 23 23 26 30 32 32 35 47 41 36 37 36 39 39 31 25 18 22 22 22 18 12 10 16 20 26 26 35 36 35
18 25 10 12 2 0 11 19 16 20 13 12 4 4 13 15 16 15 16 21 22 24 28 29 31 41 42 35 35 38 37 41 38 31 25 20 21 22 21 18 12 13 18 15 23 29 30 31 30
22 13 10 7 12 0 3 5 8 14 12 6 5 13 18 16 14 13 14 18 16 19 23 28 25 35 38 35 36 38 38 43 37 30 26 21 20 21 21 17 13 14 20 18 21 31 30 29 30
15 18 20 6 1 7 4 9 7 14 6 7 12 15 13 16 16 16 12 11 10 16 21 25 27 29 32 34 36 36 44 42 37 31 27 23 21 20 19 17 14 15 17 20 24 21 22 27 25

GFSSGP_700_spd_105.txt.gz
Wind_Speed
15 14 15 13 11 12 18 22 13 7 9 17 13 8 3 5 10 9 13 11 10 11 12 14 18 18 10 6 6 6 8 10 11 12 15 13 11 12 12 9 7 7 9 10 10 10 10 9 9
11 14 17 14 14 19 22 16 17 12 27 18 18 15 13 8 13 12 12 13 11 11 13 16 18 18 11 6 5 7 9 10 11 11 13 13 12 12 11 11 10 8 9 10 11 11 11 10 9
11 15 18 17 21 28 27 16 17 16 22 18 12 14 12 12 14 19 12 13 11 12 15 17 17 17 13 10 6 7 8 9 11 11 13 15 14 14 12 12 12 14 14 13 12 11 11 10 10
11 17 19 24 28 23 22 15 7 14 17 15 14 12 10 18 23 21 21 16 18 15 14 16 16 14 12 10 5 6 7 8 11 12 13 15 15 15 14 15 14 13 14 15 15 14 15 13 11
17 19 24 29 34 31 26 21 25 31 24 17 12 15 9 19 24 25 23 23 16 16 14 15 15 14 11 8 5 5 5 6 9 11 13 14 14 15 17 14 14 16 18 14 11 12 14 14 13
23 21 21 33 37 31 26 19 20 23 20 16 8 8 10 18 25 28 30 25 20 17 14 13 13 11 10 8 5 5 5 5 6 9 12 14 15 15 16 17 14 13 11 3 9 15 15 13 13
30 26 35 38 37 33 25 16 25 25 23 24 13 15 18 20 20 23 24 21 17 18 13 12 12 11 10 9 6 6 5 5 5 8 11 13 15 16 17 16 14 14 14 7 7 6 7 2 18
29 27 36 43 38 38 24 23 23 27 30 28 22 13 18 23 23 26 28 22 18 20 15 13 12 12 10 9 7 7 5 5 5 6 10 13 15 17 16 16 14 15 14 12 8 10 14 8 10
28 33 48 58 40 39 26 26 25 19 24 23 28 20 20 24 25 25 28 24 19 21 19 16 14 12 12 10 8 7 7 6 6 5 8 13 16 17 18 17 17 17 15 13 11 10 9 7 7
35 41 64 38 38 40 30 29 30 25 27 28 25 30 22 28 27 30 33 30 21 20 21 20 16 14 14 11 9 8 6 8 7 6 8 11 14 17 18 20 20 16 16 17 17 13 10 8 5
31 50 56 48 39 36 33 34 30 34 29 27 26 32 32 32 35 30 32 31 27 22 24 22 21 17 13 14 12 11 7 6 7 7 10 11 14 16 18 19 18 18 18 18 16 13 11 11 12
35 48 47 45 40 40 38 35 37 39 37 31 30 30 30 32 36 37 37 39 40 33 27 26 25 20 15 14 14 13 9 7 8 9 11 12 14 14 16 17 17 17 17 16 16 15 14 14 14
36 43 43 44 42 40 41 46 43 43 32 24 24 25 27 32 32 35 33 32 35 35 26 26 25 20 19 14 16 14 12 8 8 9 11 13 15 14 16 19 18 18 18 17 16 16 15 16 15
34 37 43 44 43 45 45 47 40 50 36 26 30 35 28 24 25 33 32 31 26 27 25 21 24 23 23 18 16 16 14 11 10 10 11 13 14 15 16 19 21 20 19 19 18 17 17 18 16
41 41 41 42 52 50 43 48 49 49 40 34 32 33 41 36 28 25 23 27 26 27 29 26 23 25 25 23 18 19 16 15 13 12 13 14 15 15 16 19 21 20 21 23 21 20 20 20 17
36 36 43 53 43 49 40 49 52 41 44 41 36 36 39 46 46 38 31 33 29 29 32 29 29 29 28 27 24 19 19 18 17 15 15 16 15 14 17 19 20 23 24 25 24 23 20 22 19
40 41 43 46 42 40 42 47 51 45 36 41 41 42 39 42 43 48 46 35 31 31 33 31 31 30 28 26 28 23 23 21 19 20 17 17 18 17 17 18 20 23 26 26 27 27 26 25 22
38 30 41 42 35 31 40 50 50 38 36 50 42 37 37 42 41 32 33 32 32 29 33 33 29 29 30 31 28 29 25 25 23 22 20 19 20 21 21 20 20 24 29 27 29 29 30 28 23
41 33 34 34 39 36 24 29 42 38 35 34 35 43 41 38 38 27 30 29 28 29 34 34 37 33 33 34 34 31 29 26 25 23 22 23 21 22 22 22 22 25 29 27 30 29 30 27 27
40 40 40 32 36 25 29 29 38 33 41 40 36 37 30 34 28 26 26 28 29 29 35 37 36 37 36 35 36 33 34 30 27 27 25 26 24 22 24 23 22 24 26 26 28 30 32 31 33
37 37 38 38 27 17 28 37 36 38 45 39 35 34 31 31 27 27 31 29 29 30 35 36 35 34 38 41 41 38 37 35 31 28 29 28 25 24 24 23 24 24 25 25 27 31 34 37 35
33 34 36 39 28 11 9 6 17 30 29 40 29 31 30 30 29 32 32 32 34 39 43 37 34 33 34 40 43 38 32 37 32 29 27 27 26 25 24 24 24 25 24 27 30 32 36 39 34
32 31 34 37 30 15 12 5 16 13 16 28 29 22 26 30 33 37 41 42 42 41 44 44 41 32 30 34 39 37 30 34 35 32 29 27 25 23 24 23 24 24 26 28 30 35 41 41 41
26 32 13 21 8 6 19 24 14 7 16 22 25 25 29 24 33 37 41 40 44 44 43 44 46 45 44 33 41 41 34 30 32 30 29 28 22 22 23 23 23 24 26 28 29 33 31 36 42
17 21 1 3 6 4 11 18 20 4 19 14 18 20 23 31 33 33 34 38 40 42 43 46 49 46 49 49 39 41 38 30 29 28 30 27 23 21 22 22 22 24 26 25 28 24 30 35 43
24 21 9 5 3 4 12 8 5 20 12 23 25 28 31 27 24 25 25 31 40 43 47 53 58 59 57 54 52 45 38 32 31 30 32 29 26 22 22 21 20 21 26 19 20 24 25 34 33
18 23 12 2 2 0 6 7 9 19 16 20 25 20 17 18 19 21 26 32 33 32 31 33 35 40 43 52 51 46 38 33 34 32 33 33 27 22 22 21 19 19 22 14 18 26 30 31 34
21 19 8 2 1 4 6 8 8 17 14 11 23 16 10 9 15 22 27 30 27 27 28 31 32 30 38 31 41 42 35 34 36 36 32 33 27 23 21 20 19 18 19 15 16 22 25 24 29
9 15 8 3 5 4 4 4 12 12 14 11 10 6 5 10 13 12 13 18 21 22 19 23 28 29 40 36 39 36 34 34 37 38 32 32 29 24 21 19 18 17 16 17 14 19 22 20 28
15 10 8 5 3 3 3 7 18 17 14 9 5 2 2 3 4 8 9 9 17 14 12 16 21 25 35 36 30 33 35 35 39 38 34 32 30 25 21 19 18 16 16 18 12 15 19 28 31

GFSSGP_700_spd_108.txt.gz
Wind_Speed
12 15 16 18 13 12 16 24 20 13 7 16 16 13 15 17 13 8 9 13 12 10 9 8 9 14 16 17 14 11 10 11 12 15 18 17 15 14 14 13 11 11 12 12 13 11 12 13 12
13 14 16 19 17 22 26 23 21 7 8 9 9 14 15 21 22 20 14 11 11 9 8 6 11 15 16 15 12 11 10 11 13 14 15 16 14 13 13 13 14 15 15 14 14 14 13 13 12
16 15 16 15 25 32 31 15 14 13 10 8 15 18 17 20 24 24 22 9 9 9 8 11 12 15 15 15 11 8 9 11 12 13 14 16 15 15 15 16 15 14 14 13 14 15 15 14 12
18 18 20 27 30 21 21 13 15 17 8 6 8 18 22 23 20 22 15 11 11 13 17 14 13 14 14 13 10 7 7 9 10 12 13 15 17 17 17 15 14 13 12 12 11 13 15 15 16
18 22 27 35 39 36 30 21 16 18 11 9 14 21 16 23 21 17 18 20 21 17 18 17 13 11 11 11 10 7 6 6 7 10 12 13 15 17 18 17 15 13 13 11 8 15 21 21 18
22 24 30 41 44 36 31 22 20 22 13 12 15 20 21 20 18 19 18 18 19 18 20 16 14 10 9 10 10 7 6 5 5 8 11 13 15 16 17 18 16 14 12 8 12 17 16 12 15
29 30 43 46 46 41 31 19 22 20 17 15 13 24 23 24 18 17 16 17 16 17 16 17 14 11 8 9 10 8 6 5 4 7 11 13 15 16 17 17 17 15 14 10 7 9 12 9 17
30 33 48 51 47 48 32 23 23 25 21 17 21 33 27 25 27 24 19 20 19 18 17 17 16 13 9 9 10 8 6 6 5 6 10 13 16 15 16 17 18 17 12 10 8 8 8 10 15
29 38 55 52 46 46 34 30 24 24 25 10 18 29 26 25 27 24 24 27 21 19 18 19 17 14 11 9 9 9 6 6 6 7 8 11 14 14 15 17 18 15 14 13 10 9 7 10 10
33 43 65 45 43 42 36 37 29 28 26 23 20 27 27 24 28 31 30 30 26 23 19 19 17 16 14 11 9 10 8 6 8 8 8 9 11 13 14 17 18 17 16 14 14 12 11 10 7
34 51 50 49 43 42 44 42 33 36 37 27 16 30 36 35 31 31 32 30 27 23 20 21 20 19 18 13 10 10 10 7 7 9 9 10 10 12 14 16 18 19 17 16 16 14 13 11 9
38 45 45 45 41 42 47 43 44 36 44 32 22 16 37 36 39 36 35 36 32 31 28 25 24 23 22 16 12 11 11 9 7 8 10 10 10 12 12 14 16 17 17 16 15 15 15 13 12
42 46 41 43 44 45 43 48 44 43 45 39 22 19 35 37 39 35 37 34 33 36 34 32 31 28 26 19 14 12 11 11 9 8 9 10 10 12 14 14 15 16 16 16 15 15 15 15 15
42 32 44 44 48 46 45 45 38 52 44 42 34 27 23 38 36 33 35 32 32 34 30 27 25 29 26 21 17 15 13 14 11 10 9 10 9 10 13 15 15 15 15 17 17 16 17 17 18
30 37 47 51 52 42 35 46 49 51 44 43 40 35 26 28 29 34 36 33 32 34 30 25 22 26 26 25 23 19 17 16 15 13 11 11 11 9 11 13 16 15 15 19 20 19 18 19 20
40 37 40 55 49 46 34 46 52 46 43 50 42 40 34 29 30 36 35 32 30 32 26 21 20 25 26 25 23 22 21 19 17 16 15 13 13 12 11 12 14 16 18 18 21 21 20 21 20
44 37 38 48 37 35 31 38 54 46 46 48 43 36 40 36 29 30 32 32 29 30 30 26 28 27 27 25 25 25 26 24 21 18 17 16 16 15 15 15 14 16 19 19 21 23 23 23 21
36 35 39 37 49 36 35 35 49 42 40 45 45 41 34 43 38 37 36 36 36 33 33 30 33 31 30 28 27 24 24 26 26 22 20 19 18 18 18 18 17 18 20 20 22 24 25 24 24
37 38 38 43 45 31 36 47 30 32 42 48 44 45 43 38 36 40 36 36 45 44 42 37 34 37 34 32 31 30 26 24 28 26 24 22 21 21 20 21 20 20 21 21 22 23 25 26 27
38 37 40 41 36 35 28 37 46 34 28 42 46 41 45 46 35 33 29 36 32 35 38 40 37 37 36 36 33 30 28 28 27 31 29 26 23 24 23 21 22 22 23 23 22 22 25 30 30
38 39 37 32 32 32 26 30 34 37 33 32 42 41 36 32 37 40 42 42 43 43 43 42 39 38 33 33 35 35 30 33 34 33 33 30 25 25 24 22 23 23 25 24 22 22 25 31 33
35 28 35 36 33 25 24 11 23 26 39 38 39 38 38 26 27 34 38 40 43 45 40 43 43 35 31 32 35 36 33 32 33 34 33 32 29 26 25 24 23 25 26 25 22 23 26 29 34
31 28 23 24 34 25 26 11 26 19 13 29 32 38 29 23 29 36 38 38 39 42 40 38 43 42 41 38 35 31 32 28 30 31 33 33 31 28 26 23 24 25 26 25 23 25 29 32 35
22 22 23 17 27 14 27 19 15 16 17 10 21 30 29 32 36 42 35 36 37 39 40 41 40 41 44 44 43 43 33 29 31 28 28 34 33 30 27 23 24 24 26 24 23 23 30 35 36
24 24 4 2 5 4 12 17 23 10 11 25 31 34 34 38 40 36 41 35 35 38 38 38 36 35 40 44 44 46 41 33 32 31 30 31 33 31 27 24 24 24 25 23 22 25 31 32 41
11 20 7 4 3 3 5 8 2 14 23 26 31 36 30 32 35 35 30 30 32 34 36 40 44 42 37 37 41 46 48 46 35 35 32 32 32 30 29 27 25 24 25 23 22 25 28 30 34
5 20 20 8 6 3 9 7 21 22 16 21 23 29 26 25 23 27 34 33 35 38 41 46 50 51 50 48 48 44 47 48 46 40 40 33 33 32 31 29 26 24 24 21 21 19 19 25 22
15 12 8 5 1 2 7 4 6 15 27 14 18 20 25 22 24 27 27 32 36 41 46 48 52 54 58 61 58 55 53 47 44 46 42 33 34 33 34 30 26 24 23 21 18 16 14 20 29
1 11 7 2 3 1 3 5 8 12 15 13 10 17 12 9 10 14 19 22 26 30 35 37 38 39 42 42 39 44 38 38 37 36 35 33 33 32 35 32 26 24 22 20 17 17 15 21 26
6 4 8 2 1 6 3 5 11 13 18 14 10 14 7 5 3 4 9 15 20 22 25 29 23 23 25 28 33 38 35 34 34 34 31 33 35 31 36 32 26 24 21 20 16 16 16 23 23

GFSSGP_700_spd_111.txt.gz
Wind_Speed
16 18 19 18 13 13 17 23 16 17 6 6 10 9 11 14 13 12 12 18 15 14 11 7 7 6 10 14 14 13 14 14 14 15 16 17 17 15 14 13 14 13 13 12 13 13 13 12 14
17 18 19 19 18 23 23 21 18 10 5 4 4 7 10 13 15 12 9 10 15 12 10 7 6 8 10 13 13 13 14 14 14 14 15 16 18 17 15 15 14 13 12 11 12 13 13 13 13
19 18 20 20 26 32 27 20 19 14 10 8 7 9 13 18 20 20 14 7 5 7 6 6 10 9 10 12 12 12 12 14 13 14 14 14 17 17 15 13 12 11 11 9 10 12 13 13 13
21 22 24 29 36 23 17 18 15 12 11 9 9 11 12 15 21 19 17 17 8 5 7 11 11 8 8 10 10 10 11 11 11 13 13 13 15 16 14 12 12 12 11 11 11 9 10 11 10
24 26 30 39 42 38 31 26 23 21 12 13 14 16 20 16 20 19 19 14 10 11 11 12 14 9 7 8 8 8 10 8 7 10 11 12 14 15 14 14 13 12 11 11 11 9 10 13 18
27 29 34 42 46 40 34 23 27 25 21 20 16 14 17 19 25 22 20 13 12 12 10 12 11 9 8 8 7 7 8 7 6 7 9 11 12 13 15 15 15 12 12 10 10 13 15 17 16
29 33 46 48 48 44 36 23 25 26 26 20 17 22 17 23 26 22 17 15 15 13 12 13 10 11 9 8 8 7 7 8 6 7 8 11 11 12 14 15 15 13 13 12 12 11 9 8 12
30 36 50 52 51 54 42 30 27 30 30 24 20 20 23 25 27 24 19 16 17 15 16 15 13 13 11 9 8 8 7 8 8 7 9 10 11 12 13 15 15 16 14 13 12 11 8 12 12
29 39 57 52 47 52 46 37 32 30 37 30 24 18 14 24 32 27 25 21 23 21 20 17 15 14 12 11 8 8 7 8 8 9 8 9 10 11 13 15 15 16 15 14 13 10 9 12 11
31 43 51 44 45 48 45 38 33 37 37 37 28 18 20 15 33 32 29 24 27 24 23 21 16 14 13 12 11 8 7 8 9 9 8 8 9 11 13 14 16 17 17 15 14 14 14 12 13
36 54 44 46 44 44 44 41 34 36 43 39 32 23 19 17 28 29 28 25 23 26 24 22 19 18 17 15 13 10 8 8 8 8 8 9 9 11 13 14 16 17 18 17 16 15 15 14 13
42 44 44 46 44 46 49 47 45 40 52 40 35 27 23 15 34 33 29 24 29 31 24 24 22 21 20 18 16 13 10 8 8 7 8 8 9 10 11 12 14 16 16 17 17 17 18 17 15
43 47 45 48 49 48 49 51 50 48 47 45 41 35 27 18 27 41 34 30 29 30 26 24 22 23 23 22 19 17 13 10 9 7 7 7 8 10 12 12 12 14 16 17 18 19 19 19 18
43 47 51 53 52 48 49 55 46 59 43 43 44 42 37 31 26 38 43 37 32 29 24 25 24 23 29 26 24 19 16 13 12 9 7 7 8 8 10 12 12 13 14 15 17 18 19 20 20
37 42 52 57 52 47 36 53 57 53 46 44 44 44 42 39 27 36 40 41 31 29 24 26 26 26 28 32 27 22 19 17 15 13 11 9 9 8 8 10 11 12 13 15 17 19 21 22 22
43 41 48 60 45 40 22 49 62 49 41 46 44 44 45 43 31 24 37 37 32 28 29 29 28 23 24 26 24 22 21 21 18 17 15 12 11 10 10 10 10 11 14 16 17 19 20 21 23
40 43 43 59 55 55 48 49 59 37 32 42 45 46 43 44 38 25 30 36 32 28 27 32 27 24 17 26 25 24 22 21 22 21 19 16 14 13 13 12 12 13 13 15 17 20 21 22 23
30 30 31 38 46 40 49 49 51 49 41 38 43 46 44 44 40 36 31 26 27 27 27 29 31 26 20 24 27 27 25 24 24 25 22 20 18 16 17 15 15 15 15 16 17 19 21 24 25
40 42 43 48 40 41 44 45 44 46 33 36 38 43 33 34 36 30 35 33 30 30 33 34 35 31 29 30 31 30 27 23 21 23 24 24 22 20 20 20 18 17 17 16 18 20 22 23 25
30 40 48 56 47 37 43 40 37 35 36 36 27 37 42 32 32 40 37 40 39 42 40 39 39 38 34 30 32 32 32 28 27 24 23 23 25 25 24 24 22 20 19 19 20 21 22 24 25
35 34 39 43 38 36 36 41 31 32 28 36 32 26 33 43 38 36 39 41 46 45 43 42 41 41 41 34 37 37 33 32 31 29 29 24 25 27 28 27 26 23 22 21 22 22 23 24 25
34 29 31 30 24 28 28 14 30 29 23 29 33 33 29 35 42 39 36 44 48 46 47 44 42 42 45 43 41 38 38 34 30 31 26 25 29 30 29 30 28 26 25 24 24 24 25 25 27
32 19 18 26 29 25 28 18 23 15 12 13 28 31 29 28 34 37 37 32 49 53 53 52 44 43 44 45 43 40 39 35 32 32 25 26 28 30 30 31 31 29 27 26 26 26 27 28 30
15 19 20 23 25 10 28 19 17 14 12 19 18 28 31 27 27 31 29 34 45 47 45 48 47 46 45 45 42 40 41 37 32 35 31 28 27 26 30 31 32 30 27 27 26 28 29 30 31
15 18 5 3 3 5 8 17 23 11 12 15 18 26 33 34 30 31 33 35 38 42 42 42 43 42 43 44 44 40 40 38 39 34 34 29 29 28 28 33 34 32 28 28 28 29 30 31 33
20 18 7 3 1 3 11 5 2 11 15 14 18 24 32 34 36 32 32 32 35 33 31 34 36 39 40 41 43 43 40 41 40 40 38 33 30 27 30 32 34 32 31 29 28 28 30 31 33
5 7 16 13 18 3 5 12 14 9 13 9 17 22 29 30 34 32 31 26 28 27 27 28 29 31 33 34 38 39 40 40 41 41 42 40 39 38 31 33 35 34 33 31 28 28 30 30 26
10 13 5 2 3 4 2 9 12 11 18 21 16 26 24 29 30 26 29 29 31 32 30 32 32 34 38 39 40 40 40 41 41 41 42 45 43 38 37 39 38 36 34 31 28 28 28 28 22
10 9 5 7 4 2 2 4 12 9 14 21 20 17 24 20 26 25 21 22 23 34 40 41 42 45 46 47 52 50 48 49 50 51 46 46 42 41 39 38 37 36 36 32 29 27 27 27 23
18 16 13 8 0 4 5 6 7 11 19 18 20 13 13 14 13 14 15 21 18 27 34 40 43 44 45 46 48 52 51 46 45 38 40 40 36 36 34 36 34 36 36 33 30 27 26 25 23

GFSSGP_700_spd_114.txt.gz
Wind_Speed
18 19 18 18 13 11 12 17 13 12 7 4 4 9 11 12 13 9 8 9 17 17 16 11 5 4 6 7 9 11 12 12 12 13 14 13 14 15 14 13 11 9 9 10 10 11 11 11 10
19 19 20 21 18 20 19 20 22 13 11 11 7 9 9 8 8 14 15 5 16 16 15 8 4 6 6 6 8 9 11 11 12 13 14 13 13 15 15 13 10 8 9 9 9 10 11 10 10
21 21 21 19 27 30 26 25 26 16 13 13 12 8 10 9 11 13 10 6 8 11 13 7 5 6 5 5 6 8 10 10 11 13 14 13 12 13 13 11 8 7 8 7 8 8 8 8 9
22 24 26 30 35 23 16 13 12 11 9 14 15 12 10 12 12 12 9 8 10 7 8 5 5 5 4 5 5 6 8 9 10 12 12 11 11 11 11 9 8 8 8 9 8 8 7 6 8
24 27 31 39 39 37 28 23 28 27 22 14 19 18 17 15 14 13 12 10 10 6 5 4 4 5 3 4 5 5 7 7 7 9 9 10 10 9 10 10 10 9 9 10 9 9 8 7 11
25 28 35 41 41 38 32 25 27 28 24 18 25 25 24 15 18 15 18 18 12 9 8 6 5 3 4 5 5 5 6 7 6 7 7 8 7 9 10 11 11 10 10 10 10 10 11 11 14
26 30 42 42 42 40 34 26 27 29 31 23 26 29 25 14 14 15 20 17 14 13 11 9 7 5 6 7 8 5 6 6 6 6 6 6 7 9 10 11 12 12 12 12 12 12 8 8 7
28 33 44 43 41 43 38 31 32 32 36 32 30 31 27 22 18 17 24 21 19 16 13 12 11 10 8 7 8 5 5 6 6 5 5 5 8 10 11 11 12 14 14 13 12 12 9 8 7
28 37 45 42 40 38 33 32 29 31 37 37 32 35 28 22 18 22 30 27 23 21 19 17 14 9 8 7 8 7 6 5 6 6 5 4 6 8 10 11 13 15 15 14 13 12 10 8 6
29 41 43 42 38 32 26 27 29 32 34 38 37 31 33 24 19 26 35 31 27 23 24 18 16 12 10 9 7 9 7 6 5 6 5 4 5 8 10 12 14 16 16 15 15 13 12 12 9
36 45 41 41 39 41 43 43 38 36 44 34 34 29 30 31 25 25 40 38 28 26 25 18 18 16 13 13 10 11 10 7 5 5 5 4 4 6 10 12 13 14 17 16 16 14 13 13 12
40 43 42 46 43 44 44 46 47 45 44 38 36 35 31 22 30 24 38 42 35 28 24 22 21 19 16 16 13 13 13 9 7 5 4 3 4 5 8 9 12 13 15 17 17 16 15 16 15
43 48 47 48 48 48 50 51 51 56 48 42 42 41 40 34 24 27 34 47 42 35 27 25 23 21 19 19 18 16 15 13 9 6 5 3 3 5 7 8 11 13 15 17 18 19 18 18 17
44 47 51 50 49 49 49 54 52 52 45 47 44 46 43 43 33 26 36 49 48 40 35 29 26 23 22 21 23 21 18 16 12 9 7 4 3 3 5 7 10 11 13 16 18 20 20 20 19
36 45 47 50 49 52 49 63 56 53 50 46 45 46 45 44 42 41 31 41 48 42 38 33 28 25 24 19 23 28 22 20 15 12 11 8 5 4 4 6 8 10 12 14 17 19 20 21 21
35 37 45 49 38 45 42 60 65 56 56 50 41 49 48 45 44 44 40 33 46 48 42 35 32 29 25 23 24 29 26 23 18 16 14 13 10 7 6 5 7 9 11 13 15 18 20 20 21
28 33 36 53 40 40 39 47 56 48 52 54 49 42 48 48 44 45 42 34 44 46 44 40 36 30 26 18 21 25 26 24 20 20 17 16 14 11 10 8 9 11 12 13 14 16 18 19 20
32 31 37 46 39 42 52 57 54 53 45 48 45 46 47 46 45 44 38 33 35 43 43 38 37 31 23 19 21 26 28 25 23 20 19 19 18 15 13 12 12 13 14 14 14 15 18 19 20
35 35 40 48 43 49 58 50 50 51 52 47 42 44 44 44 37 37 38 38 30 42 44 42 41 34 28 24 22 24 28 31 26 22 20 21 21 19 17 14 16 16 15 16 16 17 18 19 21
26 33 41 42 44 40 43 47 45 42 38 42 43 36 36 40 33 31 35 34 40 35 37 43 45 37 31 27 26 28 28 29 25 24 22 19 16 20 21 19 19 20 19 19 19 19 19 20 21
27 32 39 38 38 40 38 41 37 39 41 32 28 24 32 32 26 35 27 39 39 43 38 41 40 38 35 34 34 34 33 34 32 28 28 24 21 20 19 18 21 24 24 22 22 21 21 21 22
26 19 27 31 33 23 23 15 41 34 21 22 32 32 33 27 25 34 37 32 39 41 43 43 42 42 40 39 40 38 37 36 32 30 31 29 27 23 22 22 23 27 27 26 25 24 23 24 25
17 15 21 26 29 31 40 13 18 25 20 27 20 22 25 24 22 24 36 35 42 38 39 43 43 43 40 39 42 41 43 38 35 33 33 33 31 27 25 25 25 28 28 28 28 27 26 26 27
21 23 23 22 23 7 28 16 7 17 10 10 11 18 23 23 21 23 28 37 34 44 42 40 37 44 43 40 40 43 42 43 38 36 37 34 33 32 29 27 24 27 29 30 29 29 28 29 29
14 13 6 4 1 5 18 8 7 13 14 16 8 16 21 24 25 25 26 29 31 33 39 45 50 50 49 50 46 40 38 39 38 38 37 37 37 38 34 28 28 25 30 29 30 31 30 30 31
23 18 7 5 3 6 15 5 10 12 4 3 6 13 19 24 26 26 28 29 31 32 35 39 42 49 48 38 40 40 36 37 37 37 37 40 34 33 34 30 28 25 28 32 32 33 33 31 32
5 7 14 10 18 12 9 10 12 16 13 4 7 18 19 20 25 29 28 28 28 27 27 27 28 30 31 35 38 39 40 40 40 38 39 37 39 38 36 33 34 32 28 30 32 35 33 32 33
9 10 5 5 5 4 5 7 14 19 17 17 18 14 19 20 21 26 26 24 26 27 26 24 23 22 23 26 30 32 33 37 39 40 41 40 40 41 41 39 37 37 36 34 35 36 35 33 33
16 10 6 9 6 2 3 5 14 14 13 18 18 19 18 25 22 25 26 26 20 21 24 26 25 25 25 25 27 28 30 32 34 37 38 37 38 39 40 40 43 42 42 42 37 38 37 34 33
20 13 15 7 2 3 4 5 11 10 14 17 18 18 18 25 19 24 23 26 22 22 16 25 29 36 38 36 34 39 40 41 43 45 45 44 46 47 44 45 47 45 44 36 36 38 39 35 33

GFSSGP_700_spd_117.txt.gz
Wind_Speed
16 16 16 16 12 8 6 8 11 9 6 3 5 10 14 10 10 7 4 11 8 16 13 15 12 7 5 3 4 3 3 4 6 8 9 10 11 10 10 8 6 6 6 6 7 8 8 7 8
18 18 18 18 14 14 16 20 21 15 14 15 15 16 7 7 8 9 6 6 4 11 12 15 13 7 5 4 2 2 3 4 5 7 8 9 10 11 10 8 7 5 5 5 6 7 7 7 6
20 20 19 15 20 19 18 23 23 19 7 11 13 13 10 6 6 5 6 5 5 9 16 16 10 6 5 3 2 2 3 4 4 7 8 10 10 10 8 6 6 4 5 5 6 6 5 5 6
21 22 23 25 25 14 9 12 17 12 10 10 13 16 16 11 11 8 2 6 9 11 15 13 10 5 4 3 2 2 2 4 4 6 8 9 9 8 6 7 6 5 6 7 7 6 5 5 6
22 25 27 27 28 27 24 22 23 26 25 21 22 22 22 13 14 13 5 10 12 12 13 12 8 3 3 2 2 3 3 4 4 5 6 7 8 7 8 8 8 7 7 7 7 7 7 6 6
22 25 27 29 27 26 25 21 24 26 28 25 26 26 25 20 16 17 12 18 15 16 15 13 7 3 4 4 3 2 3 4 4 4 5 5 7 8 9 10 9 8 9 9 8 7 7 7 8
22 25 31 30 28 30 31 26 29 30 34 32 31 31 26 23 19 16 19 23 18 22 18 14 9 6 6 7 5 3 1 3 4 4 4 5 8 9 10 11 10 11 11 10 8 8 6 6 6
23 27 26 23 25 36 32 28 27 30 32 32 27 17 14 21 20 18 20 26 24 27 21 16 13 9 8 8 6 4 2 2 3 4 3 6 8 9 10 11 11 12 12 11 10 8 7 6 7
22 29 29 32 30 32 28 31 26 29 32 29 27 27 26 26 23 20 22 30 30 31 25 20 18 11 9 9 8 6 4 3 2 3 3 4 7 9 11 11 12 12 12 12 11 10 8 7 6
27 34 33 24 29 31 31 32 30 31 31 32 31 31 32 28 27 24 20 30 33 34 30 25 21 16 13 11 10 8 7 6 3 3 3 5 6 9 11 12 12 13 13 13 12 12 9 9 9
33 36 33 36 37 39 41 42 41 40 39 38 37 34 31 29 28 29 25 28 39 41 36 31 25 18 17 14 13 10 9 7 6 3 4 5 6 7 10 12 12 12 12 12 13 11 11 10 11
37 38 38 41 41 44 46 47 47 46 48 41 41 39 36 33 22 30 31 28 43 46 42 36 29 23 20 17 17 12 12 9 8 6 5 5 5 6 8 10 11 12 11 12 13 13 13 13 13
37 40 40 42 43 45 48 50 50 53 48 48 45 47 45 42 39 28 32 29 44 50 48 41 35 28 25 20 19 17 15 13 11 9 7 6 6 6 8 9 11 12 13 13 14 15 14 16 16
33 35 38 40 41 42 44 49 50 51 47 53 53 49 50 48 46 39 34 35 42 50 51 46 39 32 28 23 22 21 20 17 14 12 10 8 7 6 7 9 10 12 13 14 16 17 17 18 18
32 42 43 41 40 32 34 53 43 42 40 46 51 55 55 52 51 47 40 39 39 49 53 51 44 38 32 26 24 24 24 23 19 15 14 11 9 8 6 7 9 11 13 14 16 17 17 18 18
34 37 40 19 29 37 21 55 36 36 37 42 45 48 58 60 57 52 43 45 42 43 53 54 49 43 36 29 27 25 27 28 24 20 17 16 13 10 9 7 8 9 11 12 13 15 16 17 17
23 24 34 45 30 31 15 33 50 40 45 50 48 46 48 57 60 57 48 47 48 45 52 57 53 47 38 34 30 29 28 30 29 24 20 17 17 14 12 10 9 10 11 11 12 14 15 16 18
20 28 34 42 45 38 41 43 46 48 50 53 49 45 46 48 58 61 48 46 51 48 50 55 58 49 44 38 33 33 25 30 32 26 21 20 19 19 16 13 12 12 12 12 13 14 15 16 19
22 27 36 40 38 41 41 36 49 47 48 45 46 49 46 41 43 53 54 46 49 52 49 58 59 57 50 42 36 33 27 29 31 28 22 21 21 21 20 17 15 14 13 14 15 17 18 18 19
20 26 32 38 30 26 41 47 44 40 37 39 37 32 32 35 36 41 50 46 47 54 50 55 60 57 52 44 38 35 28 28 29 27 26 22 21 22 22 21 19 17 17 17 17 18 19 20 20
18 21 21 26 30 31 34 43 36 34 29 32 23 26 28 32 34 43 38 42 43 53 50 49 56 57 55 47 41 36 34 33 32 30 27 24 22 20 19 21 22 21 20 20 20 21 22 22 22
16 14 22 26 23 20 22 19 37 27 25 27 25 22 28 25 27 30 32 36 41 47 47 41 49 52 52 49 43 41 37 34 30 30 29 27 28 26 24 22 20 21 21 23 25 25 25 25 25
21 22 26 28 27 23 24 9 9 23 28 26 24 25 24 23 26 27 28 31 32 38 35 38 37 48 51 49 46 44 40 38 34 32 34 34 33 31 30 26 25 25 24 25 29 30 28 27 27
18 21 27 13 11 6 8 6 5 27 28 25 18 12 13 19 21 23 26 27 31 34 29 34 37 38 44 45 44 42 38 36 36 34 36 37 35 33 34 30 30 29 28 24 28 31 31 29 29
10 16 6 4 1 6 17 4 6 25 26 20 17 7 5 12 19 21 23 23 24 26 29 27 31 36 41 41 41 41 40 38 40 36 40 38 38 37 35 34 35 33 30 27 26 30 30 30 30
17 10 5 5 6 12 14 6 9 25 21 16 12 5 4 7 13 16 19 22 21 23 25 23 30 31 31 34 37 39 37 35 33 35 36 40 41 37 36 31 39 38 34 29 23 25 31 32 32
7 7 9 9 10 5 2 10 10 29 22 20 14 6 11 12 12 15 16 17 20 22 25 28 33 34 36 37 40 41 43 42 39 38 35 36 37 38 36 37 37 40 37 32 29 29 27 31 33
10 14 9 5 4 5 3 5 14 27 26 24 22 16 9 19 19 17 18 17 16 18 21 22 23 26 29 34 37 38 34 33 36 35 37 36 36 35 38 38 39 40 39 38 36 35 33 33 34
16 16 12 9 7 4 3 4 15 19 22 21 21 19 14 21 18 24 19 18 18 18 19 20 20 22 24 25 27 27 27 32 33 36 40 42 39 38 40 41 40 44 44 42 42 40 38 39 38
11 15 19 9 3 4 4 4 12 14 19 19 17 19 18 17 22 22 20 17 16 18 18 22 22 21 21 20 21 20 20 22 23 26 30 33 36 39 41 43 44 44 47 46 46 43 44 41 37

GFSSGP_700_spd_120.txt.gz
Wind_Speed
15 15 14 12 5 7 10 6 6 4 5 4 8 9 12 9 8 7 9 7 7 12 13 14 15 12 8 8 7 6 3 3 3 4 5 6 6 6 4 5 3 2 3 3 5 5 5 5 6
17 16 15 11 9 14 13 12 12 7 12 15 16 13 9 6 8 9 10 5 4 11 13 14 15 10 9 8 7 5 3 3 3 4 5 6 6 6 5 5 3 3 3 4 5 4 5 5 5
17 17 12 7 13 18 16 9 8 9 7 5 8 8 9 6 9 10 7 6 6 10 13 15 13 10 8 7 6 4 2 3 4 5 6 6 7 7 7 6 5 4 6 6 6 6 5 5 5
17 18 19 16 20 15 11 11 16 13 10 15 18 14 12 11 13 11 7 9 8 11 13 16 13 10 7 8 5 3 2 3 3 4 6 7 8 7 7 7 6 7 8 8 8 6 5 5 5
16 18 16 16 21 20 21 23 22 23 19 20 21 19 16 17 17 14 10 12 12 13 16 18 14 10 8 8 5 4 3 2 3 4 5 7 7 8 8 9 8 9 9 9 8 7 7 6 6
12 17 16 21 22 21 22 22 20 22 20 21 22 18 16 19 18 16 13 17 16 21 19 19 16 13 10 10 7 5 3 3 3 4 6 6 8 9 10 11 10 9 9 9 8 8 7 7 7
13 14 20 22 22 23 22 17 20 23 25 21 17 19 18 15 24 17 15 21 22 25 23 21 19 14 12 11 9 6 4 4 3 4 6 8 10 11 11 12 11 10 10 10 9 8 8 8 7
17 16 18 19 21 23 18 21 19 21 21 28 14 10 8 23 21 20 18 22 29 29 28 26 22 18 14 12 11 8 6 5 4 5 6 10 11 12 13 13 12 12 12 10 9 9 8 8 7
19 15 19 20 19 20 16 15 19 26 29 27 24 19 21 28 27 24 22 20 31 33 32 32 27 22 17 14 13 10 7 6 6 6 7 10 13 14 14 14 13 13 13 11 11 10 9 8 7
21 18 19 18 17 18 21 29 31 34 33 31 30 29 34 29 30 30 26 26 28 37 36 36 31 27 22 18 15 13 10 8 6 7 7 9 12 14 14 14 14 14 14 13 13 12 10 9 9
22 23 20 23 23 32 35 36 33 39 42 35 41 40 39 37 30 32 31 31 27 39 41 39 38 33 28 23 19 15 11 10 8 8 8 10 12 15 15 15 15 15 14 14 13 13 12 10 11
30 29 32 33 34 39 42 42 45 45 49 46 47 45 45 46 40 29 34 33 34 35 44 45 43 38 32 28 23 19 14 12 11 9 9 10 12 13 14 14 14 14 14 13 14 14 13 13 13
28 25 28 31 33 35 38 43 44 44 45 47 49 52 52 51 49 42 34 37 36 36 44 50 47 42 37 33 27 23 18 14 14 12 11 11 12 13 13 14 14 14 14 14 15 15 14 15 15
25 28 31 34 33 33 37 36 29 30 31 31 34 43 49 54 54 54 45 40 39 38 41 52 52 48 43 38 31 27 24 20 18 15 14 13 13 13 12 13 14 14 15 16 16 16 16 17 17
27 32 27 18 12 18 26 39 27 22 23 29 29 31 40 48 53 58 57 47 45 42 40 50 55 52 48 42 37 32 28 25 22 18 16 16 15 14 13 13 14 14 15 16 15 17 16 17 17
21 14 10 13 21 20 21 49 26 26 26 32 36 39 39 43 50 50 54 60 47 49 46 45 54 58 53 48 41 36 32 28 26 24 20 19 17 15 14 13 13 13 14 15 15 15 15 16 16
11 15 22 20 14 12 18 42 36 32 35 36 37 39 41 42 43 47 47 51 57 51 50 47 49 58 58 52 46 39 35 31 30 29 25 22 20 19 16 15 14 14 13 13 13 13 13 14 15
17 22 24 24 13 28 31 35 38 35 32 34 35 36 37 38 39 37 48 43 43 54 56 53 51 50 60 56 51 44 40 35 34 33 31 26 23 22 21 18 17 16 14 13 12 12 13 13 15
18 19 25 23 25 24 18 29 33 35 31 27 29 32 34 36 36 35 37 43 42 56 59 54 51 50 57 62 58 49 43 37 37 35 35 31 27 25 23 21 19 19 17 15 14 14 16 15 17
15 20 23 24 14 28 29 32 22 19 19 19 24 26 28 32 31 29 29 34 44 50 61 58 55 52 53 62 57 49 42 38 36 33 36 33 29 28 25 23 22 22 20 19 18 16 16 17 18
16 19 21 25 27 23 21 23 12 16 18 26 34 34 35 41 36 32 34 38 50 42 56 56 57 55 53 60 58 53 46 40 40 33 36 34 29 27 25 25 27 26 24 23 21 20 20 21 21
17 12 17 21 23 18 21 18 30 16 22 37 41 37 37 33 32 35 33 32 40 39 53 51 57 58 52 54 62 57 48 43 40 33 33 33 31 28 26 25 25 27 27 26 23 24 25 26 26
11 16 21 24 24 21 14 11 9 21 37 43 44 37 33 26 22 23 28 29 28 36 48 45 51 54 50 52 60 59 51 43 41 36 36 34 32 31 30 29 28 26 26 26 26 27 28 30 32
15 19 22 15 11 8 5 8 4 24 36 41 41 36 31 25 17 19 23 24 26 25 30 36 40 47 46 52 57 62 71 43 42 38 37 35 33 34 35 33 33 31 31 29 29 26 27 31 34
9 14 8 5 8 7 13 7 4 23 35 33 35 35 29 23 15 13 13 16 20 21 21 33 39 41 46 50 57 63 54 44 42 38 34 33 35 35 39 35 35 35 33 32 30 30 29 29 31
14 7 7 6 9 17 10 4 4 21 30 29 28 28 24 19 13 9 10 11 14 18 15 24 30 36 40 47 52 48 42 45 42 36 36 39 36 37 39 39 39 34 36 33 32 34 33 28 25
5 9 7 13 21 11 2 3 6 24 27 26 27 24 20 16 3 3 7 8 14 18 16 19 21 31 30 30 38 44 39 38 37 37 38 41 41 42 43 43 41 38 39 32 36 40 39 32 27
11 10 10 6 5 5 4 4 12 27 28 26 26 25 20 15 5 8 15 11 11 17 19 18 18 16 25 26 32 26 33 35 37 36 37 39 38 41 40 44 41 38 39 38 40 42 38 37 33
11 11 10 12 12 5 6 6 12 20 24 26 21 22 21 17 14 17 13 13 11 12 15 22 16 17 18 19 20 22 26 31 37 39 36 37 39 41 39 38 39 41 40 42 42 39 42 40 35
10 12 15 12 7 7 4 3 10 15 20 22 18 16 19 18 15 19 18 15 11 11 9 12 15 17 17 23 27 29 32 33 27 33 36 38 39 38 38 37 38 38 42 40 43 43 42 44 46

GFSSGP_700_spd_123.txt.gz
Wind_Speed
15 13 11 9 6 9 15 11 9 5 5 3 3 5 8 9 9 7 6 17 12 12 11 14 15 14 10 8 7 10 10 8 4 4 5 5 4 3 2 2 2 1 1 3 3 3 4 5 5
16 14 11 5 11 19 18 10 9 7 8 9 11 9 7 5 5 8 10 14 11 10 11 13 14 14 10 8 9 10 10 8 5 5 5 6 5 4 2 2 3 3 4 4 4 5 6 6 5
16 13 8 12 19 22 18 6 3 5 8 3 3 4 8 5 10 9 16 11 12 11 11 14 15 14 11 7 9 10 10 8 6 6 6 6 7 6 5 5 5 6 6 6 5 5 6 6 6
13 11 12 16 23 19 15 9 5 10 9 11 8 10 10 7 8 12 17 13 11 14 14 14 17 16 11 7 11 10 9 8 6 6 8 8 8 7 6 7 7 7 8 7 6 6 6 6 6
10 8 17 22 22 19 19 18 18 19 18 16 15 15 13 13 18 19 16 15 13 15 16 17 18 16 11 9 11 11 9 7 6 7 8 8 9 8 8 9 9 9 8 8 8 7 7 7 6
9 10 17 22 19 16 14 16 16 18 16 15 16 17 13 10 18 18 19 17 17 18 19 20 21 19 13 13 13 12 9 8 7 8 8 8 9 10 10 10 10 9 9 9 8 8 8 7 7
11 14 23 23 22 20 19 19 17 17 17 14 15 13 12 12 23 24 16 20 21 22 23 23 23 21 17 17 16 13 11 9 8 9 10 10 11 12 12 12 12 10 11 10 9 9 9 8 8
12 15 20 20 22 21 16 17 14 15 17 16 11 11 7 18 26 26 24 22 22 26 28 27 27 25 21 20 19 16 13 11 10 9 11 12 13 13 14 14 13 12 12 12 11 10 10 9 9
17 14 19 19 20 19 14 15 14 16 21 20 17 17 17 25 34 23 20 22 25 28 31 31 31 29 25 23 21 18 16 13 11 10 12 13 14 15 15 16 14 14 14 14 13 12 11 10 9
13 17 18 18 19 17 18 18 23 27 27 27 23 22 23 28 30 29 29 27 28 28 34 36 36 35 29 27 24 21 19 15 12 11 12 12 13 14 15 15 16 16 16 16 15 14 12 10 10
12 18 17 19 18 19 25 28 26 30 36 29 30 33 37 38 37 33 31 32 30 31 25 38 40 39 34 31 27 24 22 18 15 13 12 13 14 14 14 15 17 17 17 17 16 15 13 12 12
18 16 16 19 21 27 33 33 33 30 37 39 41 42 45 45 41 34 36 34 34 32 31 24 41 42 39 35 32 28 25 21 18 16 15 14 15 15 16 17 16 17 16 16 16 15 15 14 14
18 16 16 23 26 30 29 29 31 32 32 30 37 39 41 43 40 32 32 37 37 38 34 35 40 46 44 40 37 33 29 26 21 19 17 16 15 16 18 18 18 16 17 17 17 17 16 15 15
14 20 22 24 23 22 24 24 24 26 25 27 29 30 32 33 37 34 31 40 38 41 41 38 40 50 49 47 43 38 34 30 25 22 19 18 17 17 17 18 17 17 17 17 17 17 17 17 17
23 21 19 13 11 18 20 23 21 18 24 28 28 29 30 33 33 35 34 35 38 43 47 44 39 47 51 53 48 45 40 34 29 25 22 20 19 19 18 18 17 18 17 17 18 18 17 18 18
14 13 5 11 19 19 14 30 19 24 25 29 30 32 33 33 35 35 36 35 32 36 46 50 46 42 51 55 53 49 45 39 34 29 25 23 22 21 20 18 16 16 17 17 18 18 18 17 17
12 11 19 18 18 17 16 36 23 24 24 26 27 28 30 32 31 32 36 35 35 33 34 49 48 45 48 52 57 55 50 44 38 34 31 28 26 24 23 20 17 15 15 16 17 17 17 16 15
15 20 19 18 17 24 24 27 28 24 21 18 16 19 21 22 24 27 27 32 33 33 35 37 47 46 45 53 58 59 56 50 43 39 36 33 29 27 25 22 20 18 16 15 16 14 16 15 14
15 19 21 18 20 17 20 29 26 24 11 11 16 22 28 31 35 35 32 26 29 32 35 37 39 40 50 50 53 62 62 55 46 43 41 36 33 30 28 26 23 21 18 16 15 15 16 15 15
16 20 22 20 13 23 24 27 22 13 11 11 20 27 42 45 44 40 38 34 28 32 36 37 46 53 54 47 49 60 64 57 48 46 44 40 37 35 32 29 26 23 21 20 18 17 17 16 17
17 20 23 22 22 23 18 25 7 8 7 16 22 35 44 44 43 39 32 35 43 45 50 53 54 58 54 44 41 54 63 60 55 51 49 42 38 41 36 31 29 26 25 23 21 21 19 20 20
19 15 17 23 21 22 19 22 24 6 10 23 36 43 43 42 37 33 29 31 33 39 44 44 46 52 49 55 49 54 61 66 63 53 46 42 41 42 39 34 31 28 28 27 24 24 22 24 23
12 14 20 23 25 25 25 17 2 9 18 35 41 43 43 42 37 30 29 30 29 33 37 37 37 48 54 51 54 54 56 65 62 52 48 45 41 41 40 34 31 29 30 29 28 27 26 25 26
14 17 23 21 18 16 22 8 7 13 24 38 40 41 42 42 40 32 31 31 30 32 35 33 33 44 51 51 52 57 54 56 60 56 52 45 40 40 38 34 31 29 28 27 27 27 27 27 26
8 14 12 10 7 15 11 14 3 14 24 36 38 39 39 39 37 35 30 32 29 25 28 29 28 31 46 54 56 50 52 53 56 59 52 45 38 37 34 35 34 33 31 31 30 31 30 29 28
12 12 10 8 11 20 31 7 3 11 24 29 33 34 36 34 31 30 31 25 15 17 21 25 25 25 37 48 55 54 50 55 60 68 27 44 40 39 32 31 30 33 32 32 33 34 33 32 31
1 12 9 16 28 22 11 2 3 14 23 30 31 30 33 31 30 26 18 8 4 8 15 21 25 23 32 40 48 49 50 52 65 43 53 39 32 35 38 34 38 38 37 35 34 38 40 36 32
13 10 9 9 5 9 6 5 6 23 28 32 31 28 29 29 27 22 11 7 6 5 16 21 22 33 24 39 40 38 44 50 61 39 43 35 40 36 37 40 41 40 39 39 39 41 44 45 36
8 9 9 15 17 6 9 4 10 19 25 30 28 26 26 26 26 23 16 17 12 11 19 14 13 20 27 21 20 32 28 34 36 32 38 33 40 42 41 38 34 37 41 42 42 42 42 46 41
3 5 11 10 11 14 9 3 9 15 21 25 23 22 21 22 23 21 18 18 17 10 9 8 13 16 19 15 13 15 17 22 12 31 33 42 44 43 38 35 37 39 38 40 43 42 41 43 41